[[{"header":{"parameterUnit":"m.s-1","parameterCategory":1,"la1":30.6,"la2":28.766,"lo1":-90.7593,"lo2":-88.6598,"dy":0.0162,"dx":0.0183,"nx":116,"ny":114,"refTime":"2024-05-06T00:00:00:Z","depth":0,"parameterNumber":2,"parameterNumberName":"U-component_of_WINDS"},"data":[0.0,0.0,0.0,0.0,0.0,0.0,0.0,0.0,0.0,0.0,0.0,0.0,0.0,0.0,0.0,0.0,0.0,0.0,0.0,0.0,0.0,0.0,0.0,0.0,0.0,0.0,0.0,0.0,0.0,0.0,0.0,0.0,0.0,0.0,0.0,0.0,0.0,0.0,0.0,0.0,0.0,0.0,0.0,0.0,0.0,0.0,0.0,0.0,0.0,0.0,0.0,0.0,0.0,0.0,0.0,0.0,0.0,0.0,0.0,0.0,0.0,0.0,0.0,0.0,0.0,0.0,0.0,0.0,0.0,0.0,0.0,0.0,0.0,0.0,0.0,0.0,0.0,0.0,0.0,0.0,0.0,0.0,0.0,0.0,0.0,0.0,0.0,0.0,0.0,0.0,0.0,0.0,0.0,0.0,0.0,0.0,0.0,0.0,0.0,0.0,0.0,0.0,0.0,0.0,0.0,0.0,0.0,0.0,0.0,0.0,0.0,0.0,0.0,0.0,0.0,0.0,0.0,0.0,0.0,0.0,0.0,0.0,0.0,0.0,0.0,0.0,0.0,0.0,0.0,0.0,0.0,0.0,0.0,0.0,0.0,0.0,0.0,0.0,0.0,0.0,0.0,0.0,0.0,0.0,0.0,0.0,0.0,0.0,0.0,0.0,0.0,0.0,0.0,0.0,0.0,0.0,0.0,0.0,0.0,0.0,0.0,0.0,0.0,0.0,0.0,0.0,0.0,0.0,0.0,0.0,0.0,0.0,0.0,0.0,0.0,0.0,0.0,0.0,0.0,0.0,0.0,0.0,0.0,0.0,0.0,0.0,0.0,0.0,0.0,0.0,0.0,0.0,0.0,0.0,0.0,0.0,0.0,0.0,0.0,0.0,0.0,0.0,0.0,0.0,0.0,0.0,0.0,0.0,0.0,0.0,0.0,0.0,0.0,0.0,0.0,0.0,0.0,0.0,0.0,0.0,0.0,0.0,0.0,0.0,0.0,0.0,0.0,0.0,0.0,0.0,0.0,0.0,0.0,0.0,0.0,0.0,0.0,0.0,0.0,0.0,0.0,0.0,0.0,0.0,0.0,0.0,0.0,0.0,0.0,0.0,0.0,0.0,0.0,0.0,0.0,0.0,0.0,0.0,0.0,0.0,0.0,0.0,0.0,0.0,0.0,0.0,0.0,0.0,0.0,0.0,0.0,0.0,0.0,0.0,0.0,0.0,0.0,0.0,0.0,0.0,0.0,0.0,0.0,0.0,0.0,0.0,0.0,0.0,0.0,0.0,0.0,0.0,0.0,0.0,0.0,0.0,0.0,0.0,0.0,0.0,0.0,0.0,0.0,0.0,0.0,0.0,0.0,0.0,0.0,0.0,0.0,0.0,0.0,0.0,0.0,0.0,0.0,0.0,0.0,0.0,0.0,0.0,0.0,0.0,0.0,0.0,0.0,0.0,0.0,0.0,0.0,0.0,0.0,0.0,0.0,0.0,0.0,0.0,0.0,0.0,0.0,0.0,0.0,0.0,0.0,0.0,0.0,0.0,0.0,0.0,0.0,0.0,0.0,0.0,0.0,0.0,0.0,0.0,0.0,0.0,0.0,0.0,0.0,0.0,0.0,0.0,0.0,0.0,0.0,0.0,0.0,0.0,0.0,0.0,0.0,0.0,0.0,0.0,0.0,0.0,0.0,0.0,0.0,0.0,0.0,0.0,0.0,0.0,0.0,0.0,0.0,0.0,0.0,0.0,0.0,0.0,0.0,0.0,0.0,0.0,0.0,0.0,0.0,0.0,0.0,0.0,0.0,0.0,0.0,0.0,0.0,0.0,0.0,0.0,0.0,0.0,0.0,0.0,0.0,0.0,0.0,0.0,0.0,0.0,0.0,0.0,0.0,0.0,0.0,0.0,0.0,0.0,0.0,0.0,0.0,0.0,0.0,0.0,0.0,0.0,0.0,0.0,0.0,0.0,0.0,0.0,0.0,0.0,0.0,0.0,0.0,0.0,0.0,0.0,0.0,0.0,0.0,0.0,0.0,0.0,0.0,0.0,0.0,0.0,0.0,0.0,0.0,0.0,0.0,0.0,0.0,0.0,0.0,0.0,0.0,0.0,0.0,0.0,0.0,0.0,0.0,0.0,0.0,0.0,0.0,0.0,0.0,0.0,0.0,0.0,0.0,0.0,0.0,0.0,0.0,0.0,0.0,0.0,0.0,0.0,0.0,0.0,0.0,0.0,0.0,0.0,0.0,0.0,0.0,0.0,0.0,0.0,0.0,0.0,0.0,0.0,0.0,0.0,0.0,0.0,0.0,0.0,0.0,0.0,0.0,0.0,0.0,0.0,0.0,0.0,0.0,0.0,0.0,0.0,0.0,0.0,0.0,0.0,0.0,0.0,0.0,0.0,0.0,0.0,0.0,0.0,0.0,0.0,0.0,0.0,0.0,0.0,0.0,0.0,0.0,0.0,0.0,0.0,0.0,0.0,0.0,0.0,0.0,0.0,0.0,0.0,0.0,0.0,0.0,0.0,0.0,0.0,0.0,0.0,0.0,0.0,0.0,0.0,0.0,0.0,0.0,0.0,0.0,0.0,0.0,0.0,0.0,0.0,0.0,0.0,0.0,0.0,0.0,0.0,0.0,0.0,0.0,0.0,0.0,0.0,0.0,0.0,0.0,0.0,0.0,0.0,0.0,0.0,0.0,0.0,0.0,0.0,0.0,0.0,0.0,0.0,0.0,0.0,0.0,0.0,0.0,0.0,0.0,0.0,0.0,0.0,0.0,0.0,0.0,0.0,0.0,0.0,0.0,0.0,0.0,0.0,0.0,0.0,0.0,0.0,0.0,0.0,0.0,0.0,0.0,0.0,0.0,0.0,0.0,0.0,0.0,0.0,0.0,0.0,0.0,0.0,0.0,0.0,0.0,0.0,0.0,0.0,0.0,0.0,0.0,0.0,0.0,0.0,0.0,0.0,0.0,0.0,0.0,0.0,0.0,0.0,0.0,0.0,0.0,0.0,0.0,0.0,0.0,0.0,0.0,0.0,0.0,0.0,0.0,0.0,0.0,0.0,0.0,0.0,0.0,0.0,0.0,0.0,0.0,0.0,0.0,0.0,0.0,0.0,0.0,0.0,0.0,0.0,0.0,0.0,0.0,0.0,0.0,0.0,0.0,0.0,0.0,0.0,0.0,0.0,0.0,0.0,0.0,0.0,0.0,0.0,0.0,0.0,0.0,0.0,0.0,0.0,0.0,0.0,0.0,0.0,0.0,0.0,0.0,0.0,0.0,0.0,0.0,0.0,0.0,0.0,0.0,0.0,0.0,0.0,0.0,0.0,0.0,0.0,0.0,0.0,0.0,0.0,0.0,0.0,0.0,0.0,0.0,0.0,0.0,0.0,0.0,0.0,0.0,0.0,0.0,0.0,0.0,0.0,0.0,0.0,0.0,0.0,0.0,0.0,0.0,0.0,0.0,0.0,0.0,0.0,0.0,0.0,0.0,0.0,0.0,0.0,0.0,0.0,0.0,0.0,0.0,0.0,0.0,0.0,0.0,0.0,0.0,0.0,0.0,0.0,0.0,0.0,0.0,0.0,0.0,0.0,0.0,0.0,0.0,0.0,0.0,0.0,0.0,0.0,0.0,0.0,0.0,0.0,0.0,0.0,0.0,0.0,0.0,0.0,0.0,0.0,0.0,0.0,0.0,0.0,0.0,0.0,0.0,0.0,0.0,0.0,0.0,0.0,0.0,0.0,0.0,0.0,0.0,0.0,0.0,0.0,0.0,0.0,0.0,0.0,0.0,0.0,0.0,0.0,0.0,0.0,0.0,0.0,0.0,0.0,0.0,0.0,0.0,0.0,0.0,0.0,0.0,0.0,0.0,0.0,0.0,0.0,0.0,0.0,0.0,0.0,0.0,0.0,0.0,0.0,0.0,0.0,0.0,0.0,0.0,0.0,0.0,0.0,0.0,0.0,0.0,0.0,0.0,0.0,0.0,0.0,0.0,0.0,0.0,0.0,0.0,0.0,0.0,0.0,0.0,0.0,0.0,0.0,0.0,0.0,0.0,0.0,0.0,0.0,0.0,0.0,0.0,0.0,0.0,0.0,0.0,0.0,0.0,0.0,0.0,0.0,0.0,0.0,0.0,0.0,0.0,0.0,0.0,0.0,0.0,0.0,0.0,0.0,0.0,0.0,0.0,0.0,0.0,0.0,0.0,0.0,0.0,0.0,0.0,0.0,0.0,0.0,0.0,0.0,0.0,0.0,0.0,0.0,0.0,0.0,0.0,0.0,0.0,0.0,0.0,0.0,0.0,0.0,0.0,0.0,0.0,0.0,0.0,0.0,0.0,0.0,0.0,0.0,0.0,0.0,0.0,0.0,0.0,0.0,0.0,0.0,0.0,0.0,0.0,0.0,0.0,0.0,0.0,0.0,0.0,0.0,0.0,0.0,0.0,0.0,0.0,0.0,0.0,0.0,0.0,0.0,0.0,0.0,0.0,0.0,0.0,0.0,0.0,0.0,0.0,0.0,0.0,0.0,0.0,0.0,0.0,0.0,0.0,0.0,0.0,0.0,0.0,0.0,0.0,0.0,0.0,0.0,0.0,0.0,0.0,0.0,0.0,0.0,0.0,0.0,0.0,0.0,0.0,0.0,0.0,0.0,0.0,0.0,0.0,0.0,0.0,0.0,0.0,0.0,0.0,0.0,0.0,0.0,0.0,0.0,0.0,0.0,0.0,0.0,0.0,0.0,0.0,0.0,0.0,0.0,0.0,0.0,0.0,0.0,0.0,0.0,0.0,0.0,0.0,0.0,0.0,0.0,0.0,0.0,0.0,0.0,0.0,0.0,0.0,0.0,0.0,0.0,0.0,0.0,0.0,0.0,0.0,0.0,0.0,0.0,0.0,0.0,0.0,0.0,0.0,0.0,0.0,0.0,0.0,0.0,0.0,0.0,0.0,0.0,0.0,0.0,0.0,0.0,0.0,0.0,0.0,0.0,0.0,0.0,0.0,0.0,0.0,0.0,0.0,0.0,0.0,0.0,0.0,0.0,0.0,0.0,0.0,0.0,0.0,0.0,0.0,0.0,0.0,0.0,0.0,0.0,0.0,0.0,0.0,0.0,0.0,0.0,0.0,0.0,0.0,0.0,0.0,0.0,0.0,0.0,0.0,0.0,0.0,0.0,0.0,0.0,0.0,0.0,0.0,0.0,0.0,0.0,0.0,0.0,0.0,0.0,0.0,0.0,0.0,0.0,0.0,0.0,0.0,0.0,0.0,0.0,0.0,0.0,0.0,0.0,0.0,0.0,0.0,0.0,0.0,0.0,0.0,0.0,0.0,0.0,0.0,0.0,0.0,0.0,0.0,0.0,0.0,0.0,0.0,0.0,0.0,0.0,0.0,0.0,0.0,0.0,0.0,0.0,0.0,0.0,0.0,0.0,0.0,0.0,0.0,0.0,0.0,0.0,0.0,0.0,0.0,0.0,0.0,0.0,0.0,0.0,0.0,0.0,0.0,0.0,0.0,0.0,0.0,0.0,0.0,0.0,0.0,0.0,0.0,0.0,0.0,0.0,0.0,0.0,0.0,0.0,0.0,0.0,0.0,0.0,0.0,0.0,0.0,0.0,0.0,0.0,0.0,0.0,0.0,0.0,0.0,0.0,0.0,0.0,0.0,0.0,0.0,0.0,0.0,0.0,0.0,0.0,0.0,0.0,0.0,0.0,0.0,0.0,0.0,0.0,0.0,0.0,0.0,0.0,0.0,0.0,0.0,0.0,0.0,0.0,0.0,0.0,0.0,0.0,0.0,0.0,0.0,0.0,0.0,0.0,0.0,0.0,0.0,0.0,0.0,0.0,0.0,0.0,0.0,0.0,0.0,0.0,0.0,0.0,0.0,0.0,0.0,0.0,0.0,0.0,0.0,0.0,0.0,0.0,0.0,0.0,0.0,0.0,0.0,0.0,0.0,0.0,0.0,0.0,0.0,0.0,0.0,0.0,0.0,0.0,0.0,0.0,0.0,0.0,0.0,0.0,0.0,0.0,0.0,0.0,0.0,0.0,0.0,0.0,0.0,0.0,0.0,0.0,0.0,0.0,0.0,0.0,0.0,0.0,4.3742,0.0,0.0,0.0,0.0,0.0,0.0,0.0,0.0,0.0,0.0,0.0,0.0,0.0,0.0,0.0,0.0,0.0,0.0,0.0,0.0,0.0,0.0,0.0,0.0,3.6301,3.6301,3.6301,3.6301,3.6301,3.6301,0.0,0.0,0.0,0.0,0.0,3.6863,3.6881,3.701,3.7306,3.7371,3.7212,3.6858,3.6515,3.6528,3.6894,0.0,0.0,0.0,0.0,0.0,0.0,0.0,0.0,0.0,0.0,0.0,0.0,0.0,0.0,0.0,0.0,0.0,0.0,0.0,0.0,0.0,0.0,0.0,0.0,0.0,0.0,0.0,0.0,0.0,0.0,0.0,0.0,0.0,0.0,0.0,0.0,0.0,0.0,0.0,0.0,0.0,0.0,0.0,0.0,0.0,0.0,0.0,0.0,0.0,0.0,0.0,0.0,0.0,0.0,0.0,0.0,0.0,0.0,0.0,0.0,0.0,0.0,0.0,0.0,0.0,0.0,0.0,0.0,0.0,0.0,0.0,4.4389,0.0,0.0,0.0,0.0,0.0,0.0,0.0,0.0,0.0,0.0,0.0,0.0,0.0,0.0,0.0,0.0,0.0,0.0,0.0,0.0,0.0,3.6301,3.6301,3.6227,3.6184,3.6184,3.6184,3.6184,3.6184,3.6259,0.0,0.0,0.0,3.6795,3.7509,3.7593,3.7818,3.8202,3.7725,3.7227,3.6734,3.676,3.7035,3.7544,3.8118,0.0,0.0,0.0,0.0,0.0,0.0,0.0,0.0,0.0,0.0,0.0,0.0,0.0,0.0,0.0,0.0,0.0,0.0,0.0,0.0,0.0,0.0,0.0,0.0,0.0,0.0,0.0,0.0,0.0,0.0,0.0,0.0,0.0,0.0,0.0,0.0,0.0,0.0,0.0,0.0,0.0,0.0,0.0,0.0,0.0,0.0,0.0,0.0,0.0,0.0,0.0,0.0,0.0,0.0,0.0,0.0,0.0,0.0,0.0,0.0,0.0,0.0,0.0,4.4659,4.4659,4.4677,4.5331,4.5411,4.4962,4.4484,4.4205,4.4094,4.419,0.0,0.0,0.0,0.0,0.0,0.0,0.0,0.0,0.0,0.0,0.0,0.0,0.0,0.0,0.0,0.0,0.0,0.0,0.0,3.6301,3.6301,3.5941,3.5683,3.5683,3.5683,3.5683,3.5683,3.6071,3.6373,3.6547,3.6949,3.7302,3.7583,3.7938,3.7896,3.7449,3.7409,3.7636,3.8059,3.817,3.8001,3.7584,3.752,3.7469,3.7506,0.0,0.0,0.0,0.0,0.0,0.0,0.0,0.0,0.0,0.0,0.0,0.0,0.0,0.0,0.0,0.0,0.0,0.0,0.0,0.0,0.0,0.0,0.0,0.0,0.0,0.0,0.0,0.0,0.0,0.0,0.0,0.0,0.0,0.0,0.0,0.0,0.0,0.0,0.0,0.0,0.0,4.1143,4.2185,0.0,0.0,0.0,0.0,0.0,0.0,0.0,0.0,0.0,0.0,0.0,0.0,0.0,4.4858,4.4858,4.5147,4.5282,4.5282,4.5282,4.5282,4.5282,4.5381,4.5394,4.5364,4.5969,0.0,4.523,4.569,0.0,0.0,0.0,0.0,0.0,0.0,0.0,0.0,0.0,0.0,0.0,0.0,0.0,0.0,0.0,0.0,0.0,0.0,0.0,0.0,0.0,3.5661,3.5362,3.5053,3.496,3.4925,3.4925,3.5472,3.584,3.5916,3.6482,3.7036,3.754,3.7719,3.7696,3.7473,3.7428,3.7364,3.7297,3.7736,3.7804,3.756,3.8203,3.8524,3.8623,3.9244,0.0,0.0,0.0,0.0,0.0,0.0,0.0,0.0,0.0,0.0,0.0,0.0,0.0,0.0,0.0,0.0,0.0,0.0,0.0,0.0,0.0,0.0,0.0,0.0,0.0,0.0,0.0,0.0,0.0,0.0,0.0,0.0,0.0,0.0,0.0,0.0,0.0,0.0,0.0,4.1727,4.241,4.2925,4.3144,4.3471,0.0,0.0,0.0,0.0,0.0,0.0,0.0,0.0,0.0,4.4998,4.512,4.5406,4.5857,4.5999,4.6289,4.6703,4.6703,4.6703,4.6703,4.6703,4.6703,4.672,4.7065,4.7031,4.6717,4.6954,4.7043,4.7069,0.0,0.0,0.0,0.0,4.7358,4.7358,0.0,0.0,0.0,0.0,0.0,0.0,0.0,0.0,0.0,0.0,0.0,0.0,3.5397,3.5105,3.4783,3.4382,3.4411,3.4447,3.4447,3.5219,3.568,3.5734,3.6333,3.6938,3.7513,3.767,3.7832,3.8035,3.7799,3.7529,3.725,3.7587,3.7754,3.7801,3.8905,3.946,3.9594,4.0202,4.0361,4.0261,0.0,0.0,0.0,0.0,0.0,0.0,0.0,0.0,0.0,0.0,0.0,0.0,0.0,0.0,0.0,0.0,0.0,0.0,0.0,0.0,0.0,0.0,0.0,0.0,0.0,0.0,0.0,0.0,0.0,0.0,0.0,0.0,0.0,0.0,0.0,0.0,0.0,4.2827,4.3276,4.3465,4.3483,4.3672,0.0,0.0,0.0,0.0,0.0,0.0,4.4885,4.5583,4.5983,4.5983,4.5983,4.6289,4.6876,4.6876,4.7151,4.7703,4.7703,4.7703,4.7703,4.7703,4.7703,4.772,4.791,4.7979,4.7979,4.7772,4.7703,4.7703,4.7703,4.7703,4.7703,4.7703,4.7703,4.7703,0.0,0.0,0.0,0.0,0.0,0.0,0.0,0.0,0.0,0.0,0.0,3.5243,3.4712,3.4074,3.3671,3.3646,3.4232,3.4587,3.4587,3.5694,3.6434,3.6626,3.7079,3.7434,3.7598,3.809,3.8635,3.921,3.8701,3.8726,3.9235,3.8692,3.8445,3.8478,3.9124,3.9392,3.9453,4.0047,4.0014,3.9662,4.0947,0.0,0.0,0.0,0.0,0.0,0.0,0.0,0.0,0.0,0.0,0.0,0.0,0.0,0.0,0.0,0.0,0.0,0.0,0.0,0.0,0.0,0.0,0.0,0.0,0.0,0.0,0.0,0.0,0.0,0.0,0.0,0.0,0.0,0.0,0.0,0.0,0.0,0.0,4.4156,4.4242,0.0,0.0,0.0,0.0,4.5316,4.6044,4.6493,4.6493,4.7186,4.7582,4.7582,4.7582,4.76,4.7634,4.7634,4.7669,4.7703,4.7703,4.7703,4.7703,4.7703,4.7703,4.7738,4.8444,4.8741,4.8703,4.7996,4.7703,4.7703,4.7703,4.7703,4.7703,4.7703,4.7703,4.7703,0.0,0.0,0.0,3.5594,3.5305,3.5091,3.5091,3.5225,3.5173,3.4706,3.4781,3.4676,3.414,3.3726,3.3517,3.3646,3.376,3.4018,3.4501,3.5344,3.5845,3.5922,3.69,3.7684,3.8184,3.7934,3.8138,3.8795,3.8597,3.8622,3.8818,3.9053,3.9138,3.9185,3.982,4.0106,4.0128,4.0256,4.0194,4.0058,4.0538,4.0774,0.0,0.0,0.0,0.0,0.0,0.0,0.0,0.0,0.0,0.0,0.0,0.0,0.0,0.0,0.0,0.0,0.0,0.0,0.0,0.0,0.0,0.0,0.0,0.0,0.0,0.0,0.0,0.0,0.0,0.0,0.0,0.0,0.0,0.0,0.0,0.0,0.0,4.4992,4.5458,0.0,4.6152,4.66,4.6893,4.6893,4.7151,4.7307,4.7307,4.7565,4.7703,4.7703,4.7703,4.7927,4.841,4.841,4.8669,4.9169,4.9169,4.9169,4.9169,4.9169,4.9169,4.9186,4.9462,4.9565,4.9548,4.9289,4.9169,4.9169,4.9169,4.9169,4.9169,4.9169,4.9169,4.9169,0.0,3.5322,0.0,3.5091,3.4797,3.4557,3.4557,3.4702,3.4617,3.4068,3.4157,3.4037,3.3449,3.3393,3.3454,3.3581,3.3916,3.4321,3.4813,3.546,3.5937,3.6168,3.723,3.8061,3.8476,3.8292,3.84,3.883,3.9061,3.9168,3.9184,3.963,3.9845,3.9861,4.029,4.0489,4.0497,4.04,4.0245,4.007,4.0526,4.073,4.0856,0.0,0.0,0.0,0.0,0.0,0.0,0.0,0.0,0.0,0.0,0.0,0.0,0.0,0.0,0.0,0.0,0.0,0.0,0.0,0.0,0.0,0.0,0.0,0.0,0.0,0.0,0.0,0.0,0.0,0.0,0.0,0.0,0.0,0.0,0.0,4.591,4.6138,4.6652,4.6962,4.6962,4.741,4.7703,4.7703,4.7927,4.8065,4.8065,4.8324,4.8479,4.8479,4.872,4.9082,4.9565,4.9824,5.022,5.0737,5.0737,5.0737,5.0737,5.0737,5.0737,5.0737,5.0737,5.0737,5.0737,5.0737,5.0737,5.0686,5.0186,5.0149,5.0358,5.0358,5.0531,5.0737,3.5549,3.4778,3.4101,3.4101,3.4101,3.4101,3.4101,3.4488,3.4541,3.3872,3.3665,3.3329,3.2674,3.3083,3.3413,3.3429,3.4706,3.5506,3.5522,3.6168,3.683,3.7538,3.8169,3.8522,3.8553,3.9184,3.9507,3.9537,4.0166,4.0489,4.0489,4.0489,4.0489,4.0489,4.0489,4.0489,4.0489,4.0489,4.0137,3.9634,4.0943,4.0655,3.9675,0.0,0.0,0.0,0.0,0.0,0.0,0.0,0.0,0.0,0.0,0.0,0.0,0.0,0.0,0.0,0.0,0.0,0.0,0.0,0.0,0.0,0.0,0.0,0.0,0.0,0.0,0.0,0.0,0.0,0.0,0.0,0.0,0.0,4.672,4.6634,4.6893,4.7617,4.772,4.7738,4.7738,4.7755,4.7772,4.7772,4.8462,4.8861,4.8861,4.9634,5.008,5.008,5.0755,5.1134,5.1134,5.1841,5.2203,5.2203,5.2203,5.2203,5.2203,5.2203,5.2203,5.2203,5.2203,5.2203,5.2203,5.2203,5.2203,5.2065,5.0617,5.0513,5.1134,5.1134,5.1599,5.2203,3.4586,3.4296,3.4101,3.4101,3.4101,3.4101,3.4101,3.4209,3.4059,3.3382,3.3187,3.2958,3.2648,3.3083,3.3614,3.4151,3.4998,3.5706,3.6199,3.6846,3.7738,3.8891,3.8661,3.8953,3.9937,3.9661,3.9737,4.023,4.0397,4.0489,4.0489,4.0489,4.0489,4.0489,4.0489,4.0489,4.0489,4.0489,4.0382,4.0262,4.062,4.0823,4.0988,0.0,0.0,0.0,0.0,0.0,0.0,0.0,0.0,0.0,0.0,0.0,0.0,0.0,0.0,0.0,0.0,0.0,0.0,0.0,0.0,0.0,0.0,0.0,0.0,0.0,0.0,0.0,0.0,0.0,0.0,0.0,4.7703,4.7634,4.7427,4.741,4.7479,4.7686,4.8169,4.8499,4.8499,4.9031,4.9358,4.9358,5.0048,5.0462,5.0462,5.1186,5.1599,5.1599,5.1789,5.191,5.191,5.2099,5.2203,5.2203,5.2203,5.2203,5.2203,5.2203,5.2203,5.2203,5.2203,5.2203,5.2203,5.2203,5.2203,5.2168,5.1755,5.172,5.191,5.191,5.203,5.2203,3.4147,3.3924,3.3758,3.3758,3.3758,3.3758,3.3758,3.3758,3.3578,3.3085,3.2951,3.2909,3.2923,3.3487,3.4151,3.486,3.5537,3.6199,3.6876,3.7815,3.8691,3.9476,3.9399,3.9707,4.0474,4.0122,4.0122,4.0489,4.0489,4.0489,4.0489,4.0489,4.0489,4.0489,4.0489,4.0489,4.0489,4.0489,4.0489,4.0489,4.0489,4.0732,4.1109,4.1393,4.1804,4.2285,4.2442,4.2645,4.2891,4.3573,0.0,0.0,0.0,0.0,0.0,0.0,0.0,0.0,0.0,0.0,0.0,0.0,0.0,0.0,0.0,0.0,0.0,0.0,0.0,0.0,0.0,0.0,0.0,0.0,4.8449,4.8449,4.8449,4.8274,4.8244,4.8515,4.8988,4.9278,4.9203,4.9967,5.0386,5.0253,5.1,5.1475,5.1475,5.1888,5.2142,5.2203,5.253,5.2703,5.2703,5.3013,5.3151,5.3151,5.3151,5.3151,5.3151,5.3151,5.3151,5.3151,5.3151,5.3151,5.3151,5.3151,5.3151,5.3099,0.0,0.0,0.0,0.0,5.3151,5.3151,3.4101,3.3671,3.3332,3.345,3.3477,3.345,3.3398,3.3437,3.3332,3.2951,3.2975,3.3101,3.3365,3.4121,3.4859,3.5445,3.6184,3.6923,3.7677,3.8768,3.9445,3.9614,4.0166,4.0489,4.0489,4.0489,4.0489,4.0489,4.0489,4.0489,4.0489,4.0489,4.0536,4.0612,4.0612,4.0676,4.0753,4.0753,4.0753,4.0753,4.0753,4.0628,4.0558,4.1159,4.1377,4.1476,4.2062,4.2269,4.2411,4.3258,0.0,0.0,0.0,0.0,0.0,0.0,0.0,0.0,0.0,0.0,0.0,0.0,0.0,0.0,0.0,0.0,0.0,0.0,0.0,0.0,0.0,0.0,0.0,0.0,4.9622,4.9641,4.9712,4.9384,4.9295,4.9762,4.9983,5.0061,4.9951,5.0705,5.1071,5.0752,5.1574,5.2096,5.2096,0.0,0.0,0.0,0.0,5.3529,5.3529,5.4184,5.4496,5.4496,5.4496,5.4496,5.4496,5.4496,5.4496,5.4496,5.4496,5.4496,5.4496,5.4496,5.4496,5.4358,5.2996,5.2892,5.3598,5.4254,5.4496,5.4496,3.4101,3.3671,3.3552,3.4374,3.4521,3.4374,3.3996,3.4267,3.4115,3.3029,3.3367,3.3629,3.3426,3.4536,3.5352,3.5491,3.6599,3.7831,3.903,3.8845,3.9184,4.0259,4.0445,4.0489,4.0489,4.0489,4.0489,4.0489,4.0489,4.0489,4.0489,4.0489,4.0814,4.1401,4.1401,4.1694,4.2184,4.2184,4.2184,4.2184,4.2184,4.1507,4.0507,4.0646,4.0698,4.0715,4.0836,4.0887,4.099,4.1722,4.2045,4.2397,4.364,0.0,0.0,0.0,0.0,0.0,0.0,0.0,0.0,0.0,0.0,0.0,0.0,0.0,0.0,0.0,0.0,0.0,0.0,0.0,0.0,5.0273,5.0395,5.0569,5.1042,5.1131,5.0967,5.0475,5.0592,5.0877,5.1276,5.1619,5.1737,5.1503,5.2202,5.2661,5.2661,5.3355,5.3793,5.3809,5.4122,5.4287,5.4287,5.4427,5.4496,5.4496,5.4496,0.0,5.4496,5.4496,5.4496,5.4496,5.4496,5.4496,5.4496,5.4496,5.4496,5.4477,5.4168,5.4151,5.4305,5.446,5.4496,5.4496,3.4354,3.4047,3.386,3.4366,3.4452,3.4366,3.4138,3.4308,3.4084,3.3045,3.3491,3.3911,3.3949,3.4875,3.5645,3.5968,3.723,3.8431,3.943,3.9507,3.9799,4.0459,4.0489,4.0489,4.0489,4.0489,4.0489,4.0489,4.0489,4.0691,4.1045,4.1045,4.143,4.2109,4.2109,4.2294,4.2602,4.2602,4.2602,4.2602,4.2602,4.2168,4.1553,4.1553,4.1553,4.1553,4.1553,4.1553,4.1644,4.2311,4.2633,4.2949,4.4316,4.5044,4.554,0.0,0.0,0.0,0.0,0.0,0.0,0.0,0.0,0.0,0.0,0.0,0.0,0.0,0.0,5.0021,4.9962,0.0,5.0596,5.0861,5.0914,5.1018,5.1311,5.141,5.1353,5.1073,5.1194,5.1394,5.1582,5.2099,5.2288,5.2017,5.2779,5.3254,5.3254,5.3693,5.4013,5.4094,5.4255,5.4351,5.4351,5.4464,5.4496,5.4496,5.4496,5.4496,5.4496,5.4496,5.4496,5.4496,5.4496,5.4496,5.4496,5.4496,5.4496,5.4496,5.4496,5.4496,5.4496,5.4496,5.4496,5.4496,3.4521,3.4427,3.4271,3.4366,3.4308,3.4234,3.4234,3.4163,3.3822,3.3045,3.3614,3.4219,3.4516,3.5229,3.6014,3.683,3.7769,3.8691,3.963,4.0091,4.0351,4.0489,4.0489,4.0489,4.0489,4.0489,4.0489,4.0489,4.0645,4.1014,4.1601,4.174,4.2155,4.2802,4.2802,4.2863,4.2987,4.2987,4.2987,4.2987,4.2987,4.2987,4.2987,4.2987,4.2833,4.2602,4.2602,4.2602,4.2674,4.322,4.3413,4.3638,4.4885,4.539,4.5695,4.6669,4.7053,0.0,0.0,0.0,0.0,0.0,0.0,0.0,0.0,0.0,4.9669,4.979,5.0303,5.0683,5.0591,5.1035,5.1429,5.1419,5.1404,5.1472,5.1624,5.1641,5.1706,5.1868,5.1875,5.1872,5.1899,5.2539,5.2847,5.2553,5.3245,5.3651,5.3651,5.3684,5.3783,5.3931,5.4215,5.4365,5.4365,5.4682,5.4847,5.4879,5.4879,5.4912,5.496,5.496,5.496,5.496,5.496,5.496,5.496,5.496,5.496,5.496,5.496,5.4841,5.4703,5.4547,5.4496,5.4496,3.4234,3.4476,3.488,3.5357,3.5045,3.4726,3.4726,3.4366,3.3848,3.3163,3.4088,3.4759,3.4693,3.5705,3.6892,3.8169,3.7877,3.8399,4.0276,3.9907,3.9876,4.0459,4.0489,4.0489,4.0489,4.0489,4.0489,4.0489,4.1153,4.1524,4.1617,4.2217,4.2848,4.3501,4.3501,4.3821,4.4375,4.4375,4.4375,4.4375,4.4375,4.4375,4.4375,4.4375,4.3633,4.2602,4.2602,4.2602,4.2602,4.2692,4.271,4.2839,4.3596,4.4293,4.5075,4.6442,0.0,4.796,4.8623,4.8794,4.8841,4.9063,4.9087,4.9232,0.0,0.0,5.0215,5.0876,5.108,5.1131,5.1115,5.1183,5.1436,5.208,5.2181,5.2435,5.3129,5.3247,5.3247,5.3264,5.2819,5.27,5.3229,5.3464,5.3532,5.3382,5.3467,5.3534,5.3534,5.3651,5.37,5.3734,5.4564,5.5005,5.5005,5.5671,5.6097,5.6281,5.6281,5.6364,5.6546,5.6546,5.6546,5.6546,5.6546,5.6546,5.6546,5.6546,5.6546,5.6546,5.6546,5.6115,5.5392,5.4737,5.4496,5.4496,3.4951,3.5138,3.5345,3.556,3.5413,3.5156,3.484,3.4565,3.4077,3.3216,3.4081,3.4751,3.4708,3.5782,3.703,3.8368,3.8246,3.8768,4.0382,4.0245,4.0197,4.0489,4.0489,4.0489,4.0489,4.0489,4.0707,4.1137,4.1447,4.1986,4.2774,4.3051,4.3544,4.4175,4.4175,4.4329,4.4591,4.4591,4.4591,4.4591,4.4591,4.4591,4.4591,4.4591,4.4252,4.3756,4.3756,4.3756,0.0,4.3756,4.3756,4.3895,4.459,4.5018,4.5568,4.7021,4.7671,0.0,4.829,4.8956,0.0,0.0,4.8645,4.9091,4.9859,5.0026,5.0258,5.1036,5.1539,5.1827,5.1827,5.2216,5.2655,0.0,5.301,5.3129,5.345,5.3501,5.3501,5.3501,5.328,5.3212,5.3484,5.3551,5.3551,5.3501,5.3501,5.3687,5.411,5.4178,5.4415,5.4855,5.5349,5.5622,5.5622,5.6013,5.6235,5.6337,5.6337,5.6371,5.6455,5.6455,5.6505,5.6639,5.6738,5.6805,5.6805,5.6805,5.6805,5.6805,5.6805,5.6598,5.6202,5.5427,5.4858,5.4496,3.5526,3.5594,3.5594,3.5594,3.5594,3.5425,3.4875,3.4476,3.3986,3.324,3.4095,3.4877,3.5161,3.5983,3.703,3.8368,3.8491,3.9076,4.0397,4.0489,4.0489,4.0489,4.0489,4.0489,4.0489,4.0489,4.0861,4.1601,4.1786,4.2481,4.3608,4.3793,4.4129,4.4591,4.4591,4.4591,4.4591,4.4591,4.4591,4.4591,4.4591,4.4591,4.4591,4.4591,4.4591,4.4591,4.4591,4.4591,4.4591,4.4591,4.4591,4.4704,4.5234,4.5403,4.5674,4.7143,4.7849,4.8198,4.8415,0.0,0.0,4.8338,4.8597,4.9339,5.0114,5.0472,5.086,5.1678,5.2266,5.2638,5.2638,5.3112,5.3501,5.3501,5.3501,5.3501,5.3501,5.3501,5.3501,5.3501,5.3501,5.3501,5.3501,5.3501,5.3585,5.3788,5.3805,5.4126,5.4854,5.4905,5.5158,5.5682,5.6042,5.6214,5.6214,5.6523,5.6695,5.6747,5.6747,5.6781,5.6833,5.6833,5.6919,5.7072,5.7208,5.7309,5.7359,5.7359,5.7359,5.7409,5.7409,5.7288,5.7029,5.6444,5.5771,5.5132,3.5611,3.5594,3.5594,3.5594,3.5594,3.5425,3.4875,3.3968,3.3319,3.3309,3.4232,3.5291,3.6338,3.6492,3.703,3.8368,3.8491,3.9076,4.0397,4.0489,4.0489,4.0489,4.0489,4.0489,4.0489,4.0489,4.0861,4.1601,4.2248,4.291,4.3624,4.4267,4.4575,4.4591,4.4591,4.4591,4.4591,4.4591,4.4591,4.4591,4.4591,4.4591,4.4591,4.4591,4.4591,4.4591,4.4591,4.4591,4.4591,4.4591,4.4591,4.4591,4.4629,4.4629,0.0,4.6318,4.7702,0.0,0.0,0.0,4.8824,4.8774,4.9379,5.0168,5.0914,5.1664,5.2453,5.3247,5.345,5.3467,5.3467,5.3484,5.3501,5.3501,5.3501,5.3501,5.3501,5.3501,5.3501,5.3501,5.3501,5.3501,0.0,5.3501,5.3805,5.4516,5.4583,5.4888,5.5631,5.5665,5.5682,5.5699,5.641,5.6782,5.6782,5.7494,5.7958,5.8138,5.8138,5.8227,5.8439,5.8439,5.8439,5.8439,5.8439,5.8545,5.8737,5.8737,5.8823,5.8926,5.8926,5.8495,5.7874,5.784,5.7357,5.6736,3.606,3.606,3.606,3.606,3.5498,3.5005,3.4833,3.4139,3.3523,3.3216,3.4109,0.0,0.0,0.0,0.0,0.0,3.8491,3.9076,4.0397,4.0489,4.0489,4.0489,4.0489,4.0489,4.0489,4.0489,4.0861,4.1601,4.2279,4.294,4.3624,4.4283,4.4591,4.4591,4.4591,4.4591,4.4591,4.4591,4.4591,4.4591,4.4591,4.4591,4.4591,4.4591,4.4591,4.4591,0.0,4.4591,4.4591,4.4591,4.4591,4.4683,4.513,0.0,0.0,4.6947,0.0,4.9369,0.0,0.0,4.9279,4.8259,4.8537,4.9286,5.007,5.0494,5.1094,5.2435,5.2695,5.2868,5.3399,5.3501,5.3501,5.3501,5.3501,5.3501,5.3501,5.3501,5.3501,5.3501,5.3501,0.0,0.0,0.0,0.0,5.4583,5.5057,5.5648,5.6375,5.6444,5.6664,5.7137,5.7391,5.7526,5.7526,5.7781,5.7936,5.7991,5.7991,5.8044,5.8116,5.8242,5.8295,5.8295,5.8437,5.8543,5.8596,5.8596,5.8701,5.8875,5.8875,5.8772,5.8616,5.8616,5.8461,5.8133,0.0,3.6301,3.6301,3.6301,3.5464,0.0,0.0,0.0,0.0,0.0,0.0,0.0,0.0,0.0,0.0,0.0,0.0,3.8968,4.0059,4.0384,4.0489,4.0489,4.0489,4.0489,4.0489,4.0768,4.123,4.1971,4.2633,4.3297,4.3978,4.4391,4.4591,4.4591,4.4591,4.4591,4.4591,4.4591,4.4591,4.4591,4.4591,4.4591,4.4591,4.4591,4.4591,0.0,4.4591,4.4591,4.4591,4.4591,4.476,4.5037,4.5468,0.0,0.0,0.0,4.8719,4.9314,4.8655,4.8954,4.9195,4.8208,4.8527,4.9188,4.9718,5.0092,5.0631,5.1659,5.2094,5.2466,5.2989,5.3297,5.3501,5.3501,5.3501,5.3501,5.3501,5.3501,5.3501,5.3501,5.3737,5.3956,0.0,0.0,0.0,5.5361,5.5835,5.6409,5.7154,5.6899,5.6954,5.7424,5.7145,5.7126,5.7424,5.7424,5.7589,5.79,5.79,5.79,5.79,5.8044,5.8098,5.8098,5.8224,5.833,5.8384,5.8384,5.8508,5.8701,5.8701,5.8788,5.8927,5.8927,5.8961,5.8857,0.0,0.0,3.6301,0.0,0.0,0.0,0.0,0.0,0.0,0.0,0.0,0.0,0.0,0.0,0.0,0.0,0.0,0.0,3.9461,4.0137,4.0489,4.0489,4.0489,4.0489,4.0489,4.1184,4.1878,4.2556,4.322,4.3882,4.4545,4.4575,4.4591,4.4591,4.4591,4.4591,4.4591,4.4591,4.4591,4.4591,4.4591,4.4591,4.4591,4.4591,4.4591,4.4591,4.4591,4.4591,4.4606,4.4637,0.0,0.0,0.0,0.0,0.0,0.0,0.0,4.8769,4.961,4.9224,4.8599,4.8599,4.9224,4.9829,4.9829,5.0419,5.0976,5.1032,5.1696,5.2254,0.0,0.0,5.345,5.3484,5.3433,5.3416,5.3484,5.3467,5.345,0.0,0.0,0.0,0.0,0.0,0.0,5.6653,0.0,5.7028,5.7721,5.6994,5.6556,5.6594,5.5796,5.5796,5.6652,5.6672,5.707,5.79,5.795,5.7967,5.7967,5.8001,5.8018,5.8018,5.7967,5.8058,5.8239,5.8205,5.8295,5.8508,5.8508,5.8631,5.8805,5.8805,5.8892,5.8995,0.0,0.0,0.0,0.0,0.0,0.0,0.0,0.0,0.0,0.0,0.0,0.0,0.0,0.0,0.0,0.0,0.0,0.0,3.9461,4.0137,4.0489,4.0489,4.0489,4.0489,4.0489,4.0691,4.1122,4.1848,4.2525,4.3205,4.387,4.436,4.4591,4.4591,4.4591,4.4591,4.4591,4.4591,4.4591,4.4591,4.4591,4.4591,4.4591,4.4591,4.4591,4.4591,4.4591,4.4591,0.0,0.0,0.0,0.0,0.0,0.0,4.8399,0.0,0.0,4.8646,4.8872,4.8769,4.8599,4.8599,4.8769,4.8934,4.8934,4.9102,4.943,5.0069,5.0859,5.1588,0.0,0.0,0.0,5.3399,5.2486,0.0,5.3331,5.2972,0.0,0.0,0.0,5.3726,5.3945,5.4306,0.0,0.0,5.5676,5.5758,5.5958,5.574,5.5935,5.6575,5.6384,5.6691,5.7571,5.7571,5.7681,5.7917,5.8457,5.8727,5.8744,5.9285,5.9539,5.9505,5.8964,5.8746,5.8749,5.8191,5.8188,5.8508,5.8508,5.8684,5.8961,5.8961,5.8961,5.8995,0.0,0.0,0.0,0.0,0.0,0.0,0.0,0.0,0.0,0.0,0.0,0.0,0.0,0.0,0.0,0.0,0.0,0.0,0.0,3.9968,4.0489,4.0489,4.0489,4.0489,4.0489,4.0814,4.1322,4.2048,4.2709,4.339,4.4036,4.4421,4.4591,4.4591,4.4591,4.4591,4.4591,4.4591,4.4591,0.0,0.0,4.4591,4.4591,4.4591,4.4591,4.4591,4.4591,0.0,0.0,0.0,0.0,4.765,4.7958,4.8291,4.8599,4.8599,0.0,4.8599,4.8599,4.8599,4.8599,4.8599,4.8599,4.8599,4.8599,4.8599,4.8728,4.9224,5.0267,0.0,0.0,0.0,0.0,0.0,0.0,0.0,5.2326,5.2059,5.2032,0.0,5.306,0.0,5.3619,5.3905,5.4133,0.0,5.4881,5.5296,5.5296,5.4927,5.4948,5.5438,5.5373,5.5886,5.7053,5.785,5.8251,5.8267,5.9081,5.9488,5.9505,5.9911,6.0097,6.008,5.9674,5.9488,5.9455,5.9032,5.8992,5.9193,5.9193,5.9241,5.9269,5.9269,5.915,5.8995,0.0,0.0,0.0,0.0,0.0,0.0,0.0,0.0,0.0,0.0,3.4794,3.5161,0.0,0.0,0.0,0.0,0.0,0.0,0.0,0.0,4.0397,4.0489,4.0489,4.0489,4.0489,4.1122,4.1801,4.2479,4.3051,4.3713,4.4468,4.4468,4.4514,4.4591,4.4591,4.4591,4.4591,4.4591,4.4591,4.4591,4.4591,4.4591,4.4591,0.0,4.4591,4.4606,4.4699,0.0,0.0,0.0,4.7665,4.7814,4.8435,4.8599,4.8599,4.8599,4.8599,4.8599,4.8599,4.8599,4.8599,4.8599,4.8599,4.8599,4.8599,4.8599,4.8599,4.8599,0.0,5.1107,5.1107,5.1661,5.2182,5.2289,0.0,5.0843,5.107,5.1013,5.121,5.1978,5.2643,5.2994,5.2876,5.3447,5.3505,5.2758,5.4173,5.506,5.4964,5.4327,5.4037,5.4261,5.4204,5.4819,5.6157,5.7716,5.859,5.871,5.9513,5.9948,6.0078,6.0162,6.0213,6.0232,6.0243,6.0266,6.025,6.0148,6.0116,6.0135,6.0135,5.9987,5.9753,5.9771,5.9558,5.9271,0.0,0.0,0.0,0.0,0.0,0.0,0.0,0.0,0.0,0.0,3.4852,3.5205,0.0,0.0,0.0,0.0,0.0,0.0,0.0,0.0,0.0,4.0474,4.0489,4.0489,4.0489,4.063,4.1045,4.1771,4.1878,4.2574,4.3759,4.3759,4.4067,4.4591,4.4591,4.4591,4.4591,4.4591,4.4591,4.4591,4.4591,4.4591,4.4591,4.4591,0.0,0.0,0.0,0.0,0.0,0.0,4.7973,4.8445,4.8553,4.8599,4.8599,4.8599,4.8599,4.8599,4.8599,4.8599,4.8599,4.8599,4.8599,4.8599,4.8599,4.8599,0.0,0.0,0.0,5.1107,5.1107,5.1201,0.0,5.2183,0.0,0.0,0.0,0.0,5.0565,0.0,0.0,0.0,0.0,0.0,0.0,0.0,5.3499,5.3741,5.3188,5.3522,5.4335,5.5601,5.6335,5.6798,5.7077,5.7396,5.794,5.8707,5.8695,5.9131,5.9964,6.0582,6.0832,6.0856,6.1021,0.0,6.1044,6.0368,6.0209,6.0359,6.0359,6.0404,6.054,6.0686,6.0709,6.0678,0.0,0.0,0.0,0.0,0.0,0.0,0.0,3.4586,3.4475,3.5484,3.5485,3.5711,3.6599,3.6631,3.6585,0.0,0.0,0.0,0.0,0.0,0.0,0.0,0.0,0.0,4.0489,4.0489,0.0,0.0,0.0,4.2109,4.3097,0.0,0.0,4.4083,4.4437,4.4591,4.4591,4.4591,4.4591,4.4591,4.4591,4.4591,4.4591,0.0,0.0,0.0,0.0,0.0,0.0,0.0,4.8322,4.8599,4.8599,4.8599,4.8599,4.8599,4.8599,4.8599,4.8599,4.8599,4.8599,4.8599,4.8599,4.8599,4.8599,0.0,0.0,0.0,0.0,5.1107,5.1107,0.0,0.0,0.0,0.0,0.0,0.0,0.0,0.0,0.0,0.0,0.0,0.0,0.0,0.0,0.0,5.3322,5.3553,5.3229,5.386,5.4715,5.582,5.6238,5.6638,5.7032,5.7513,5.8001,5.8443,5.8847,5.9285,5.9762,6.0111,6.0274,6.0279,6.0373,6.0695,6.11,6.0715,6.0917,6.1433,6.1433,6.1293,6.1141,6.1216,6.1143,6.1018,0.0,0.0,0.0,0.0,0.0,0.0,3.5616,3.4927,3.4839,3.5939,3.616,3.6369,3.6751,3.6861,3.6785,0.0,0.0,0.0,0.0,0.0,0.0,0.0,0.0,0.0,0.0,0.0,0.0,0.0,0.0,0.0,0.0,0.0,0.0,0.0,0.0,0.0,4.4591,4.4591,4.4591,0.0,0.0,4.4591,0.0,0.0,0.0,0.0,0.0,0.0,0.0,0.0,4.8599,4.8599,4.8599,4.8599,4.8599,4.8599,4.8599,4.8599,4.8599,4.8599,4.8599,4.8599,4.8599,4.8599,4.8599,4.8599,0.0,0.0,4.9793,5.0843,5.0843,0.0,0.0,0.0,0.0,0.0,0.0,0.0,0.0,0.0,0.0,0.0,0.0,0.0,0.0,0.0,5.366,5.4122,5.4122,5.4629,5.5238,5.5899,5.5954,5.6216,5.6785,5.7527,5.8003,5.8211,5.8735,5.9116,5.9294,5.9294,5.9294,5.9317,5.9515,6.0017,6.0715,6.0715,6.1251,6.2107,6.2107,6.1933,6.1696,6.1734,6.1623,6.1426,0.0,0.0,0.0,0.0,0.0,0.0,3.5677,3.5515,3.5621,3.6045,3.6564,3.6975,3.7141,3.7371,3.7252,0.0,0.0,0.0,0.0,0.0,0.0,0.0,0.0,0.0,0.0,0.0,0.0,0.0,0.0,0.0,0.0,0.0,0.0,0.0,0.0,0.0,0.0,4.4591,0.0,0.0,0.0,0.0,0.0,0.0,0.0,0.0,0.0,0.0,0.0,0.0,0.0,4.8599,4.8599,4.8599,4.8599,4.8599,0.0,0.0,4.8599,4.8599,4.8599,4.8599,4.8599,4.8599,4.8599,0.0,0.0,4.8599,4.9349,5.0006,5.0006,0.0,0.0,0.0,0.0,5.0575,0.0,0.0,0.0,0.0,0.0,0.0,0.0,0.0,0.0,0.0,5.4791,5.5515,5.5515,5.5561,5.5954,5.6662,5.6693,5.6724,5.681,5.6882,5.7353,5.8188,5.7409,5.7503,5.8333,5.8333,5.8333,5.8379,5.9228,5.9647,0.0,5.9734,6.0274,6.1127,6.1127,6.1622,6.2338,6.253,6.2691,6.2835,0.0,0.0,0.0,0.0,0.0,0.0,3.6049,3.5771,3.5831,3.65,3.6838,3.7028,3.7068,3.7579,3.7564,3.6693,3.6554,0.0,0.0,0.0,0.0,0.0,0.0,0.0,0.0,0.0,4.0489,4.0489,0.0,0.0,0.0,0.0,0.0,0.0,0.0,0.0,0.0,0.0,0.0,0.0,0.0,0.0,0.0,0.0,0.0,0.0,0.0,0.0,0.0,0.0,0.0,0.0,4.8599,4.8599,0.0,0.0,4.8599,4.8599,4.8599,4.8599,4.8599,4.8599,4.8599,4.8599,4.8599,0.0,4.8599,4.8599,4.9284,4.9888,4.9837,5.0938,5.1809,5.1767,5.2116,0.0,0.0,0.0,0.0,0.0,0.0,0.0,0.0,0.0,0.0,0.0,5.5176,5.5908,5.6339,5.6354,5.6493,5.6794,5.681,5.681,5.681,5.681,5.6987,5.7353,5.6987,5.6987,5.7353,5.7353,5.7353,5.7377,5.7746,5.8241,0.0,5.8751,5.9317,6.021,6.0778,6.1231,6.1652,6.2285,6.2652,6.2847,0.0,0.0,0.0,0.0,0.0,3.6301,3.6301,3.6017,3.6061,3.6791,3.7091,3.72,3.7143,3.7713,3.7754,3.6922,3.6662,0.0,0.0,0.0,0.0,0.0,0.0,0.0,0.0,0.0,4.0489,4.0489,4.0489,4.0489,0.0,0.0,0.0,0.0,0.0,0.0,0.0,0.0,0.0,0.0,0.0,0.0,0.0,0.0,0.0,0.0,0.0,0.0,0.0,0.0,0.0,0.0,0.0,0.0,0.0,0.0,4.8599,4.8599,4.8599,4.8599,4.8599,4.8599,4.8599,4.8599,0.0,4.8599,4.8599,4.8599,4.9081,4.951,4.9459,5.0808,5.1907,5.1833,5.2868,5.329,5.2141,0.0,0.0,0.0,0.0,0.0,0.0,0.0,0.0,5.4906,5.5638,5.6247,5.6755,5.681,5.681,5.681,5.681,5.681,5.681,5.681,5.681,5.681,5.681,5.681,5.681,5.681,5.681,5.681,5.681,5.7178,0.0,5.7785,5.8356,5.925,5.9908,6.0508,6.1086,6.1733,6.2285,6.2729,0.0,0.0,0.0,0.0,0.0,3.6301,3.6301,3.6301,3.6438,3.6858,3.7417,3.7723,3.7512,3.7858,3.7871,3.7254,3.6892,0.0,0.0,0.0,0.0,0.0,0.0,0.0,4.0489,4.0489,4.0489,4.0489,4.0489,4.0489,4.0489,4.0505,4.0907,0.0,0.0,0.0,0.0,0.0,0.0,0.0,0.0,0.0,0.0,0.0,0.0,0.0,0.0,0.0,0.0,0.0,0.0,0.0,0.0,4.8599,4.8599,4.8599,4.8599,4.8599,4.8599,4.8599,4.8599,4.8599,4.8599,4.8599,0.0,4.8599,4.8599,4.8599,4.862,4.8604,4.8604,4.9974,5.1069,5.0941,5.2873,5.3809,5.2143,0.0,0.0,0.0,0.0,0.0,0.0,0.0,0.0,5.5638,5.637,0.0,5.681,5.681,5.681,5.681,5.681,5.681,5.681,5.681,5.681,5.681,5.681,5.681,5.681,5.681,5.681,5.681,5.681,5.681,0.0,5.681,5.7377,5.8211,5.8234,5.9361,6.0986,6.1007,6.1716,6.269,0.0,0.0,0.0,0.0,0.0,0.0,3.6301,3.6301,3.6449,3.6858,3.707,3.7216,3.729,3.787,3.7927,3.7135,3.6831,0.0,0.0,0.0,0.0,0.0,0.0,0.0,3.9799,4.0276,4.0489,4.0489,4.0489,4.0489,4.0489,4.0489,4.0612,4.0876,4.1601,4.2294,0.0,4.3636,0.0,0.0,0.0,0.0,0.0,0.0,0.0,0.0,0.0,0.0,0.0,0.0,0.0,0.0,0.0,0.0,0.0,4.8599,4.8599,4.8599,4.8599,4.8599,4.8599,4.8599,4.8599,4.8599,4.8599,4.8599,4.8599,4.8599,4.8599,4.8599,4.8599,4.9974,5.1227,5.1595,5.3713,5.4827,0.0,0.0,0.0,0.0,0.0,0.0,0.0,0.0,5.4968,5.5638,5.6385,5.681,5.681,5.681,5.681,5.681,5.681,5.681,5.681,5.681,5.681,5.681,5.681,5.681,5.681,5.681,5.681,5.681,5.681,5.681,5.681,5.681,5.6978,5.7377,5.866,5.9515,6.021,6.1493,6.2186,6.2498,0.0,0.0,0.0,0.0,0.0,0.0,3.6301,3.6559,3.6868,3.7205,3.7273,3.7485,3.7912,3.8153,3.8082,3.7535,3.7328,0.0,0.0,0.0,0.0,0.0,0.0,0.0,3.9491,4.0151,4.0489,4.0489,4.0489,4.0489,4.0489,4.0489,4.0489,4.052,4.1278,4.1971,0.0,4.359,0.0,0.0,0.0,0.0,4.4591,0.0,0.0,0.0,0.0,0.0,0.0,0.0,0.0,0.0,0.0,0.0,0.0,0.0,4.8599,4.8599,4.8599,4.8599,4.8599,4.8599,4.8599,4.8599,4.8599,4.8599,4.8599,4.8599,4.8599,4.8599,4.8599,4.9698,5.0808,5.1418,5.3344,5.4468,5.3626,0.0,0.0,0.0,0.0,0.0,0.0,5.446,5.5091,5.6046,5.6539,5.681,5.681,5.681,5.681,5.681,5.681,5.681,5.681,5.681,5.681,5.681,5.681,5.681,5.681,5.681,5.681,5.681,5.681,5.681,0.0,5.681,5.681,5.693,5.8103,5.8757,5.925,6.0778,6.1554,6.1951,0.0,0.0,0.0,0.0,0.0,0.0,0.0,3.6952,3.7511,3.7713,3.7886,3.8295,3.9039,3.8671,3.8365,3.8292,3.8169,0.0,0.0,0.0,0.0,0.0,0.0,3.8784,3.9414,4.012,4.0489,4.0489,4.0489,4.0489,4.0489,4.0489,4.0489,4.052,4.1232,4.1925,4.2694,4.4036,0.0,0.0,4.4591,4.4591,0.0,0.0,0.0,0.0,0.0,0.0,0.0,0.0,0.0,0.0,0.0,0.0,0.0,0.0,0.0,0.0,0.0,4.8599,4.8599,4.8599,4.8599,4.8599,4.8599,4.8599,0.0,4.8599,4.8599,4.8599,4.8599,4.9273,4.9994,5.0601,5.2118,5.3089,5.2743,0.0,0.0,0.0,0.0,0.0,0.0,5.4737,5.5276,5.6678,5.681,5.681,5.681,5.681,5.681,5.681,5.681,5.681,5.681,5.681,5.681,5.681,5.681,5.681,5.681,5.681,5.681,0.0,5.681,5.681,5.681,5.681,5.681,5.681,5.6867,5.7424,5.831,5.9317,6.0253,6.1127,0.0,0.0,0.0,0.0,0.0,0.0,0.0,0.0,0.0,0.0,3.7632,3.812,3.8478,3.8794,3.8794,0.0,0.0,0.0,0.0,0.0,0.0,0.0,3.7877,3.8568,3.8722,3.989,4.0489,4.0489,4.0489,4.0489,4.0489,4.0489,4.0489,4.0505,4.0691,4.1445,4.2694,4.4036,0.0,0.0,4.4591,4.4591,0.0,0.0,0.0,0.0,4.613,4.6603,0.0,0.0,0.0,0.0,0.0,0.0,0.0,0.0,4.8599,4.8599,4.8599,0.0,4.8599,4.8599,4.8599,4.8599,0.0,4.8599,0.0,0.0,0.0,4.8599,4.8599,4.9289,5.0061,5.0617,5.2118,5.3089,5.2743,0.0,0.0,0.0,0.0,0.0,0.0,5.4999,5.5276,5.6678,5.681,5.681,5.681,5.681,5.681,5.681,5.681,5.681,5.681,5.681,5.681,5.681,5.681,5.681,5.681,5.681,5.681,5.681,5.681,5.681,5.681,5.681,5.681,5.6882,5.7598,5.8003,5.8402,6.006,6.082,6.1127,0.0,0.0,0.0,0.0,0.0,0.0,0.0,0.0,0.0,0.0,3.8399,3.8778,3.941,3.9322,3.9068,0.0,0.0,0.0,0.0,0.0,0.0,3.6523,3.7784,3.8491,3.8491,3.9814,4.0489,4.0489,4.0489,4.0489,4.0489,4.0489,4.0489,4.052,4.1184,4.1891,4.2694,4.4036,0.0,0.0,4.4591,0.0,0.0,0.0,0.0,0.0,4.6219,4.6803,0.0,4.8245,4.8599,4.8599,0.0,0.0,0.0,0.0,4.8599,4.8599,4.8599,4.8599,4.8599,4.8599,4.8599,4.8599,4.8599,0.0,0.0,0.0,0.0,0.0,4.8599,0.0,0.0,5.0552,5.1466,5.2193,0.0,0.0,0.0,0.0,0.0,0.0,0.0,5.4906,5.5276,5.6678,5.681,5.681,5.681,5.681,5.681,5.681,5.681,5.681,5.681,5.681,5.681,5.681,5.681,5.681,5.681,5.681,5.681,5.681,5.681,5.681,5.681,5.681,5.681,5.6858,5.7353,5.7551,5.7723,5.9183,5.9995,6.0487,0.0,0.0,0.0,0.0,0.0,0.0,0.0,0.0,0.0,0.0,0.0,0.0,0.0,0.0,0.0,0.0,0.0,0.0,0.0,0.0,3.7414,3.6538,3.7784,3.8491,3.8491,3.9814,4.0489,4.0489,4.0489,4.0489,4.0489,4.0489,4.0568,4.0705,4.2014,4.2663,4.2833,4.4067,4.4591,0.0,4.4591,0.0,0.0,0.0,0.0,0.0,0.0,0.0,0.0,4.8368,4.8599,4.8599,4.8599,0.0,0.0,0.0,0.0,0.0,4.8599,4.8599,4.8599,4.8599,4.8599,4.8599,4.8599,0.0,0.0,0.0,0.0,0.0,0.0,0.0,0.0,0.0,0.0,0.0,0.0,0.0,0.0,0.0,0.0,0.0,5.4706,5.4768,5.5276,5.6678,5.681,5.681,5.681,5.681,5.681,5.681,5.681,5.681,5.681,5.681,5.681,5.681,5.681,5.681,5.681,5.681,5.681,5.681,5.681,5.681,5.681,5.681,5.681,5.681,5.681,5.681,5.6891,5.784,5.8705,5.9537,0.0,0.0,0.0,0.0,0.0,0.0,0.0,0.0,0.0,0.0,0.0,0.0,0.0,0.0,0.0,0.0,0.0,0.0,0.0,3.7764,3.7414,3.6538,3.7784,3.8491,3.8491,3.9814,4.0489,4.0489,4.0489,4.0489,4.0489,4.0489,4.083,4.1463,4.2248,4.291,4.3498,4.4267,4.4591,4.4591,4.4591,0.0,0.0,0.0,0.0,0.0,0.0,0.0,0.0,4.8368,4.8599,4.8599,4.8599,0.0,0.0,0.0,0.0,0.0,4.8599,4.8599,4.8599,4.8599,4.8599,4.8599,4.8599,0.0,0.0,0.0,0.0,0.0,0.0,0.0,0.0,0.0,0.0,0.0,0.0,0.0,0.0,0.0,0.0,5.3452,5.5361,5.5029,5.5276,5.6678,5.681,5.681,5.681,5.681,5.681,5.681,5.681,5.681,5.681,5.681,5.681,5.681,5.681,5.681,5.681,5.681,5.681,5.681,5.681,5.681,5.681,5.681,5.681,5.681,5.681,5.681,5.6891,5.784,5.8287,5.866,0.0,0.0,0.0,0.0,0.0,0.0,0.0,0.0,0.0,0.0,0.0,0.0,0.0,0.0,0.0,0.0,0.0,0.0,3.808,3.7908,3.7488,3.6801,3.7881,3.8491,3.8491,3.9814,4.0489,4.0489,4.0489,4.0489,4.0489,4.0489,4.0891,4.1632,4.2309,4.2971,4.3636,4.4314,4.4591,4.4591,0.0,0.0,0.0,0.0,0.0,0.0,0.0,0.0,0.0,0.0,4.8599,4.8599,4.8599,0.0,0.0,0.0,0.0,0.0,4.8599,4.8599,4.8599,4.8599,4.8599,4.8599,4.8599,0.0,0.0,0.0,0.0,0.0,0.0,0.0,0.0,0.0,0.0,0.0,0.0,0.0,0.0,0.0,0.0,5.3337,5.4983,5.4876,5.5276,5.6678,5.681,5.681,5.681,5.681,5.681,5.681,5.681,5.681,5.681,5.681,5.681,5.681,5.681,5.681,5.681,5.681,5.681,5.681,5.681,5.681,5.681,5.681,5.681,5.681,5.681,5.681,5.6891,5.784,5.8517,5.9072,0.0,0.0,0.0,0.0,0.0,0.0,0.0,0.0,0.0,0.0,0.0,0.0,0.0,0.0,0.0,0.0,0.0,0.0,3.846,3.8206,3.7722,3.6969,3.8009,3.8573,3.8491,3.9814,4.0489,4.0489,4.0489,4.0489,4.0489,4.0691,4.1137,4.1863,4.254,4.322,4.387,4.4375,4.4591,4.4591,0.0,0.0,0.0,0.0,0.0,0.0,0.0,0.0,0.0,0.0,0.0,0.0,0.0,0.0,0.0,4.8599,4.8599,4.8599,4.8599,4.8599,4.8599,4.8599,0.0,4.8599,0.0,0.0,0.0,0.0,0.0,0.0,0.0,0.0,0.0,0.0,0.0,0.0,0.0,0.0,0.0,0.0,5.2691,5.3168,5.4353,5.4614,5.5199,5.6447,5.6693,5.681,5.681,5.681,5.681,5.681,5.681,5.681,5.681,5.681,5.681,5.681,5.681,5.681,5.681,5.681,5.681,5.681,5.681,5.681,5.681,5.681,5.681,5.681,5.681,5.681,5.6882,5.7598,5.8471,5.9272,0.0,0.0,0.0,0.0,0.0,0.0,0.0,0.0,0.0,0.0,0.0,0.0,0.0,0.0,0.0,0.0,0.0,0.0,3.8894,3.884,3.8191,3.6769,3.8168,3.8818,3.8508,3.9814,4.0489,4.0489,4.0489,4.0489,4.0505,4.1199,4.1878,4.2571,4.3236,4.3917,4.4529,4.4575,4.4591,4.4591,4.4591,0.0,0.0,0.0,0.0,0.0,0.0,0.0,0.0,0.0,0.0,0.0,0.0,0.0,4.8599,4.8599,4.8599,4.8599,4.8599,4.8599,4.8599,4.8599,4.8599,0.0,4.8599,0.0,0.0,0.0,0.0,0.0,0.0,0.0,0.0,0.0,0.0,0.0,0.0,0.0,5.2691,5.2691,5.2691,5.2968,5.3706,5.4337,5.4999,5.5715,5.6416,5.681,5.681,5.681,5.681,5.681,5.681,5.681,5.681,5.681,5.681,5.681,5.681,5.681,5.681,5.681,5.681,5.681,5.681,5.681,5.681,5.681,5.681,5.681,5.681,5.681,5.681,5.6882,5.748,5.8287,0.0,0.0,0.0,0.0,0.0,0.0,0.0,0.0,0.0,0.0,0.0,0.0,0.0,0.0,0.0,0.0,0.0,3.8981,3.9079,3.8306,3.7798,3.77,3.8528,3.9101,3.9306,4.0217,4.0627,4.0489,4.0489,4.0737,4.1184,4.1478,4.2171,4.3236,4.3501,4.3959,4.4591,4.4591,4.4591,4.4591,4.4591,4.4852,0.0,0.0,0.0,0.0,0.0,0.0,0.0,0.0,4.8599,4.8599,4.8599,4.8599,4.8599,4.8599,4.8599,4.8599,4.8599,4.8599,4.8599,4.8599,0.0,0.0,0.0,0.0,0.0,0.0,0.0,0.0,0.0,0.0,0.0,0.0,0.0,0.0,0.0,5.2691,5.2691,5.2691,5.2691,5.2953,5.3629,5.4322,5.4968,5.5638,5.6385,5.681,5.681,5.681,5.681,5.681,5.681,5.681,5.681,5.681,5.681,5.681,5.681,5.681,5.681,5.681,5.681,5.681,5.681,5.681,5.681,5.681,5.681,5.681,5.681,5.681,5.681,5.681,5.7401,5.8119,0.0,0.0,0.0,0.0,0.0,0.0,0.0,0.0,0.0,0.0,0.0,0.0,0.0,0.0,0.0,0.0,3.9629,3.8941,3.9176,3.8169,3.7778,3.8277,3.8858,3.9356,3.9794,4.0525,4.078,4.0489,4.0489,4.0876,4.1601,4.1817,4.2527,4.3624,4.3805,4.416,4.4591,4.4591,4.4591,4.4622,4.4822,4.5191,0.0,0.0,0.0,0.0,0.0,0.0,0.0,0.0,4.8599,4.8599,4.8599,4.8599,4.8599,4.8599,4.8599,4.8599,4.8599,4.8599,4.8599,0.0,0.0,0.0,0.0,0.0,0.0,0.0,0.0,0.0,0.0,0.0,0.0,0.0,0.0,0.0,5.2236,5.2575,5.2691,5.2691,5.2691,5.2876,5.3337,5.3983,5.466,5.533,5.6062,5.6539,5.6794,5.681,5.681,5.681,5.681,5.681,5.681,5.681,5.681,5.681,5.681,5.681,5.681,5.681,5.681,5.681,5.681,5.681,5.681,5.681,5.681,5.681,5.681,5.681,5.681,5.681,5.7226,5.7668,0.0,0.0,0.0,0.0,0.0,0.0,0.0,0.0,4.0912,4.0912,4.0912,0.0,0.0,0.0,0.0,0.0,4.0348,3.9761,3.9216,3.8645,3.832,3.8323,3.9077,3.9612,3.9809,4.0642,4.0898,4.0489,4.0505,4.0891,4.1617,4.2309,4.2971,4.3639,4.4298,4.4591,4.4591,4.4591,4.4591,4.4668,4.533,4.5622,4.5776,0.0,0.0,0.0,0.0,0.0,0.0,0.0,4.8599,4.8599,4.8599,4.8599,4.8599,4.8599,4.8599,4.8599,4.8599,4.8599,0.0,0.0,0.0,0.0,0.0,0.0,0.0,0.0,0.0,0.0,0.0,0.0,0.0,0.0,0.0,5.0928,5.1605,5.2283,5.2691,5.2691,5.2691,5.2691,5.2691,5.3306,5.3983,5.4645,5.533,5.6031,5.6763,5.681,5.681,5.681,5.681,5.681,5.681,5.681,5.681,5.681,5.681,5.681,5.681,5.681,5.681,5.681,5.681,5.681,5.681,5.681,5.681,5.681,5.681,5.681,5.681,5.681,5.681,5.681,0.0,0.0,0.0,0.0,0.0,0.0,0.0,0.0,4.0912,4.0912,4.0912,0.0,0.0,0.0,0.0,0.0,0.0,0.0,3.9219,3.871,3.8838,3.9737,4.0086,4.0415,4.0722,4.0689,4.0626,4.0489,4.1014,4.1632,4.2325,4.2989,4.3652,4.4298,4.4514,4.4591,4.4591,4.4591,4.4868,4.533,4.553,4.6177,4.705,0.0,0.0,0.0,0.0,0.0,0.0,0.0,0.0,0.0,4.8599,4.8599,4.8599,4.8599,4.8599,4.8599,4.8599,4.8599,0.0,0.0,0.0,0.0,0.0,0.0,0.0,0.0,0.0,0.0,0.0,0.0,0.0,0.0,0.0,5.0928,5.1605,5.2283,5.2691,5.2691,5.2691,5.2691,5.2691,5.3306,5.3783,5.3983,5.5053,5.5815,5.6016,5.6508,5.681,5.681,5.681,5.681,5.681,5.681,5.681,5.681,5.681,5.681,5.681,5.681,5.681,5.681,5.681,5.681,5.681,5.681,5.681,5.681,5.681,5.681,5.681,5.681,5.681,5.681,0.0,0.0,0.0,0.0,0.0,0.0,0.0,0.0,4.0912,4.0912,4.0912,4.0912,0.0,0.0,0.0,0.0,0.0,0.0,3.9219,3.9204,3.9587,4.0402,4.0762,4.1006,4.1102,4.0712,4.0645,4.0937,4.1386,4.194,4.2599,4.3282,4.3959,4.4591,4.4591,4.4591,4.4622,4.4883,4.5237,4.5653,4.6172,4.688,4.7635,0.0,0.0,0.0,0.0,0.0,0.0,0.0,0.0,0.0,4.8599,4.8599,4.8599,4.8599,4.8599,4.8599,4.8599,0.0,0.0,0.0,0.0,0.0,0.0,0.0,0.0,0.0,0.0,0.0,0.0,0.0,0.0,4.9595,5.0251,5.0928,5.1605,5.2283,5.2691,5.2691,5.2691,5.2691,5.2691,5.306,5.3414,5.3676,5.4453,5.5145,5.5669,5.6123,5.6493,5.6794,5.681,5.681,5.681,5.681,5.681,5.681,5.681,5.681,5.681,5.681,5.681,5.681,5.681,5.681,5.681,5.681,5.681,5.681,5.681,5.681,5.681,5.681,5.681,5.681,0.0,0.0,4.0912,4.0912,0.0,0.0,0.0,0.0,4.0912,4.0912,4.0912,4.0912,0.0,0.0,0.0,0.0,0.0,0.0,3.9408,4.0022,4.0487,4.0661,4.118,4.1358,4.1118,4.0712,4.0861,4.1601,4.1663,4.2032,4.2709,4.3374,4.4024,4.4591,4.4591,4.4637,4.4729,4.5345,4.5684,4.59,4.7111,4.765,4.7773,4.8373,0.0,0.0,0.0,0.0,0.0,0.0,0.0,0.0,4.8599,4.8599,4.8599,4.8599,4.8599,4.8599,0.0,0.0,0.0,0.0,0.0,0.0,0.0,0.0,0.0,0.0,0.0,0.0,0.0,0.0,4.883,4.9595,5.0251,5.0928,5.1605,5.2283,5.2691,5.2691,5.2691,5.2691,5.2691,5.2691,5.2937,5.3553,5.366,5.4214,5.5438,5.5576,5.5923,5.6585,5.6601,5.6631,5.6693,5.6693,5.6724,5.681,5.681,5.681,5.681,5.681,5.681,5.681,5.681,5.681,5.681,5.681,5.681,5.681,5.681,5.681,5.681,5.681,5.681,5.681,0.0,0.0,4.0912,4.0912,0.0,0.0,0.0,0.0,0.0,0.0,0.0,0.0,0.0,0.0,0.0,0.0,0.0,0.0,0.0,4.0971,4.1352,4.1953,4.147,4.1163,4.1085,4.0712,4.0861,4.1601,4.2125,4.2725,4.339,4.4067,4.4452,4.4591,4.4591,4.4883,4.5391,4.5545,4.6203,4.7204,4.7481,4.7927,4.8399,4.8537,4.8599,0.0,0.0,0.0,0.0,0.0,0.0,0.0,4.8599,4.8599,4.8599,4.8599,4.8599,4.8599,0.0,0.0,0.0,0.0,0.0,0.0,0.0,0.0,0.0,0.0,0.0,0.0,0.0,4.8599,4.883,4.9595,5.0251,5.0928,5.1605,5.2283,5.2691,5.2691,5.2691,5.2691,5.2691,5.2691,5.2753,5.2891,5.3399,5.3829,5.4106,5.4629,5.4983,5.5137,5.5137,5.5407,5.5939,5.5954,5.6231,5.681,5.681,5.681,5.681,5.681,5.681,5.681,5.681,5.681,5.681,5.681,5.681,5.681,5.681,5.681,5.681,5.681,5.681,5.681,0.0,0.0,0.0,0.0,0.0,0.0,0.0,0.0,0.0,0.0,0.0,0.0,0.0,0.0,0.0,0.0,0.0,0.0,0.0,4.2151,4.2777,4.2916,4.2327,4.1754,4.1221,4.073,4.1049,4.2173,4.2453,4.294,4.3624,4.4283,4.4591,4.4606,4.4945,4.5268,4.5653,4.628,4.6957,4.7635,4.7958,4.8276,4.8599,4.8599,4.8599,4.8599,4.8599,0.0,0.0,0.0,0.0,0.0,0.0,0.0,4.8599,4.8599,4.8599,4.8599,0.0,0.0,0.0,0.0,0.0,0.0,0.0,0.0,0.0,0.0,0.0,0.0,4.8599,4.8599,4.883,4.9595,5.0251,5.0928,5.1605,5.2283,5.2691,5.2691,5.2691,5.2691,5.2691,5.2691,5.2691,5.2691,5.3014,5.3353,5.3676,5.4029,5.4368,5.4691,5.4706,5.4876,5.5222,5.5222,5.5422,5.5792,5.5792,5.5792,5.5807,5.6493,5.681,5.681,5.681,5.681,5.681,5.681,5.681,5.681,5.681,5.681,5.681,5.681,5.681,5.681,0.0,0.0,0.0,0.0,0.0,0.0,0.0,0.0,0.0,0.0,0.0,0.0,0.0,0.0,0.0,0.0,0.0,0.0,0.0,0.0,0.0,4.3523,4.2983,4.2269,4.1323,4.0816,4.1308,4.2847,4.2677,4.302,4.3831,4.4348,4.4591,4.4622,4.5299,4.5669,4.5853,4.708,4.7665,4.7835,4.8368,4.8599,4.8599,4.8599,4.8599,4.8599,4.8599,4.8599,4.8599,4.8599,0.0,0.0,0.0,0.0,4.8599,4.8599,4.8599,4.8599,0.0,0.0,0.0,0.0,0.0,0.0,0.0,0.0,0.0,0.0,0.0,4.8599,4.8599,4.8599,4.883,4.9595,5.0251,5.0928,5.1605,5.2283,5.2691,5.2691,5.2691,5.2691,5.2691,5.2691,5.2691,5.2691,5.2691,5.2937,5.3491,5.3522,5.3783,5.4337,5.4353,5.4414,5.4537,5.4537,5.4599,5.4706,5.4706,5.4706,5.4753,5.5899,5.6431,5.6431,5.6431,5.6493,5.6601,5.6601,5.6678,5.681,5.681,5.681,5.681,5.681,5.681,5.681,0.0,0.0,0.0,0.0,0.0,0.0,0.0,0.0,0.0,0.0,4.0912,4.0912,0.0,4.1469,4.1849,4.1849,4.2585,4.3285,4.3846,0.0,0.0,4.3495,4.2221,4.1457,4.1291,4.0936,4.1517,4.3061,4.2749,4.3325,4.4716,4.4655,4.4591,4.4622,4.5299,4.5911,4.6511,4.7281,4.7942,4.846,4.8553,4.8599,4.8599,4.8599,4.8599,4.8599,4.8599,4.8599,4.8599,4.8599,4.8599,0.0,0.0,0.0,4.8599,4.8599,4.8599,4.8599,0.0,0.0,0.0,0.0,0.0,0.0,0.0,0.0,0.0,0.0,4.8599,4.8599,4.8599,4.8599,4.883,4.9595,5.0251,5.0928,5.1605,5.2283,5.2691,5.2691,5.2691,5.2691,5.2691,5.2691,5.2691,5.2691,5.2691,5.2737,5.2814,5.2829,5.286,5.2953,5.2953,5.3245,5.3829,5.3829,5.4137,5.4706,5.4706,5.4706,5.4706,5.4891,5.4983,5.4983,5.4983,5.5315,5.5862,5.5862,5.6216,5.681,5.681,5.681,5.681,5.681,5.681,5.681,0.0,0.0,0.0,0.0,0.0,0.0,0.0,0.0,0.0,0.0,0.0,4.1521,4.1521,4.2211,4.2672,4.2672,4.3362,4.4126,4.4872,4.4383,4.3895,4.3512,4.2459,4.1688,4.1306,4.1327,4.1887,4.2936,4.3086,4.3689,4.4723,4.4629,4.4591,4.4652,4.5699,4.6311,4.6665,4.7727,4.8343,4.8599,4.8599,4.8599,4.8599,4.8599,4.8599,4.8599,4.8599,0.0,4.8599,4.8599,4.8599,4.8599,4.8599,0.0,0.0,0.0,4.8599,0.0,0.0,0.0,0.0,0.0,0.0,0.0,0.0,0.0,0.0,4.8599,4.8599,4.8599,4.8599,4.8599,4.8706,4.9035,4.9989,5.079,5.1097,5.2052,5.2691,5.2691,5.2691,5.2691,5.2691,5.2691,5.2691,5.2691,5.2691,5.2691,5.2691,5.2691,5.2691,5.2691,5.2691,5.2829,5.3137,5.3137,5.3291,5.3583,5.3583,5.3583,5.3583,5.3583,5.3983,5.4706,5.4706,5.4876,5.5137,5.5137,5.5545,5.6185,5.6185,5.6431,5.681,5.681,5.681,5.681,0.0,0.0,0.0,0.0,0.0,0.0,0.0,0.0,0.0,0.0,0.0,4.2297,4.2297,0.0,0.0,0.0,4.4143,4.482,4.5363,4.4683,4.4028,4.3527,4.2599,4.1947,4.159,4.1817,4.2346,4.3131,4.3509,4.4019,4.4667,4.461,4.4683,4.4899,4.6084,4.6696,4.6927,4.8112,4.8599,4.8599,4.8599,4.8599,4.8599,4.8599,4.8599,4.8599,4.8599,0.0,0.0,0.0,0.0,0.0,0.0,0.0,0.0,0.0,0.0,0.0,0.0,0.0,0.0,0.0,0.0,0.0,0.0,0.0,4.8599,0.0,4.8599,4.8599,4.8599,4.8599,4.8599,4.8599,4.9651,5.0519,5.0667,5.1713,5.2506,5.2698,5.2691,5.2691,5.2691,5.2691,5.2691,5.2691,5.2691,5.2691,5.2691,5.2691,5.2691,5.2691,5.2691,5.2691,5.2691,5.2691,5.2691,5.2691,5.2691,5.2691,5.2691,5.2691,5.3245,5.4199,5.4199,5.4291,5.446,5.446,5.4829,5.5453,5.5622,5.6046,5.6539,5.6724,5.681,5.681,0.0,0.0,0.0,0.0,0.0,0.0,0.0,0.0,0.0,0.0,0.0,4.3138,4.3138,4.3793,4.4242,4.4242,4.4923,4.5363,4.5397,4.424,4.3542,4.3497,4.2285,0.0,4.2344,4.2357,4.2911,4.4026,4.394,4.422,4.4874,4.4685,4.4945,4.5592,4.628,4.6942,4.7604,4.8291,0.0,0.0,4.8599,4.8599,4.8599,4.8599,0.0,0.0,0.0,0.0,0.0,0.0,0.0,0.0,0.0,0.0,0.0,0.0,0.0,0.0,0.0,0.0,0.0,0.0,0.0,0.0,0.0,0.0,4.8599,4.8599,4.8599,4.8599,4.8599,4.8599,4.8599,4.8599,4.9251,4.9959,5.0605,5.1313,5.199,5.2614,5.2691,5.2691,5.2691,5.2691,5.2691,5.2691,5.2691,5.2691,5.2691,5.2691,5.2691,5.2691,5.2691,5.2691,5.2691,5.2691,5.2691,5.2691,5.2691,5.2691,5.2691,5.2691,5.2737,5.2783,5.2783,5.3153,5.3753,5.3753,5.4153,5.4814,5.5453,5.5715,5.5846,5.6539,5.681,5.681,0.0,0.0,0.0,0.0,0.0,0.0,0.0,0.0,0.0,0.0,0.0,0.0,0.0,4.4561,4.4996,4.4996,4.4888,4.4824,4.4824,4.3617,4.291,4.291,4.1948,4.1719,4.2389,4.257,4.308,4.3974,4.4223,4.4473,4.4704,4.4629,4.5191,4.6249,4.648,4.6973,4.765,4.8327,0.0,0.0,0.0,0.0,0.0,0.0,0.0,0.0,0.0,0.0,0.0,0.0,0.0,0.0,0.0,0.0,0.0,0.0,0.0,0.0,0.0,0.0,0.0,4.8599,4.8599,4.8599,4.8599,4.8599,4.8599,4.8599,4.8599,4.8599,4.8599,4.8599,4.8599,4.8599,4.922,4.9795,5.0005,5.1005,5.179,5.2036,5.2452,5.2691,5.2691,5.2691,5.2691,5.2691,5.2691,5.2691,5.2691,5.2691,5.2691,5.2691,5.2691,5.2691,5.2691,5.2691,5.2691,5.2691,5.2691,5.2691,5.2691,5.2691,5.2691,5.2691,5.2691,5.2829,5.306,5.306,5.3445,5.4076,5.4306,5.4945,5.5715,5.6016,5.6385,5.681,0.0,0.0,0.0,0.0,0.0,4.2585,4.312,4.3414,4.3569,4.3569,0.0,0.0,0.0,0.0,4.518,4.5384,4.4793,4.4398,4.4398,4.3214,4.2572,4.2735,4.2053,4.2039,4.2856,4.2881,4.3312,4.413,4.4291,4.4447,4.4591,4.4822,4.553,4.6603,4.6834,4.7311,0.0,0.0,0.0,4.8599,0.0,0.0,4.8599,0.0,0.0,0.0,0.0,0.0,0.0,0.0,0.0,0.0,0.0,0.0,0.0,0.0,0.0,0.0,4.8599,0.0,0.0,0.0,0.0,4.8599,4.8599,4.8599,4.8599,4.8599,4.8599,4.8599,4.8599,4.8599,4.8599,4.8599,4.902,4.9404,4.9672,5.0466,5.1113,5.1344,5.1959,5.2375,5.2375,5.2575,5.2691,5.2691,5.2691,5.2691,5.2691,5.2691,5.2691,5.2691,5.2691,5.2691,5.2691,5.2691,5.2691,5.2691,5.2691,5.2691,5.2691,5.2691,5.2691,5.2691,5.2691,5.2691,5.2691,5.2691,5.2953,5.3383,5.3614,5.4229,5.5084,5.553,5.6016,5.6462,0.0,0.0,4.3207,4.3224,4.3224,4.3241,4.3258,4.388,4.4333,4.4302,0.0,0.0,0.0,0.0,0.0,4.5274,4.4622,4.4166,4.4166,4.3003,4.2543,4.2988,4.2613,4.2856,4.3784,4.3363,4.3617,4.461,4.4161,4.4143,4.4606,4.5299,4.5957,4.6619,4.7296,4.7953,4.8599,0.0,4.8599,4.8599,0.0,4.8599,4.8599,0.0,0.0,0.0,4.8599,4.8599,0.0,0.0,0.0,0.0,0.0,0.0,0.0,0.0,0.0,0.0,0.0,0.0,0.0,0.0,0.0,0.0,4.8599,4.8599,4.8599,4.8599,4.8599,4.8599,4.8599,4.8599,4.8599,4.8599,4.8599,4.885,4.9579,4.9703,4.9949,5.059,5.1267,5.1682,5.1682,5.2283,5.266,5.266,5.2676,5.2691,5.2691,5.2691,5.2691,5.2691,5.2691,5.2691,5.2691,5.2691,5.2691,5.2691,5.2691,5.2691,5.2691,5.2691,5.2691,5.2691,5.2691,5.2691,5.2691,5.2691,5.2691,5.2753,5.3414,5.3676,5.386,5.5161,5.5653,5.5776,0.0,4.3189,4.3362,4.3897,4.4,4.4177,4.4703,4.4962,4.4938,0.0,0.0,0.0,4.4631,4.4449,4.416,4.37,4.3597,4.3487,4.3344,4.3045,4.2929,4.3083,4.2817,4.3111,4.4003,4.3647,4.3914,4.4818,4.4553,4.4478,4.4606,4.5299,4.5957,4.6619,4.7296,4.7953,4.8599,4.8599,0.0,0.0,4.8599,4.8599,0.0,0.0,0.0,0.0,0.0,4.8599,0.0,0.0,4.8599,4.8599,0.0,0.0,0.0,0.0,0.0,0.0,4.8599,0.0,0.0,0.0,0.0,0.0,4.8599,4.8599,4.8599,4.8599,4.8599,4.8599,4.8599,4.8599,4.8599,4.8599,4.8599,4.866,4.8881,4.9358,4.978,4.9964,5.0559,5.0974,5.0974,5.159,5.199,5.199,5.2436,5.2691,5.2691,5.2691,5.2691,5.2691,5.2691,5.2691,5.2691,5.2691,5.2691,5.2691,5.2691,5.2691,5.2691,5.2691,5.2691,5.2691,5.2691,5.2691,5.2691,5.2691,5.2691,5.2729,5.2891,5.326,5.3737,5.4106,5.4553,5.5076,4.4126,4.4126,4.4251,4.4682,4.4751,4.4906,4.5328,4.5397,4.515,0.0,0.0,0.0,4.3806,4.4006,4.4092,4.385,4.3622,4.3467,4.3335,4.3111,4.3078,4.3301,4.3262,4.3554,4.4291,4.384,4.4003,4.4761,4.437,4.4468,4.5037,4.5715,4.6372,4.705,4.7727,4.823,4.8599,0.0,0.0,0.0,4.8599,0.0,0.0,4.8599,4.8599,0.0,0.0,0.0,4.8599,4.8599,4.8599,0.0,0.0,0.0,0.0,0.0,0.0,0.0,0.0,0.0,0.0,0.0,0.0,0.0,4.8599,4.8599,4.8599,4.8599,4.8599,4.8599,4.8599,4.8599,4.8599,4.8599,4.8599,4.8599,4.8599,4.8974,4.9235,4.9235,4.9851,5.0266,5.0266,5.0882,5.1282,5.1282,5.1652,5.199,5.2283,5.2537,5.2691,5.2691,5.2691,5.2691,5.2691,5.2691,5.2691,5.2691,5.2691,5.2691,5.2691,5.2691,5.2691,5.2691,5.2691,5.2691,5.2691,5.2691,5.2691,5.2691,5.2691,5.2937,5.3306,5.3599,5.3953,5.4383,0.0,4.5397,4.5397,4.5397,4.5397,4.5371,4.5274,4.5274,4.4974,0.0,4.365,4.329,4.3118,4.3622,4.4186,4.4691,4.4156,4.3791,4.3773,4.3288,4.3215,4.3685,4.3828,4.4124,4.4591,4.4024,4.399,4.4591,4.4086,4.4421,4.5622,4.6357,4.7034,4.7635,4.8291,4.8599,4.8599,0.0,0.0,4.8599,4.8599,4.8599,0.0,0.0,4.8599,0.0,4.8599,4.8599,4.8599,4.8599,4.8599,0.0,0.0,0.0,0.0,0.0,4.8599,0.0,0.0,0.0,0.0,0.0,0.0,0.0,4.8599,4.8599,4.8599,4.8599,4.8599,4.8599,4.8599,4.8599,4.8599,4.8599,4.8599,4.8599,4.8599,4.8599,4.8599,4.8599,4.9174,4.9595,4.9595,5.0189,5.059,5.059,5.0651,5.0959,5.1559,5.2236,5.2606,5.2606,5.2645,5.2691,5.2691,5.2691,5.2691,5.2691,5.2691,5.2691,5.2691,5.2691,5.2691,5.2691,5.2691,5.2691,5.2691,5.2691,5.2691,5.2691,5.2691,5.2691,5.2768,5.3368,5.3583,5.3676,4.5397,4.5397,4.5397,4.5397,4.5397,4.5177,4.4518,4.4434,4.415,4.3328,4.3522,4.3689,4.3647,4.3749,4.3625,4.3116,4.3523,4.3762,4.365,4.4013,4.4305,4.4391,4.4444,4.449,4.4591,4.4468,4.4468,4.4591,4.5006,4.5345,4.5638,4.6834,4.7481,4.7635,4.8291,4.8599,4.8599,0.0,0.0,4.8599,4.8599,0.0,4.8599,4.8599,4.8599,4.8599,4.8599,4.8599,4.8599,0.0,4.8599,4.8599,0.0,0.0,0.0,0.0,0.0,0.0,0.0,0.0,0.0,0.0,0.0,0.0,4.8599,4.8599,4.8599,4.8599,4.8599,4.8599,4.8599,4.8599,4.8599,4.8599,4.8599,4.8599,4.8599,4.8599,4.8599,4.8599,4.8743,4.8799,4.8799,4.9466,4.9903,4.9903,5.0389,5.0759,5.0882,5.1528,5.1898,5.1898,5.2421,5.2691,5.2691,5.2691,5.2691,5.2691,5.2691,5.2691,5.2691,5.2691,5.2691,5.2691,5.2691,5.2691,5.2691,5.2691,5.2691,5.2691,5.2691,5.2691,5.2729,5.2845,5.2891,5.2983,4.5211,4.5211,4.51,4.4763,4.4988,4.4848,4.3773,4.4177,4.4187,4.3054,4.308,4.3329,4.3658,4.3689,4.3666,4.3593,4.3972,4.4176,4.4101,4.4406,4.4591,4.4591,4.4591,4.4591,4.4591,4.4591,4.476,4.5099,4.5438,4.5946,4.6603,4.7296,4.7788,4.8107,4.8445,4.8599,4.8599,0.0,4.8599,4.8599,4.8599,0.0,4.8599,4.8599,4.8599,4.8599,4.8599,4.8599,4.8599,4.8599,4.8599,0.0,0.0,4.8599,4.8599,0.0,4.8599,4.8599,0.0,0.0,0.0,4.8599,0.0,0.0,0.0,4.8599,4.8599,4.8599,4.8599,4.8599,4.8599,4.8599,4.8599,4.8599,4.8599,4.8599,4.8599,4.8599,4.8599,4.8599,4.8599,4.8599,4.8599,4.8943,4.9143,4.9143,4.9789,5.0189,5.0189,5.0836,5.1344,5.1698,5.2036,5.2375,5.2691,5.2691,5.2691,5.2691,5.2691,5.2691,5.2691,5.2691,5.2691,5.2691,5.2691,5.2691,5.2691,5.2691,5.2691,5.2691,5.2691,5.2691,5.2691,5.2691,5.2691,5.2737,4.4824,4.481,4.46,4.3922,4.4358,4.4402,4.3149,4.3987,4.4325,4.3117,4.2958,4.3187,4.3728,4.3793,4.4006,4.4545,4.4591,4.4591,4.4591,4.4591,4.4591,4.4591,4.4591,4.4652,4.4791,4.4791,4.513,4.5792,4.5911,4.6542,4.7604,4.7742,4.8076,4.8599,4.8599,4.8599,0.0,0.0,0.0,4.8599,0.0,4.8599,4.8599,4.8599,4.8599,4.8599,4.8599,4.8599,4.8599,4.8599,0.0,4.8599,4.8599,4.8599,0.0,0.0,0.0,0.0,0.0,0.0,0.0,0.0,0.0,4.8599,0.0,0.0,0.0,4.8599,4.8599,4.8599,4.8599,4.8599,4.8599,4.8599,4.8599,4.8599,4.8599,4.8599,4.8599,4.8599,4.8599,4.8599,4.8599,4.8599,4.8599,4.8599,4.9143,4.9481,4.9481,5.0149,5.0743,5.1298,5.1436,5.1836,5.2513,5.2506,5.2568,5.2691,5.2691,5.2691,5.2691,5.2691,5.2691,5.2691,5.2691,5.2691,5.2691,5.2691,5.2691,5.2691,5.2691,5.2691,5.2691,5.2691,5.2691,5.2691,4.4186,4.4112,4.3908,4.324,4.3676,4.3823,4.2957,4.3465,4.3844,4.3544,4.4019,4.4406,0.0,0.0,0.0,0.0,0.0,0.0,4.4591,0.0,4.4591,4.4591,4.4591,4.4883,4.5484,4.5499,4.5823,4.648,4.708,4.745,4.7619,4.8199,4.8522,4.8599,4.8599,0.0,0.0,0.0,4.8599,0.0,4.8599,4.8599,0.0,4.8599,4.8599,4.8599,4.8599,4.8599,4.8599,0.0,4.8599,4.8599,0.0,4.8599,0.0,0.0,0.0,0.0,0.0,0.0,0.0,0.0,4.8599,0.0,0.0,0.0,4.8599,4.8599,0.0,0.0,0.0,0.0,0.0,4.8599,4.8599,4.8599,4.8599,4.8599,4.8599,4.8599,4.8599,4.8599,4.8599,4.8599,4.8599,4.8599,4.8676,4.8706,4.8706,4.942,4.9857,4.9912,5.0497,5.1144,5.1821,5.1821,5.2113,5.2691,5.2691,5.2691,5.2691,5.2691,5.2691,5.2691,5.2691,5.2691,5.2691,5.2691,5.2691,5.2691,5.2691,5.2691,5.2691,5.2691,5.2691,5.2691,4.3826,4.4038,4.4007,4.2944,4.3654,4.3975,4.2836,4.3254,4.3798,4.4139,4.4421,4.4591,0.0,0.0,0.0,0.0,0.0,0.0,0.0,0.0,4.5361,4.5746,4.5776,4.59,4.6157,4.6172,4.6511,4.7173,4.7465,4.7804,4.8204,4.8481,4.8599,4.8599,4.8599,0.0,4.8599,0.0,4.8599,0.0,0.0,0.0,0.0,4.8599,4.8599,4.8599,4.8599,4.8599,4.8599,0.0,4.8599,0.0,0.0,0.0,0.0,0.0,0.0,0.0,0.0,0.0,0.0,0.0,0.0,0.0,4.8599,0.0,4.8599,0.0,0.0,0.0,0.0,0.0,0.0,0.0,4.8599,4.8599,4.8599,4.8599,4.8599,4.8599,4.8599,4.8599,4.8599,4.8599,4.8599,4.8599,4.8599,4.8599,4.8599,4.8897,4.9251,4.9703,4.9959,5.0436,5.1113,5.1513,5.1836,5.2129,5.2506,5.2691,5.2691,5.2691,5.2691,5.2691,5.2691,5.2691,5.2691,5.2691,5.2691,5.2691,5.2691,5.2691,5.2691,5.2691,5.2691,5.2691,4.3678,0.0,4.3961,4.2796,4.3555,4.406,4.3274,4.3559,4.4036,0.0,0.0,0.0,4.4591,4.4591,0.0,0.0,0.0,4.4883,0.0,0.0,4.5915,4.6573,4.6603,0.0,0.0,4.6865,4.7204,4.7881,4.7881,4.8107,4.8599,4.8599,4.8599,4.8599,0.0,4.8599,4.8599,0.0,0.0,4.8599,4.8599,4.8599,4.8599,4.8599,4.8599,4.8599,4.8599,4.8599,4.8599,4.8599,4.8599,0.0,4.8599,0.0,0.0,0.0,0.0,0.0,4.8599,0.0,0.0,0.0,0.0,0.0,0.0,0.0,0.0,0.0,0.0,0.0,0.0,0.0,4.8599,4.8599,0.0,4.8599,4.8599,4.8599,4.8599,4.8599,4.8599,4.8599,4.8599,4.8599,4.8599,4.8599,4.8599,4.8599,4.8599,4.8599,4.885,4.9374,4.9389,4.9728,5.042,5.0913,5.1236,5.1436,5.2113,5.2436,5.2414,5.2637,5.2691,5.2691,5.2691,5.2691,5.2691,5.2691,5.2691,5.2691,5.2691,5.2691,5.2691,5.2691,5.2691,5.2691,4.3717,4.3628,0.0,0.0,0.0,4.3831,4.4456,4.4545,0.0,0.0,0.0,0.0,0.0,0.0,0.0,0.0,0.0,4.4883,4.5561,0.0,4.5915,0.0,0.0,0.0,0.0,0.0,4.7912,4.8553,4.8553,4.8568,4.8599,4.8599,4.8599,4.8599,4.8599,4.8599,4.8599,4.8599,4.8599,4.8599,4.8599,4.8599,4.8599,0.0,4.8599,4.8599,4.8599,0.0,0.0,4.8599,4.8599,0.0,0.0,0.0,0.0,0.0,0.0,0.0,0.0,0.0,0.0,4.8599,0.0,0.0,0.0,0.0,4.8599,0.0,0.0,0.0,0.0,0.0,4.8599,4.8599,4.8599,0.0,0.0,4.8599,4.8599,4.8599,4.8599,4.8599,4.8599,4.8599,4.8599,4.8599,4.8599,4.8599,4.8599,4.8599,4.8599,4.863,4.863,4.8989,4.9733,4.9764,5.0103,5.0728,5.1405,5.1744,5.1759,5.2406,5.2691,5.2691,5.2691,5.2691,5.2691,5.2691,5.2691,5.2691,5.2691,5.2691,5.2691,5.2691,5.2691,5.2691,4.4306,0.0,0.0,0.0,0.0,0.0,0.0,4.4591,0.0,0.0,0.0,0.0,0.0,0.0,4.5268,0.0,0.0,4.6203,4.688,4.6927,0.0,0.0,0.0,4.8035,0.0,0.0,0.0,0.0,4.8599,4.8599,4.8599,4.8599,4.8599,4.8599,4.8599,4.8599,0.0,0.0,0.0,0.0,0.0,4.8599,4.8599,0.0,4.8599,4.8599,4.8599,4.8599,0.0,4.8599,4.8599,4.8599,4.8599,4.8599,4.8599,4.8599,4.8599,4.8599,0.0,0.0,4.8599,4.8599,0.0,0.0,0.0,0.0,0.0,0.0,0.0,0.0,0.0,0.0,4.8599,4.8599,4.8599,4.8599,0.0,4.8599,4.8599,4.8599,0.0,0.0,4.8599,4.8599,4.8599,4.8599,4.8599,4.8599,4.8599,4.8599,4.8599,4.8599,4.8599,4.8706,4.8974,4.9472,4.9826,5.0057,5.0713,5.1267,5.1713,5.1944,5.2283,5.2691,5.2691,5.2691,5.2691,5.2691,5.2691,5.2691,5.2691,5.2803,5.296,5.296,5.296,5.2982,4.4591,0.0,0.0,0.0,0.0,0.0,0.0,0.0,0.0,0.0,4.4806,0.0,4.496,0.0,4.5961,0.0,4.6342,4.688,4.7558,4.7604,0.0,4.8568,4.8599,0.0,0.0,0.0,0.0,0.0,0.0,4.8599,4.8599,4.8599,4.8599,4.8599,4.8599,4.8599,4.8563,0.0,4.8277,0.0,0.0,4.8599,0.0,0.0,4.8297,4.8599,0.0,4.8599,4.8599,4.8599,4.8599,4.8599,4.8599,4.8599,4.8599,4.8599,4.8599,4.8599,4.8599,4.8599,0.0,4.8599,4.8599,0.0,4.8599,0.0,0.0,0.0,0.0,0.0,0.0,0.0,4.848,4.8151,4.8375,4.8599,0.0,4.8599,4.8599,4.8599,0.0,0.0,0.0,4.8599,4.8599,4.8599,4.8599,4.8599,4.8599,4.8599,4.8599,4.8599,4.8599,4.8599,4.8599,4.9066,4.9312,4.9312,5.0005,5.0559,5.099,5.1482,5.1944,5.2375,5.2583,5.2691,5.2713,5.2803,5.2781,5.2713,5.2877,5.3026,5.3093,5.3093,5.316,5.3233,4.4591,0.0,0.0,0.0,4.4591,0.0,0.0,0.0,4.4652,0.0,4.5253,4.5653,4.5653,4.6249,4.665,4.665,4.668,0.0,4.7619,4.765,0.0,0.0,4.8599,4.8599,4.8599,0.0,0.0,0.0,0.0,0.0,4.8599,4.8599,4.8599,4.8599,4.8599,0.0,4.8542,4.7591,4.7691,4.8459,4.8563,4.8542,4.8375,4.757,4.7798,4.8521,4.8521,4.8557,4.8599,4.8599,4.8599,4.8599,4.8599,4.8599,4.8599,4.8599,4.8599,4.8599,4.8599,4.8599,4.8599,4.8599,4.8599,0.0,0.0,0.0,4.8599,0.0,0.0,0.0,0.0,0.0,0.0,4.742,4.8024,4.8599,4.8599,4.8599,4.8599,0.0,0.0,0.0,0.0,4.8599,4.8599,4.8599,4.8599,4.8599,4.8599,4.8599,4.8599,4.8599,4.8599,4.8599,4.8599,4.8599,4.8599,4.8599,4.9312,4.9672,4.9749,5.1021,5.1636,5.1744,5.2353,5.266,5.2713,5.2982,5.2937,5.2781,5.3217,5.3299,5.3115,5.3115,5.3255,5.3481,4.4591,4.4591,4.4591,0.0,4.4591,4.476,0.0,0.0,0.0,0.0,4.6234,4.6326,4.6326,4.6942,4.7342,4.7342,4.7804,0.0,0.0,0.0,0.0,4.8583,4.8599,4.8599,4.8599,4.8599,0.0,4.8599,0.0,0.0,4.8599,4.8599,4.8599,4.8599,4.8599,4.8599,4.8542,4.7591,4.6929,4.6645,4.8046,4.7755,4.6645,0.0,4.7946,4.7548,4.7548,4.8024,4.8599,4.8599,4.8599,4.8599,4.8599,4.8599,4.8599,4.8599,4.8599,4.8599,4.8599,4.8599,4.8599,4.8599,4.8599,4.8599,4.8599,0.0,0.0,0.0,0.0,0.0,0.0,0.0,0.0,4.8172,4.8438,4.8599,0.0,0.0,0.0,4.8599,0.0,0.0,4.8599,4.8599,4.8599,4.8599,4.8599,4.8599,4.8599,4.8599,4.8599,4.8599,4.8599,4.8599,4.8599,4.8599,4.8599,4.8599,4.8804,4.9174,4.9718,5.0051,5.0759,5.1713,5.1882,5.2252,5.2713,5.2982,5.3049,5.3026,5.3305,5.3496,5.3615,5.3615,5.3752,5.3937,4.4591,0.0,0.0,4.4991,0.0,0.0,4.5526,0.0,0.0,4.6542,4.6785,0.0,4.7034,4.7569,4.7906,4.7906,4.8259,0.0,0.0,0.0,0.0,4.8474,4.8557,4.8599,4.8599,4.8599,0.0,4.8599,0.0,0.0,4.8599,4.8599,4.8599,4.8599,4.8599,4.8599,4.8578,4.8046,4.7038,4.5958,4.784,4.7484,0.0,4.742,4.7655,4.7204,4.7204,4.7798,4.8599,4.8599,4.8599,4.8599,4.8599,4.8599,4.8599,4.8599,4.8599,4.8599,4.8599,4.8599,4.8599,4.8599,4.8599,4.8599,4.8599,4.8277,4.784,0.0,4.6864,4.6454,0.0,0.0,0.0,0.0,0.0,0.0,0.0,0.0,0.0,0.0,4.8599,4.8599,4.8599,4.8599,4.8599,4.8599,4.8599,4.8599,4.8599,4.8599,4.8599,4.8599,4.8599,4.8599,4.8599,4.8599,4.8599,4.8599,4.8599,4.8835,4.9235,4.9564,5.0097,5.0836,5.1237,5.1768,5.2429,5.2782,5.3056,5.3255,5.3496,5.3714,5.3925,5.3925,5.3995,5.4103,0.0,0.0,0.0,0.0,0.0,0.0,0.0,4.6298,0.0,4.677,0.0,4.7456,4.764,4.8018,4.8265,4.8265,0.0,4.8197,4.8007,4.816,4.8202,4.8061,4.8229,4.8256,4.8136,4.8277,0.0,0.0,0.0,4.8599,4.8599,4.8599,4.8599,4.8599,4.8599,0.0,0.0,4.8375,4.7269,4.5598,4.7612,4.7211,4.5553,4.6886,4.7233,4.7038,4.7312,4.7904,4.8599,4.8599,4.8599,4.8599,4.8599,4.8599,4.8599,4.8599,4.8599,4.8599,4.8599,4.8599,4.8599,4.8599,4.8516,4.8417,4.8417,4.7691,4.6973,4.6864,4.6167,4.5349,4.4475,0.0,0.0,0.0,0.0,0.0,0.0,0.0,0.0,0.0,0.0,0.0,4.8599,4.8599,4.8599,4.8599,4.8599,4.8599,4.8599,4.8599,4.8599,4.8599,4.8599,4.8599,4.8599,4.8599,4.8599,4.8599,4.8599,4.8599,4.8614,4.9251,4.961,4.9733,5.0532,5.1252,5.1921,5.2373,5.2881,5.3399,5.372,5.3947,5.4103,5.4103,5.4103,5.4103,0.0,0.0,0.0,0.0,0.0,4.6961,4.7002,4.6961,4.7127,4.7686,4.7827,4.7888,4.793,4.7994,4.8049,4.8049,4.8049,0.0,0.0,0.0,0.0,4.6842,4.6842,4.6484,4.5647,4.6601,4.711,0.0,4.8115,4.8599,4.8599,4.8599,4.8599,4.8599,4.8599,0.0,4.6337,4.7118,0.0,4.3624,4.6366,4.5832,4.3766,4.7103,4.7398,4.6248,4.7798,4.8459,4.8599,4.8599,4.8599,4.8599,4.8599,4.8599,4.8599,4.8599,4.8599,4.8599,4.8599,4.8599,4.8599,4.8599,4.8024,4.7441,4.7441,4.6711,4.5809,4.4969,4.467,4.4522,4.4336,4.5244,0.0,0.0,0.0,0.0,0.0,0.0,0.0,0.0,0.0,4.7755,4.8521,4.8599,4.8599,4.8599,4.8599,4.8599,4.8599,4.8599,4.8599,4.8599,4.8599,4.8599,4.8599,4.8599,4.8599,4.8599,4.8599,4.8599,4.8599,4.8722,4.9127,4.9718,5.0037,5.0555,5.1196,5.1679,5.2382,5.3202,5.3818,5.4081,5.4103,5.4103,5.4103,5.4103,0.0,0.0,0.0,0.0,0.0,0.0,0.0,4.7277,0.0,4.7934,4.788,4.7837,4.7986,4.788,4.7587,4.7053,4.7009,4.6748,4.6114,4.6667,4.6579,4.557,4.6144,0.0,4.5012,4.5571,4.6167,4.6791,4.7276,4.7882,4.8599,4.8495,4.8495,4.8563,4.8088,4.7377,0.0,4.6491,4.5358,4.3847,4.6233,4.5471,4.3269,4.6608,4.6994,4.5981,4.7377,4.8193,4.8599,4.8599,4.8599,4.8599,4.8599,4.8599,4.8599,4.8599,4.8599,4.8599,4.8599,4.8599,4.848,4.8003,4.7527,4.706,4.6579,4.5719,4.4877,4.4406,4.3904,4.3705,4.4219,4.4707,0.0,0.0,0.0,0.0,0.0,0.0,0.0,0.0,0.0,0.0,0.0,0.0,0.0,0.0,0.0,4.8599,4.8599,4.8599,4.8599,4.8599,4.8599,4.8599,4.8599,4.8599,4.8599,4.8599,4.8599,4.8599,4.8599,4.8599,4.8804,4.9148,4.9372,4.9926,5.0688,5.1523,5.2135,5.2597,5.3313,5.3581,5.3629,5.3976,5.4103,5.4103,0.0,4.5966,0.0,0.0,4.6855,0.0,4.6943,4.6792,4.696,4.7752,4.748,4.7292,4.7508,4.7163,4.6587,4.5795,4.5727,4.532,4.4359,4.5184,4.5261,4.427,4.5169,4.5238,4.4242,4.446,4.5186,0.0,4.6432,4.7204,4.8537,4.8328,4.8244,4.8208,4.7505,4.6973,4.6542,4.5787,4.4915,4.4149,4.5884,4.5107,4.3197,4.5876,4.6314,4.5644,4.6798,4.7691,4.8334,4.8521,4.8599,4.8599,4.8599,4.8599,4.8599,4.8599,4.8599,4.8599,4.8599,4.8599,4.8375,4.7441,4.7038,4.6645,4.5711,4.4707,4.3998,4.3998,4.3423,4.3197,4.4139,4.4139,4.4326,0.0,0.0,0.0,0.0,0.0,0.0,0.0,0.0,0.0,4.682,4.7269,4.7719,4.8256,4.848,4.8599,4.8599,4.8599,4.8599,4.8599,4.8599,4.8599,4.8599,4.8599,4.8599,4.8599,4.8599,4.8599,4.8599,4.8599,4.8599,4.862,4.8939,4.9501,5.0297,5.1352,5.1796,5.1859,5.2586,5.287,5.2934,5.3455,5.3755,5.3882,0.0,0.0,0.0,0.0,0.0,0.0,4.4995,4.4716,4.5235,4.7106,4.6557,4.5995,4.6003,4.5153,4.4568,4.4485,4.4461,4.4429,4.4312,4.4406,4.4017,4.2995,4.3091,4.2671,4.1658,4.2716,4.3773,0.0,0.0,4.714,4.8328,4.8133,4.7679,4.7068,4.7161,4.6233,4.4568,4.4475,4.3894,4.3115,4.4163,4.3894,4.3115,4.5144,4.5326,4.467,4.6542,4.7269,4.7463,4.8297,4.8599,4.8599,4.8599,4.8599,4.8599,4.8599,4.8599,4.8599,4.8599,4.8599,4.8375,4.7441,4.6557,4.5666,4.4684,4.3719,4.3018,4.3018,4.296,4.3197,4.4139,4.36,4.3328,0.0,0.0,0.0,0.0,0.0,0.0,0.0,0.0,0.0,0.0,4.7463,4.8151,4.7398,4.813,4.8599,4.8599,4.8599,4.8599,4.8599,4.8599,4.8599,4.8599,4.8599,4.8599,4.8599,4.8599,4.8599,4.8599,4.8599,4.8599,4.864,4.9072,4.9544,4.9994,5.0769,5.1089,5.1168,5.1843,5.2112,5.2112,5.2175,5.2633,5.3181,0.0,0.0,0.0,0.0,0.0,0.0,0.0,4.4345,4.4591,4.5386,4.5144,4.49,4.49,4.4531,4.4055,4.345,4.3402,4.3153,4.2528,4.3057,4.2937,4.1929,4.249,4.2333,4.1311,4.1756,4.256,0.0,0.0,0.0,4.7204,4.6973,4.6557,4.5966,4.5457,4.4863,4.4266,4.3695,4.3245,4.2984,4.3928,4.3729,4.3056,4.4396,4.5015,4.5289,4.6092,4.7081,4.8109,4.848,4.8599,4.8599,4.8599,4.8599,4.8599,4.8599,4.8599,4.8599,4.8599,4.8193,4.7527,4.6601,4.5629,4.4661,4.3671,4.3173,4.2911,4.2911,4.2911,4.3018,4.3399,4.3149,4.3018,4.3399,0.0,0.0,0.0,0.0,0.0,0.0,0.0,0.0,0.0,4.6122,4.6994,4.7183,0.0,0.0,4.8599,4.8599,4.8599,4.8599,4.8599,4.8599,4.8599,4.8599,4.8599,4.8599,4.8599,4.8599,4.8599,4.8599,4.8682,4.8857,4.9295,4.9577,4.9753,5.0172,5.0342,5.0405,5.1116,5.1405,5.1433,5.1859,5.2186,5.2444,4.4651,0.0,4.4377,0.0,4.398,4.3933,4.3487,4.3416,4.3416,4.3416,4.3416,4.3535,4.3843,4.3583,4.3143,4.2431,4.2357,4.2052,4.1336,4.1954,4.2027,4.1336,4.1978,0.0,4.1311,4.1286,4.1855,4.3016,4.3592,0.0,4.5929,4.5907,4.5524,4.4854,4.4275,4.3961,4.3847,4.3173,4.2911,4.296,4.3624,4.3481,4.2984,4.3648,4.4326,4.4984,4.5258,4.6211,4.7426,4.7988,4.8193,4.825,4.85,4.8599,4.8599,4.8599,4.8599,4.8542,4.8256,4.7698,4.6907,4.5674,4.4846,4.4045,4.3115,4.2911,4.2911,4.2911,4.2911,4.2911,4.2911,4.2911,4.2911,4.2911,0.0,0.0,0.0,0.0,0.0,0.0,4.3566,4.3908,4.4266,4.5719,4.6667,4.6777,0.0,0.0,4.8599,4.8599,4.8599,4.8599,4.8599,4.8599,4.8599,4.8599,4.8599,4.8599,4.8599,4.8599,4.8599,4.8682,4.8841,4.9103,4.9452,4.9637,4.9697,4.9836,4.9896,4.9943,5.0469,5.0678,5.0721,5.1211,5.1527,5.1701,4.4298,4.4298,4.4008,4.2985,4.2816,4.249,4.1498,4.1336,4.1336,4.1336,4.1336,4.1708,4.2695,4.1942,4.1336,4.1311,4.1311,4.1311,4.1286,4.1311,4.1311,0.0,0.0,4.1311,4.1286,4.1286,4.1794,4.2792,0.0,0.0,4.4627,4.5161,4.4776,4.3648,4.4092,4.3776,4.2911,4.2911,4.2911,4.2911,4.2911,4.2911,4.2911,4.2911,4.2935,4.3067,4.3975,4.4336,4.4647,4.6564,4.7226,4.7377,4.8297,4.8599,4.8599,4.8599,4.8599,4.8396,4.7463,4.7226,4.674,4.4808,4.4312,4.4045,4.3115,4.2911,4.2911,4.2911,4.2911,4.2911,4.2911,4.2911,4.2911,4.2911,4.2911,0.0,0.0,0.0,0.0,0.0,4.5153,4.5395,4.4406,4.6893,0.0,0.0,0.0,0.0,4.8557,4.8599,4.8599,4.8599,4.8599,4.8599,4.8599,4.8599,4.8599,4.8599,4.8599,4.8599,4.862,4.8877,4.9103,4.9316,4.9517,4.9717,4.9896,4.9896,4.9896,4.9896,4.9912,4.9912,4.9912,4.9927,5.039,5.101,4.3283,4.2733,4.215,4.1819,4.1782,4.1658,4.1336,4.1651,4.1911,4.1911,4.2239,4.2577,4.2909,4.1945,4.1286,0.0,4.1286,4.1286,0.0,4.1286,4.1286,4.1286,4.1286,4.1286,4.1286,4.1286,4.1448,4.1782,0.0,4.2995,4.3365,4.3725,4.3444,4.2604,4.2919,4.3005,4.2911,4.2911,4.2911,4.2911,4.2911,4.2911,4.2911,4.2911,4.3293,4.388,4.4195,4.5138,4.6366,4.6994,4.7634,4.8214,4.8516,4.8599,4.848,4.784,4.8109,4.8256,4.6667,4.6248,4.5921,4.4638,4.3823,4.3269,4.2984,4.2911,4.2911,4.2911,4.2911,4.2911,4.2911,4.2911,4.2911,4.2911,4.2911,0.0,4.2911,0.0,4.3018,4.3317,4.3638,4.3709,4.3375,4.538,0.0,0.0,0.0,4.8277,4.8563,4.7988,4.7925,4.8563,4.8599,4.8599,4.8599,4.8599,4.8599,4.8599,4.8599,4.8697,4.8877,4.9087,4.9295,4.9517,4.9717,4.9836,4.9896,4.9896,4.9896,4.9896,4.9896,4.9896,4.9896,4.9896,5.0038,5.0247,4.257,4.2222,4.1926,4.1926,4.1926,4.1926,4.1926,4.2252,4.2487,4.2487,4.2801,4.2997,4.2997,4.2357,4.1926,4.1926,4.1755,4.1638,4.1638,4.1442,4.1286,4.1286,4.1286,4.1286,4.1286,4.1286,4.1286,4.1286,4.1942,4.2235,4.2235,4.2517,4.2433,4.2103,4.2375,4.2584,4.2741,4.2741,4.2741,4.2741,4.2741,4.2814,4.2911,4.2911,4.3269,4.3776,4.3776,4.4545,4.5652,4.5988,4.6498,4.7045,4.7441,4.7548,4.7505,4.7269,4.7627,4.7655,4.5742,4.5235,4.5007,4.4022,4.3328,4.2911,4.2911,4.2911,4.2911,4.2911,4.2911,4.2911,4.2911,4.2911,4.2911,4.2911,4.2911,4.2911,4.2911,0.0,4.3018,0.0,0.0,4.3576,4.3955,4.5417,4.6337,4.6337,0.0,4.8214,4.8563,4.8046,4.7988,4.8563,4.8599,4.8599,4.8599,4.8599,4.8599,4.8599,4.8697,4.8836,4.8996,4.9291,4.9477,4.9597,4.9797,4.9896,4.9896,4.9896,4.9896,4.9896,4.9896,4.9896,4.9896,4.9896,4.9896,4.9896,4.2251,4.2657,4.2997,4.2997,4.2997,4.2997,4.2997,4.3036,4.3049,4.3049,4.3088,4.3114,4.3114,4.3114,4.3114,4.3114,4.2579,4.2251,4.2251,4.169,4.1376,4.1376,4.1312,4.1286,4.1286,4.1286,4.1286,4.1286,4.1286,4.1286,4.1311,4.1572,4.1845,4.2079,4.2351,4.2473,4.2473,4.2473,4.2473,4.2511,4.2511,4.2644,4.2911,4.2911,4.2911,4.2911,4.2911,4.2935,4.3139,4.3998,4.4359,4.4568,4.5494,4.5801,4.5958,4.6777,4.7038,4.6674,4.4739,4.4242,4.4069,4.3125,4.2911,4.2911,4.2911,4.2911,4.2911,4.2911,4.2911,4.2911,4.2911,4.2911,4.2911,4.2911,4.2911,4.2911,4.2911,4.2911,4.3221,4.4116,4.4195,4.4591,4.5598,4.6557,4.7125,4.7204,0.0,4.7676,4.8542,4.8599,4.8599,4.8599,4.8599,4.8599,4.8599,4.8599,4.8599,4.8599,4.8857,4.8975,4.9016,4.9392,4.9577,4.9597,4.9797,4.9892,4.9896,4.9896,4.9896,4.9896,4.9896,4.9896,4.9896,4.9896,4.9896,4.9896,4.2814,4.2905,4.2997,4.2997,4.2997,4.2997,4.2997,4.3389,4.3703,4.3703,4.4055,4.4303,4.4303,4.4303,4.4303,4.4303,4.3376,4.2814,4.2814,4.2278,4.199,4.199,4.1546,4.1286,4.1286,4.1286,4.1286,4.1286,4.1286,4.1286,4.1311,4.1572,4.1721,4.182,4.2092,4.2177,4.2177,4.2177,4.2313,4.2511,4.2511,4.2644,4.2911,4.2911,4.2911,4.2911,4.2911,4.3352,4.3998,4.4219,4.4823,4.5485,4.5711,4.5801,4.5689,4.5153,4.5539,4.5711,4.3766,4.3752,4.4069,4.3125,4.2911,4.2911,4.2911,4.2911,4.2911,4.2911,4.2911,4.2911,4.2911,4.2911,4.2911,4.2911,4.2911,4.2911,4.2911,4.2911,4.2984,4.3197,4.3221,4.36,4.4568,4.5539,4.6425,4.7161,4.7861,4.8375,4.8599,4.8599,4.8599,4.8599,4.8599,4.8599,4.8599,4.8599,4.8599,4.8599,4.8661,4.88,4.8996,4.9098,4.9306,4.9597,4.9657,4.9757,4.9896,4.9896,4.9896,4.9896,4.9896,4.9896,4.9896,4.9896,4.9896,4.9896,4.3415,4.3624,4.378,4.378,4.378,4.378,4.378,4.4068,4.4264,4.4264,4.4539,4.4695,4.4695,4.4695,4.4695,4.4695,4.3925,4.3415,4.3415,4.2879,4.2565,4.2565,4.2252,4.1952,4.1716,4.1703,4.1585,4.1286,4.1286,4.1286,4.1286,4.1461,4.1572,4.1721,4.1845,4.1906,4.1906,4.1906,4.2067,4.234,4.2621,4.295,4.3346,4.3606,4.3715,4.3715,4.3715,4.4056,4.445,4.4159,4.4431,4.4847,4.4565,4.4466,4.4364,4.3823,4.435,4.48,4.3293,4.3269,4.3529,4.3018,4.2911,4.2911,4.2911,4.2911,4.2911,4.2911,4.2911,4.2911,4.2911,4.2911,4.2911,4.2911,4.2911,4.2911,4.2911,4.2911,4.2911,4.2911,4.3293,4.3918,4.4877,4.5854,4.682,4.7776,4.8297,4.8599,4.8599,4.8599,4.8599,4.8599,4.8599,4.8599,4.8599,4.8599,4.8599,4.8599,4.8718,4.8857,4.8996,4.9103,4.9311,4.9597,4.9597,4.9717,4.9896,4.9896,4.9896,4.9896,4.9896,4.9896,4.9896,4.9896,4.9896,4.9896,4.403,4.4395,4.4695,4.4695,4.4695,4.4695,4.4695,4.4695,4.4695,4.4695,4.4695,4.4695,4.4695,4.4695,4.4695,4.4695,4.4278,4.403,4.403,4.3467,4.3127,4.3127,4.3049,4.2788,4.233,4.2317,4.2056,4.1547,4.1547,4.1547,4.1547,4.1547,4.1673,4.191,4.191,4.191,4.191,4.191,4.2047,4.2335,4.2854,4.3394,4.3909,4.4426,4.4654,4.4705,4.4705,4.4705,4.4624,4.4119,4.3875,4.3712,4.321,4.2979,4.2911,4.2911,4.3471,4.3904,4.3115,4.2911,4.2911,4.2911,4.2911,4.2911,4.2911,4.2911,4.2911,4.2911,4.2911,4.2911,4.2911,4.2911,4.2911,4.2911,4.2911,4.2911,4.2911,4.2911,4.2911,4.2911,4.36,4.4475,4.5485,4.6447,4.7377,4.8334,4.8521,4.8599,4.8599,4.8599,4.8599,4.8599,4.8599,4.8599,4.8599,4.8599,4.8599,4.8599,4.8836,4.8934,4.8955,4.9149,4.9356,4.9557,4.9577,4.9717,4.9896,4.9896,4.9896,4.9896,4.9896,4.9896,4.9896,4.9896,4.9896,4.9896,4.4564,4.4643,4.4695,4.4695,4.4695,4.4695,4.4695,4.4695,4.4695,4.4695,4.4695,4.4695,4.4695,4.4695,4.4695,4.4695,4.4616,4.4564,4.4564,4.4055,4.3768,4.3768,4.3271,4.2958,4.2866,4.2892,4.2814,4.2736,4.2736,4.2736,4.2736,4.2736,4.2762,4.28,4.28,4.28,4.28,4.28,4.2955,4.3212,4.3305,4.3653,4.4163,4.4232,4.4464,4.4705,4.4705,4.4705,4.4691,4.4596,4.4203,4.378,4.3685,4.3318,4.2911,4.2911,4.2994,4.3091,4.2935,4.2911,4.2911,4.2911,4.2911,4.2911,4.2911,4.2911,4.2911,4.2911,4.2911,4.2911,4.2911,4.2911,4.2911,4.2911,4.2911,4.2911,4.2911,4.2911,4.2911,4.2911,4.3018,4.3495,4.4429,4.5426,4.6403,4.7355,4.8151,4.8599,4.8599,4.8599,4.8599,4.8599,4.8599,4.8599,4.8599,4.8599,4.8599,4.8599,4.864,4.8661,4.8661,4.8939,4.9164,4.9356,4.9517,4.9717,4.9896,4.9896,4.9896,4.9896,4.9896,4.9896,4.9896,4.9896,4.9896,4.9896,4.4695,4.4695,4.4695,4.4695,4.4695,4.4695,4.4695,4.4695,4.4695,4.4695,4.4695,4.4695,4.4695,4.4695,4.4695,4.4695,4.4695,4.4695,4.4695,4.4487,4.433,4.433,4.4055,4.3767,4.348,4.318,4.2997,4.2997,4.2997,4.2997,4.2997,4.2997,4.2997,4.2997,4.2997,4.2997,4.2997,4.2997,4.314,4.3426,4.3755,4.4199,4.4718,4.5067,4.5369,4.5655,4.5655,4.5655,4.5614,4.5288,4.499,4.4662,4.3997,4.3603,4.3318,4.3006,4.2911,4.2911,4.2911,4.2911,4.2911,4.2911,4.2911,4.2911,4.2911,4.2911,4.2911,4.2911,4.2911,4.2911,4.2911,4.2911,4.2911,4.2911,4.2911,4.2911,4.2911,4.2911,4.2911,4.2911,4.3352,4.3823,4.4266,4.5674,4.6535,4.6447,4.7776,4.8375,4.7861,4.8334,4.8599,4.8599,4.8599,4.8599,4.8599,4.8599,4.8599,4.8599,4.8599,4.8599,4.862,4.8877,4.9103,4.9316,4.9517,4.9717,4.9896,4.9896,4.9896,4.9896,4.9896,4.9896,4.9896,4.9896,4.9896,4.9896,4.4695,4.4695,4.4695,4.4695,4.4695,4.4695,4.4695,4.4695,4.4695,4.4695,4.4695,4.4695,4.4695,4.4695,4.4695,4.4695,4.4695,4.4695,4.4695,4.4695,4.4695,4.4695,4.4695,4.4526,4.4108,4.3637,4.3389,4.3389,4.3389,4.3389,4.3389,4.3389,4.3389,4.3389,4.3389,4.3389,4.3389,4.3389,4.352,4.373,4.4204,4.4705,4.5166,4.5634,4.6047,4.6376,4.6376,4.6442,4.6427,4.5979,4.5709,4.5397,4.435,4.3916,4.3685,4.3088,4.2911,4.2911,4.2911,4.2911,4.2911,4.2911,4.2911,4.2911,4.2911,4.2911,4.2911,4.2911,4.2911,4.2911,4.2911,4.2911,4.2911,4.2911,4.2911,4.2911,4.2911,4.2911,4.2984,4.3197,4.3871,4.4406,4.4638,4.6211,4.6907,4.6181,4.7655,4.8292,4.757,4.8214,4.8599,4.8599,4.8599,4.8599,4.8599,4.8599,4.8599,4.8599,4.8599,4.8599,4.862,4.8877,4.9103,4.9316,4.9517,4.9717,4.9896,4.9896,4.9896,4.9896,4.9896,4.9896,4.9896,4.9896,4.9896,4.9896,4.4695,4.4695,4.4695,4.4695,4.4695,4.4695,4.4695,4.4695,4.4695,4.4695,4.4695,4.4695,4.4695,4.4695,4.4695,4.4695,4.4695,4.4695,4.4695,4.4695,4.4695,4.4695,4.4695,4.4682,4.4643,4.459,4.4577,4.4577,4.4577,4.4577,4.4577,4.4577,4.4577,4.4577,4.4577,4.4577,4.4577,4.4577,4.4577,4.4604,4.4643,4.4886,4.5208,4.5247,4.5569,4.6047,4.6047,4.6245,4.6495,4.6454,4.6074,4.5478,4.4841,4.4244,4.3685,4.3088,4.2911,4.2911,4.2911,4.2911,4.2911,4.2911,4.2911,4.2911,4.2911,4.2911,4.2911,4.2911,4.2911,4.2911,4.2911,4.2911,4.2911,4.2911,4.2911,4.2911,4.2911,4.2911,4.3221,4.4092,4.4266,4.4684,4.5598,4.6601,4.7168,4.7103,4.803,4.8563,4.85,4.8563,4.8599,4.8599,4.8599,4.8599,4.8599,4.8599,4.8599,4.8599,4.8599,4.8599,4.862,4.8877,4.9103,4.9316,4.9517,4.9717,4.9896,4.9896,4.9896,4.9896,4.9896,4.9896,4.9896,4.9896,4.9896,4.9896,4.4695,4.4695,4.4695,4.4695,4.4695,4.4695,4.4695,4.4695,4.4695,4.4695,4.4695,4.4695,4.4695,4.4695,4.4695,4.4695,4.4695,4.4695,4.4695,4.4695,4.4695,4.4695,4.4695,4.4695,4.4695,4.4695,4.4695,4.4695,4.4695,4.4695,4.4695,4.4695,4.4695,4.4695,4.4695,4.4695,4.4695,4.4695,4.4695,4.4695,4.4695,4.4897,4.5207,4.5207,4.5528,4.6007,4.6007,4.6218,4.6495,4.6495,4.6359,4.6061,4.5438,4.4841,4.4162,4.3196,4.2911,4.2911,4.2911,4.2911,4.2911,4.2911,4.2911,4.2911,4.2911,4.2911,4.2911,4.2911,4.2911,4.2911,4.2911,4.2911,4.2911,4.2911,4.2911,4.2911,4.2911,4.2911,4.3018,4.3399,4.3423,4.38,4.4776,4.5764,4.6337,4.6337,4.7204,4.7734,4.7734,4.8277,4.8599,4.8599,4.8599,4.8599,4.8599,4.8599,4.8599,4.8599,4.8599,4.8599,4.862,4.8877,4.9103,4.9316,4.9517,4.9717,4.9896,4.9896,4.9896,4.9896,4.9896,4.9896,4.9896,4.9896,4.9896,4.9896,4.4695,4.4695,4.4695,4.4695,4.4695,4.4695,4.4695,4.4695,4.4695,4.4695,4.4695,4.4695,4.4695,4.4695,4.4695,4.4695,4.4695,4.4695,4.4695,4.4695,4.4695,4.4695,4.4695,4.4695,4.4695,4.4695,4.4695,4.4695,4.4695,4.4695,4.4695,4.4695,4.4695,4.4695,4.4695,4.4695,4.4695,4.4695,4.4695,4.4695,4.4695,4.4843,4.5045,4.5045,4.5328,4.5755,4.5755,4.5954,4.6232,4.6297,4.6324,4.6255,4.5751,4.5044,4.4217,4.321,4.2911,4.2911,4.2911,4.2911,4.2911,4.2911,4.2911,4.2911,4.2911,4.2911,4.2911,4.2911,4.2911,4.2911,4.2911,4.2911,4.2911,4.2911,4.2911,4.2911,4.2911,4.2911,4.3008,4.3317,4.3328,4.3823,4.5107,4.5832,4.6359,4.6667,4.7291,4.7649,4.7649,4.8256,4.8599,4.8599,4.8599,4.8599,4.8599,4.8599,4.8599,4.8599,4.8599,4.8599,4.862,4.878,4.9001,4.921,4.9351,4.9573,4.9812,4.9812,4.9836,4.9896,4.9896,4.9896,4.9896,4.9896,4.9896,4.9896,4.4695,4.4695,4.4695,4.4695,4.4695,4.4695,4.4695,4.4695,4.4695,4.4695,4.4695,4.4695,4.4695,4.4695,4.4695,4.4695,4.4695,4.4695,4.4695,4.4695,4.4695,4.4695,4.4695,4.4695,4.4695,4.4695,4.4695,4.4695,4.4695,4.4695,4.4695,4.4695,4.4695,4.4695,4.4695,4.4695,4.4695,4.4695,4.4695,4.4695,4.4695,4.4695,4.4695,4.4695,4.4897,4.5207,4.5207,4.5368,4.5649,4.5914,4.6007,4.5965,4.5686,4.4785,4.3685,4.3088,4.2911,4.2911,4.2911,4.2911,4.2911,4.2911,4.2911,4.2911,4.2911,4.2911,4.2911,4.2911,4.2911,4.2911,4.2911,4.2911,4.2911,4.2911,4.2911,4.2911,4.2911,4.2911,4.3269,4.4195,4.4312,4.507,4.7016,4.7204,4.7591,4.8521,4.8599,4.8599,4.8599,4.8599,4.8599,4.8599,4.8599,4.8599,4.8599,4.8599,4.8599,4.8599,4.8599,4.8599,4.8599,4.8599,4.8759,4.8996,4.8996,4.9225,4.9597,4.9597,4.9717,4.9896,4.9896,4.9896,4.9896,4.9896,4.9896,4.9896,4.4695,4.4695,4.4695,4.4695,4.4695,4.4695,4.4695,4.4695,4.4695,4.4695,4.4695,4.4695,4.4695,4.4695,4.4695,4.4695,4.4695,4.4695,4.4695,4.4695,4.4695,4.4695,4.4695,4.4695,4.4695,4.4695,4.4695,4.4695,4.4695,4.4695,4.4695,4.4695,4.4695,4.4695,4.4695,4.4695,4.4695,4.4695,4.4695,4.4695,4.4695,4.4695,4.4695,4.4695,4.4897,4.5207,4.5207,4.5502,4.5888,4.5967,4.6152,4.6255,4.5751,4.5058,4.4298,4.3712,4.3237,4.2911,4.2911,4.2911,4.2911,4.2911,4.2911,4.2911,4.2911,4.2911,4.2911,4.2911,4.2911,4.2911,4.2911,4.2911,4.2911,4.2911,4.2911,4.2911,4.2911,4.3471,4.3975,4.4266,4.4938,4.5832,4.7081,4.7204,4.7591,4.8521,4.8599,4.8297,4.7655,4.7612,4.7925,4.8563,4.7946,4.7925,4.8599,4.8599,4.8599,4.8599,4.8599,4.8599,4.8599,4.8599,4.8759,4.8996,4.8996,4.9225,4.9597,4.9597,4.9717,4.9896,4.9896,4.9896,4.9896,4.9896,4.9896,4.9896,4.4695,4.4695,4.4695,4.4695,4.4695,4.4695,4.4695,4.4695,4.4695,4.4695,4.4695,4.4695,4.4695,4.4695,4.4695,4.4695,4.4695,4.4695,4.4695,4.4695,4.4695,4.4695,4.4695,4.4695,4.4695,4.4695,4.4695,4.4695,4.4695,4.4695,4.4695,4.4695,4.4695,4.4695,4.4695,4.4695,4.4695,4.4695,4.4695,4.4695,4.4695,4.4695,4.4695,4.4695,4.4816,4.4991,4.4991,4.5221,4.5529,4.5755,4.6139,4.6386,4.5803,4.5193,4.4583,4.3984,4.3373,4.2911,4.2911,4.2911,4.2911,4.2911,4.2911,4.2911,4.2911,4.2911,4.2911,4.2911,4.2911,4.2911,4.2911,4.2911,4.2911,4.2911,4.3221,4.3317,4.296,4.4059,4.4739,4.4359,4.519,4.6181,4.7103,4.7204,4.7591,4.8521,4.8599,4.8339,4.7776,4.7755,4.8009,4.8563,4.8046,4.8024,4.8599,4.8599,4.8599,4.8599,4.8599,4.8599,4.8599,4.8599,4.8682,4.8836,4.8836,4.9087,4.9477,4.9477,4.9637,4.9896,4.9896,4.9896,4.9896,4.9896,4.9896,4.9896,4.4695,4.4695,4.4695,4.4695,4.4695,4.4695,4.4695,4.4695,4.4695,4.4695,4.4695,4.4695,4.4695,4.4695,4.4695,4.4695,4.4695,4.4695,4.4695,4.4695,4.4695,4.4695,4.4695,4.4695,4.4695,4.4695,4.4695,4.4695,4.4695,4.4695,4.4695,4.4695,4.4695,4.4695,4.4695,4.4695,4.4695,4.4695,4.4695,4.4695,4.4695,4.4695,4.4695,4.4695,4.4695,4.4695,4.4695,4.4722,4.4843,4.5435,4.6034,4.64,4.5857,4.5261,4.4664,4.4065,4.3454,4.2979,4.2925,4.2911,4.2911,4.2911,4.2911,4.2911,4.2911,4.2911,4.2911,4.2911,4.2911,4.2911,4.2911,4.2911,4.2911,4.2911,4.3624,4.3894,4.3018,4.4582,4.5463,4.4531,4.538,4.6381,4.7233,4.7334,4.7676,4.8542,4.8599,4.8599,4.8599,4.8521,4.85,4.8599,4.8521,4.8537,4.8599,4.8599,4.8599,4.8599,4.8599,4.8599,4.8599,4.8599,4.8599,4.8599,4.864,4.8888,4.9295,4.9316,4.9557,4.9896,4.9896,4.9896,4.9896,4.9896,4.9896,4.9896,4.4695,4.4695,4.4695,4.4695,4.4695,4.4695,4.4695,4.4695,4.4695,4.4695,4.4695,4.4695,4.4695,4.4695,4.4695,4.4695,4.4695,4.4695,4.4695,4.4695,4.4695,4.4695,4.4695,4.4695,4.4695,4.4695,4.4695,4.4695,4.4695,4.4695,4.4695,4.4695,4.4695,4.4695,4.4695,4.4695,4.4695,4.4695,4.4695,4.4695,4.4695,4.4695,4.4695,4.4695,4.4695,4.4695,4.4695,4.487,4.518,4.5728,4.6166,4.6481,4.6359,4.5898,4.5275,4.4678,4.4092,4.3508,4.3033,4.2911,4.2911,4.2911,4.2911,4.2911,4.2911,4.2911,4.2911,4.2911,4.2911,4.2911,4.2911,4.2911,4.2911,4.2911,4.3067,4.3125,4.2935,4.4582,4.5711,4.5508,4.6973,4.8072,4.8292,4.8313,4.8375,4.8563,4.8599,4.8599,4.8599,4.7904,4.784,4.8578,4.7882,4.7861,4.8599,4.8599,4.8599,4.8599,4.8599,4.8599,4.8599,4.8599,4.8599,4.862,4.8816,4.9047,4.9316,4.9477,4.9677,4.9896,4.9896,4.9896,4.9896,4.9896,4.9896,4.9896,4.4695,4.4695,4.4695,4.4695,4.4695,4.4695,4.4695,4.4695,4.4695,4.4695,4.4695,4.4695,4.4695,4.4695,4.4695,4.4695,4.4695,4.4695,4.4695,4.4695,4.4695,4.4695,4.4695,4.4695,4.4695,4.4695,4.4695,4.4695,4.4695,4.4695,4.4695,4.4695,4.4695,4.4695,4.4695,4.4695,4.4695,4.4695,4.4695,4.4695,4.4695,4.4695,4.4695,4.4695,4.4695,4.4695,4.4695,4.5005,4.5448,4.5861,4.6218,4.6495,4.6495,4.6101,4.5478,4.4881,4.4257,4.3671,4.3074,4.2911,4.2911,4.2911,4.2911,4.2911,4.2911,4.2911,4.2911,4.2911,4.2911,4.2911,4.2911,4.2911,4.2911,4.2911,4.3293,4.3399,4.296,4.4582,4.5621,4.513,4.6762,4.8109,4.8557,4.8193,4.813,4.8578,4.8599,4.8599,4.8599,4.813,4.8088,4.8563,4.7691,4.7655,4.8599,4.8151,4.8151,4.8599,4.8599,4.8599,4.8599,4.8599,4.8599,4.862,4.8759,4.9006,4.9316,4.9416,4.9577,4.9757,4.9856,4.9836,4.9757,4.9856,4.9896,4.9896,4.4695,4.4695,4.4695,4.4695,4.4695,4.4695,4.4695,4.4695,4.4695,4.4695,4.4695,4.4695,4.4695,4.4695,4.4695,4.4695,4.4695,4.4695,4.4695,4.4695,4.4695,4.4695,4.4695,4.4695,4.4695,4.4695,4.4695,4.4695,4.4695,4.4695,4.4695,4.4695,4.4695,4.4695,4.4695,4.4695,4.4695,4.4695,4.4695,4.4695,4.4695,4.4695,4.4695,4.4695,4.4695,4.4695,4.4695,4.5086,4.5649,4.5914,4.6218,4.6495,4.6495,4.6169,4.5628,4.5031,4.442,4.3821,4.3223,4.2993,4.2911,4.2911,4.2911,4.2911,4.2911,4.2911,4.2911,4.2911,4.2911,4.2911,4.2911,4.2911,4.2911,4.2911,4.3553,4.38,4.3018,4.442,4.5304,4.4638,4.6263,4.7755,4.8521,4.7904,4.7755,4.8542,4.8599,4.8599,4.8599,4.8599,4.8599,4.8599,4.784,4.7819,4.8599,4.784,4.784,4.8599,4.8599,4.8599,4.8599,4.8599,4.8599,4.8599,4.864,4.8888,4.9235,4.9295,4.9396,4.9577,4.9777,4.9737,4.9617,4.9817,4.9896,4.9896,4.4695,4.4695,4.4695,4.4695,4.4695,4.4695,4.4695,4.4695,4.4695,4.4695,4.4695,4.4695,4.4695,4.4695,4.4695,4.4695,4.4695,4.4695,4.4695,4.4695,4.4695,4.4695,4.4695,4.4695,4.4695,4.4695,4.4695,4.4695,4.4695,4.4695,4.4695,4.4695,4.4695,4.4695,4.4695,4.4695,4.4695,4.4695,4.4695,4.4695,4.4695,4.4695,4.4695,4.4695,4.4695,4.4695,4.4695,4.5086,4.5649,4.5914,4.6218,4.6495,4.6495,4.6441,4.6264,4.5655,4.5044,4.4447,4.3848,4.3305,4.2911,4.2911,4.2911,4.2911,4.2911,4.2911,4.2911,4.2911,4.2911,4.2911,4.2911,4.2911,4.2911,4.2911,4.3008,4.3043,4.2911,4.3823,4.4776,4.5508,4.7254,4.8459,4.8599,4.848,4.8459,4.8599,4.8599,4.8599,4.8599,4.8599,4.8599,4.8599,4.848,4.8459,4.8599,4.848,4.848,4.8599,4.8599,4.8599,4.8599,4.8599,4.8599,4.862,4.8857,4.8975,4.9057,4.923,4.9316,4.9356,4.9557,4.9617,4.9617,4.9817,4.9896,4.9896,4.4695,4.4695,4.4695,4.4695,4.4695,4.4695,4.4695,4.4695,4.4695,4.4695,4.4695,4.4695,4.4695,4.4695,4.4695,4.4695,4.4695,4.4695,4.4695,4.4695,4.4695,4.4695,4.4695,4.4695,4.4695,4.4695,4.4695,4.4695,4.4695,4.4695,4.4695,4.4695,4.4695,4.4695,4.4695,4.4695,4.4695,4.4695,4.4695,4.4695,4.4695,4.4695,4.4695,4.4695,4.4695,4.4749,4.5086,4.5381,4.5689,4.6139,4.639,4.6495,4.6495,4.6495,4.6386,4.5789,4.5166,4.4569,4.397,4.3359,4.2911,4.2911,4.2911,4.2911,4.2911,4.2911,4.2911,4.2911,4.2911,4.2911,4.2911,4.2911,4.2911,4.2911,4.2911,4.3091,4.36,4.4045,4.4877,4.6403,4.6842,4.7441,4.85,4.813,4.8046,4.8557,4.8599,4.8599,4.8599,4.8599,4.8599,4.8599,4.8088,4.8067,4.8599,4.8088,4.8088,4.8599,4.8599,4.8599,4.8599,4.8599,4.8599,4.862,4.8738,4.8857,4.8996,4.9103,4.9144,4.9149,4.9493,4.9657,4.9777,4.9856,4.9896,4.9896]},{"header":{"parameterUnit":"m.s-1","parameterCategory":1,"la1":30.6,"la2":28.766,"lo1":-90.7593,"lo2":-88.6598,"dy":0.0162,"dx":0.0183,"nx":116,"ny":114,"refTime":"2024-05-06T00:00:00:Z","depth":0,"parameterNumber":3,"parameterNumberName":"V-component_of_WINDS"},"data":[0.0,0.0,0.0,0.0,0.0,0.0,0.0,0.0,0.0,0.0,0.0,0.0,0.0,0.0,0.0,0.0,0.0,0.0,0.0,0.0,0.0,0.0,0.0,0.0,0.0,0.0,0.0,0.0,0.0,0.0,0.0,0.0,0.0,0.0,0.0,0.0,0.0,0.0,0.0,0.0,0.0,0.0,0.0,0.0,0.0,0.0,0.0,0.0,0.0,0.0,0.0,0.0,0.0,0.0,0.0,0.0,0.0,0.0,0.0,0.0,0.0,0.0,0.0,0.0,0.0,0.0,0.0,0.0,0.0,0.0,0.0,0.0,0.0,0.0,0.0,0.0,0.0,0.0,0.0,0.0,0.0,0.0,0.0,0.0,0.0,0.0,0.0,0.0,0.0,0.0,0.0,0.0,0.0,0.0,0.0,0.0,0.0,0.0,0.0,0.0,0.0,0.0,0.0,0.0,0.0,0.0,0.0,0.0,0.0,0.0,0.0,0.0,0.0,0.0,0.0,0.0,0.0,0.0,0.0,0.0,0.0,0.0,0.0,0.0,0.0,0.0,0.0,0.0,0.0,0.0,0.0,0.0,0.0,0.0,0.0,0.0,0.0,0.0,0.0,0.0,0.0,0.0,0.0,0.0,0.0,0.0,0.0,0.0,0.0,0.0,0.0,0.0,0.0,0.0,0.0,0.0,0.0,0.0,0.0,0.0,0.0,0.0,0.0,0.0,0.0,0.0,0.0,0.0,0.0,0.0,0.0,0.0,0.0,0.0,0.0,0.0,0.0,0.0,0.0,0.0,0.0,0.0,0.0,0.0,0.0,0.0,0.0,0.0,0.0,0.0,0.0,0.0,0.0,0.0,0.0,0.0,0.0,0.0,0.0,0.0,0.0,0.0,0.0,0.0,0.0,0.0,0.0,0.0,0.0,0.0,0.0,0.0,0.0,0.0,0.0,0.0,0.0,0.0,0.0,0.0,0.0,0.0,0.0,0.0,0.0,0.0,0.0,0.0,0.0,0.0,0.0,0.0,0.0,0.0,0.0,0.0,0.0,0.0,0.0,0.0,0.0,0.0,0.0,0.0,0.0,0.0,0.0,0.0,0.0,0.0,0.0,0.0,0.0,0.0,0.0,0.0,0.0,0.0,0.0,0.0,0.0,0.0,0.0,0.0,0.0,0.0,0.0,0.0,0.0,0.0,0.0,0.0,0.0,0.0,0.0,0.0,0.0,0.0,0.0,0.0,0.0,0.0,0.0,0.0,0.0,0.0,0.0,0.0,0.0,0.0,0.0,0.0,0.0,0.0,0.0,0.0,0.0,0.0,0.0,0.0,0.0,0.0,0.0,0.0,0.0,0.0,0.0,0.0,0.0,0.0,0.0,0.0,0.0,0.0,0.0,0.0,0.0,0.0,0.0,0.0,0.0,0.0,0.0,0.0,0.0,0.0,0.0,0.0,0.0,0.0,0.0,0.0,0.0,0.0,0.0,0.0,0.0,0.0,0.0,0.0,0.0,0.0,0.0,0.0,0.0,0.0,0.0,0.0,0.0,0.0,0.0,0.0,0.0,0.0,0.0,0.0,0.0,0.0,0.0,0.0,0.0,0.0,0.0,0.0,0.0,0.0,0.0,0.0,0.0,0.0,0.0,0.0,0.0,0.0,0.0,0.0,0.0,0.0,0.0,0.0,0.0,0.0,0.0,0.0,0.0,0.0,0.0,0.0,0.0,0.0,0.0,0.0,0.0,0.0,0.0,0.0,0.0,0.0,0.0,0.0,0.0,0.0,0.0,0.0,0.0,0.0,0.0,0.0,0.0,0.0,0.0,0.0,0.0,0.0,0.0,0.0,0.0,0.0,0.0,0.0,0.0,0.0,0.0,0.0,0.0,0.0,0.0,0.0,0.0,0.0,0.0,0.0,0.0,0.0,0.0,0.0,0.0,0.0,0.0,0.0,0.0,0.0,0.0,0.0,0.0,0.0,0.0,0.0,0.0,0.0,0.0,0.0,0.0,0.0,0.0,0.0,0.0,0.0,0.0,0.0,0.0,0.0,0.0,0.0,0.0,0.0,0.0,0.0,0.0,0.0,0.0,0.0,0.0,0.0,0.0,0.0,0.0,0.0,0.0,0.0,0.0,0.0,0.0,0.0,0.0,0.0,0.0,0.0,0.0,0.0,0.0,0.0,0.0,0.0,0.0,0.0,0.0,0.0,0.0,0.0,0.0,0.0,0.0,0.0,0.0,0.0,0.0,0.0,0.0,0.0,0.0,0.0,0.0,0.0,0.0,0.0,0.0,0.0,0.0,0.0,0.0,0.0,0.0,0.0,0.0,0.0,0.0,0.0,0.0,0.0,0.0,0.0,0.0,0.0,0.0,0.0,0.0,0.0,0.0,0.0,0.0,0.0,0.0,0.0,0.0,0.0,0.0,0.0,0.0,0.0,0.0,0.0,0.0,0.0,0.0,0.0,0.0,0.0,0.0,0.0,0.0,0.0,0.0,0.0,0.0,0.0,0.0,0.0,0.0,0.0,0.0,0.0,0.0,0.0,0.0,0.0,0.0,0.0,0.0,0.0,0.0,0.0,0.0,0.0,0.0,0.0,0.0,0.0,0.0,0.0,0.0,0.0,0.0,0.0,0.0,0.0,0.0,0.0,0.0,0.0,0.0,0.0,0.0,0.0,0.0,0.0,0.0,0.0,0.0,0.0,0.0,0.0,0.0,0.0,0.0,0.0,0.0,0.0,0.0,0.0,0.0,0.0,0.0,0.0,0.0,0.0,0.0,0.0,0.0,0.0,0.0,0.0,0.0,0.0,0.0,0.0,0.0,0.0,0.0,0.0,0.0,0.0,0.0,0.0,0.0,0.0,0.0,0.0,0.0,0.0,0.0,0.0,0.0,0.0,0.0,0.0,0.0,0.0,0.0,0.0,0.0,0.0,0.0,0.0,0.0,0.0,0.0,0.0,0.0,0.0,0.0,0.0,0.0,0.0,0.0,0.0,0.0,0.0,0.0,0.0,0.0,0.0,0.0,0.0,0.0,0.0,0.0,0.0,0.0,0.0,0.0,0.0,0.0,0.0,0.0,0.0,0.0,0.0,0.0,0.0,0.0,0.0,0.0,0.0,0.0,0.0,0.0,0.0,0.0,0.0,0.0,0.0,0.0,0.0,0.0,0.0,0.0,0.0,0.0,0.0,0.0,0.0,0.0,0.0,0.0,0.0,0.0,0.0,0.0,0.0,0.0,0.0,0.0,0.0,0.0,0.0,0.0,0.0,0.0,0.0,0.0,0.0,0.0,0.0,0.0,0.0,0.0,0.0,0.0,0.0,0.0,0.0,0.0,0.0,0.0,0.0,0.0,0.0,0.0,0.0,0.0,0.0,0.0,0.0,0.0,0.0,0.0,0.0,0.0,0.0,0.0,0.0,0.0,0.0,0.0,0.0,0.0,0.0,0.0,0.0,0.0,0.0,0.0,0.0,0.0,0.0,0.0,0.0,0.0,0.0,0.0,0.0,0.0,0.0,0.0,0.0,0.0,0.0,0.0,0.0,0.0,0.0,0.0,0.0,0.0,0.0,0.0,0.0,0.0,0.0,0.0,0.0,0.0,0.0,0.0,0.0,0.0,0.0,0.0,0.0,0.0,0.0,0.0,0.0,0.0,0.0,0.0,0.0,0.0,0.0,0.0,0.0,0.0,0.0,0.0,0.0,0.0,0.0,0.0,0.0,0.0,0.0,0.0,0.0,0.0,0.0,0.0,0.0,0.0,0.0,0.0,0.0,0.0,0.0,0.0,0.0,0.0,0.0,0.0,0.0,0.0,0.0,0.0,0.0,0.0,0.0,0.0,0.0,0.0,0.0,0.0,0.0,0.0,0.0,0.0,0.0,0.0,0.0,0.0,0.0,0.0,0.0,0.0,0.0,0.0,0.0,0.0,0.0,0.0,0.0,0.0,0.0,0.0,0.0,0.0,0.0,0.0,0.0,0.0,0.0,0.0,0.0,0.0,0.0,0.0,0.0,0.0,0.0,0.0,0.0,0.0,0.0,0.0,0.0,0.0,0.0,0.0,0.0,0.0,0.0,0.0,0.0,0.0,0.0,0.0,0.0,0.0,0.0,0.0,0.0,0.0,0.0,0.0,0.0,0.0,0.0,0.0,0.0,0.0,0.0,0.0,0.0,0.0,0.0,0.0,0.0,0.0,0.0,0.0,0.0,0.0,0.0,0.0,0.0,0.0,0.0,0.0,0.0,0.0,0.0,0.0,0.0,0.0,0.0,0.0,0.0,0.0,0.0,0.0,0.0,0.0,0.0,0.0,0.0,0.0,0.0,0.0,0.0,0.0,0.0,0.0,0.0,0.0,0.0,0.0,0.0,0.0,0.0,0.0,0.0,0.0,0.0,0.0,0.0,0.0,0.0,0.0,0.0,0.0,0.0,0.0,0.0,0.0,0.0,0.0,0.0,0.0,0.0,0.0,0.0,0.0,0.0,0.0,0.0,0.0,0.0,0.0,0.0,0.0,0.0,0.0,0.0,0.0,0.0,0.0,0.0,0.0,0.0,0.0,0.0,0.0,0.0,0.0,0.0,0.0,0.0,0.0,0.0,0.0,0.0,0.0,0.0,0.0,0.0,0.0,0.0,0.0,0.0,0.0,0.0,0.0,0.0,0.0,0.0,0.0,0.0,0.0,0.0,0.0,0.0,0.0,0.0,0.0,0.0,0.0,0.0,0.0,0.0,0.0,0.0,0.0,0.0,0.0,0.0,0.0,0.0,0.0,0.0,0.0,0.0,0.0,0.0,0.0,0.0,0.0,0.0,0.0,0.0,0.0,0.0,0.0,0.0,0.0,0.0,0.0,0.0,0.0,0.0,0.0,0.0,0.0,0.0,0.0,0.0,0.0,0.0,0.0,0.0,0.0,0.0,0.0,0.0,0.0,0.0,0.0,0.0,0.0,0.0,0.0,0.0,0.0,0.0,0.0,0.0,0.0,0.0,0.0,0.0,0.0,0.0,0.0,0.0,0.0,0.0,0.0,0.0,0.0,0.0,0.0,0.0,0.0,0.0,0.0,0.0,0.0,0.0,0.0,0.0,0.0,0.0,0.0,0.0,0.0,0.0,0.0,0.0,0.0,0.0,0.0,0.0,0.0,0.0,0.0,0.0,0.0,0.0,0.0,0.0,0.0,0.0,0.0,0.0,0.0,0.0,0.0,0.0,0.0,0.0,0.0,0.0,0.0,0.0,0.0,0.0,0.0,0.0,0.0,0.0,0.0,0.0,0.0,0.0,0.0,0.0,0.0,0.0,0.0,0.0,0.0,0.0,0.0,0.0,0.0,0.0,0.0,0.0,0.0,0.0,0.0,0.0,0.0,0.0,0.0,0.0,0.0,0.0,0.0,0.0,0.0,0.0,0.0,0.0,0.0,0.0,0.0,0.0,0.0,0.0,0.0,0.0,0.0,0.0,0.0,0.0,0.0,0.0,0.0,0.0,0.0,0.0,0.0,0.0,0.0,0.0,0.0,0.0,0.0,0.0,0.0,0.0,0.0,0.0,0.0,0.0,0.0,0.0,0.0,0.0,0.0,0.0,0.0,0.0,0.0,0.0,0.0,0.0,0.0,0.0,0.0,0.0,0.0,0.0,0.0,0.0,0.0,0.0,0.0,0.0,0.0,0.0,0.0,0.0,0.0,0.0,0.0,0.0,0.0,0.0,0.0,0.0,0.0,0.0,0.0,0.0,0.0,0.0,0.0,0.0,0.0,0.0,0.0,0.0,0.0,0.0,0.0,0.0,0.0,0.0,0.0,0.0,0.0,0.0,0.0,0.0,0.0,0.0,0.0,0.0,0.0,0.0,0.0,0.0,0.0,0.0,0.0,0.0,0.0,0.0,0.0,0.0,0.0,0.0,0.0,0.0,0.0,0.0,0.0,0.0,0.0,0.0,0.0,0.0,0.0,0.0,0.0,0.0,0.0,0.0,0.0,0.0,0.0,0.0,0.0,0.0,0.0,0.0,0.0,0.0,0.0,0.0,0.0,0.0,0.0,0.0,0.0,0.0,0.0,0.0,0.0,0.0,0.0,0.0,0.0,0.0,0.0,0.0,0.0,0.0,0.0,0.0,1.8963,0.0,0.0,0.0,0.0,0.0,0.0,0.0,0.0,0.0,0.0,0.0,0.0,0.0,0.0,0.0,0.0,0.0,0.0,0.0,0.0,0.0,0.0,0.0,0.0,1.9301,1.9301,1.9301,1.9301,1.9301,1.9301,0.0,0.0,0.0,0.0,0.0,1.9575,1.9584,1.9756,2.0072,2.0848,2.1484,2.201,2.167,2.1223,2.0661,0.0,0.0,0.0,0.0,0.0,0.0,0.0,0.0,0.0,0.0,0.0,0.0,0.0,0.0,0.0,0.0,0.0,0.0,0.0,0.0,0.0,0.0,0.0,0.0,0.0,0.0,0.0,0.0,0.0,0.0,0.0,0.0,0.0,0.0,0.0,0.0,0.0,0.0,0.0,0.0,0.0,0.0,0.0,0.0,0.0,0.0,0.0,0.0,0.0,0.0,0.0,0.0,0.0,0.0,0.0,0.0,0.0,0.0,0.0,0.0,0.0,0.0,0.0,0.0,0.0,0.0,0.0,0.0,0.0,0.0,0.0,2.02,0.0,0.0,0.0,0.0,0.0,0.0,0.0,0.0,0.0,0.0,0.0,0.0,0.0,0.0,0.0,0.0,0.0,0.0,0.0,0.0,0.0,1.9301,1.9301,1.944,1.9519,1.9519,1.9519,1.9519,1.9519,1.9381,0.0,0.0,0.0,1.9745,2.0313,2.0199,2.048,2.1203,2.2194,2.3205,2.4227,2.4187,2.3765,2.2951,2.1512,0.0,0.0,0.0,0.0,0.0,0.0,0.0,0.0,0.0,0.0,0.0,0.0,0.0,0.0,0.0,0.0,0.0,0.0,0.0,0.0,0.0,0.0,0.0,0.0,0.0,0.0,0.0,0.0,0.0,0.0,0.0,0.0,0.0,0.0,0.0,0.0,0.0,0.0,0.0,0.0,0.0,0.0,0.0,0.0,0.0,0.0,0.0,0.0,0.0,0.0,0.0,0.0,0.0,0.0,0.0,0.0,0.0,0.0,0.0,0.0,0.0,0.0,0.0,2.0736,2.0736,2.0744,2.0958,2.1569,2.2448,2.2179,2.204,2.1955,2.1762,0.0,0.0,0.0,0.0,0.0,0.0,0.0,0.0,0.0,0.0,0.0,0.0,0.0,0.0,0.0,0.0,0.0,0.0,0.0,1.9301,1.9301,1.9923,2.0343,2.0343,2.0343,2.0343,2.0343,1.9687,1.9826,2.0994,2.0481,2.073,2.1973,2.1355,2.1468,2.2391,2.3832,2.4881,2.555,2.5384,2.5602,2.6073,2.3473,2.232,2.2258,0.0,0.0,0.0,0.0,0.0,0.0,0.0,0.0,0.0,0.0,0.0,0.0,0.0,0.0,0.0,0.0,0.0,0.0,0.0,0.0,0.0,0.0,0.0,0.0,0.0,0.0,0.0,0.0,0.0,0.0,0.0,0.0,0.0,0.0,0.0,0.0,0.0,0.0,0.0,0.0,0.0,1.894,2.0348,0.0,0.0,0.0,0.0,0.0,0.0,0.0,0.0,0.0,0.0,0.0,0.0,0.0,2.1818,2.1818,2.3034,2.3667,2.3667,2.3667,2.3667,2.3667,2.3687,2.3788,2.393,2.4249,0.0,2.3765,2.278,0.0,0.0,0.0,0.0,0.0,0.0,0.0,0.0,0.0,0.0,0.0,0.0,0.0,0.0,0.0,0.0,0.0,0.0,0.0,0.0,0.0,2.0382,2.0856,2.1297,2.145,2.1507,2.1507,2.1472,2.1695,2.228,2.2329,2.2696,2.3515,2.3227,2.367,2.495,2.5784,2.659,2.7316,2.7543,2.7846,2.8143,2.6688,2.4988,2.3207,2.226,0.0,0.0,0.0,0.0,0.0,0.0,0.0,0.0,0.0,0.0,0.0,0.0,0.0,0.0,0.0,0.0,0.0,0.0,0.0,0.0,0.0,0.0,0.0,0.0,0.0,0.0,0.0,0.0,0.0,0.0,0.0,0.0,0.0,0.0,0.0,0.0,0.0,0.0,0.0,2.0662,2.1174,2.1931,2.1628,2.1232,0.0,0.0,0.0,0.0,0.0,0.0,0.0,0.0,0.0,2.2374,2.2959,2.3385,2.3618,2.4233,2.4645,2.4865,2.4865,2.4865,2.4865,2.4865,2.4865,2.4874,2.5058,2.504,2.484,2.4345,2.4131,2.408,0.0,0.0,0.0,0.0,2.3419,2.3419,0.0,0.0,0.0,0.0,0.0,0.0,0.0,0.0,0.0,0.0,0.0,0.0,2.0798,2.125,2.1735,2.2328,2.2641,2.28,2.28,2.3118,2.3448,2.3792,2.402,2.4449,2.5066,2.5289,2.585,2.6757,2.7557,2.8152,2.8583,2.9202,2.9496,2.9467,2.8953,2.7343,2.4982,2.4067,2.3567,2.3391,0.0,0.0,0.0,0.0,0.0,0.0,0.0,0.0,0.0,0.0,0.0,0.0,0.0,0.0,0.0,0.0,0.0,0.0,0.0,0.0,0.0,0.0,0.0,0.0,0.0,0.0,0.0,0.0,0.0,0.0,0.0,0.0,0.0,0.0,0.0,0.0,0.0,2.2712,2.295,2.305,2.3059,2.2825,0.0,0.0,0.0,0.0,0.0,0.0,2.3834,2.4269,2.4514,2.4514,2.4514,2.4645,2.4957,2.4957,2.5104,2.5398,2.5398,2.5398,2.5398,2.5398,2.5398,2.5407,2.5508,2.5544,2.5544,2.5434,2.5398,2.5398,2.5398,2.5398,2.5398,2.5398,2.5398,2.5398,0.0,0.0,0.0,0.0,0.0,0.0,0.0,0.0,0.0,0.0,0.0,2.1019,2.1849,2.2795,2.3386,2.3423,2.3914,2.419,2.419,2.3991,2.4431,2.5705,2.5187,2.5428,2.6664,2.7421,2.7431,2.6603,2.8867,2.9548,2.8801,2.9656,3.007,3.0029,2.9116,2.862,2.8402,2.7524,2.6737,2.6066,2.5618,0.0,0.0,0.0,0.0,0.0,0.0,0.0,0.0,0.0,0.0,0.0,0.0,0.0,0.0,0.0,0.0,0.0,0.0,0.0,0.0,0.0,0.0,0.0,0.0,0.0,0.0,0.0,0.0,0.0,0.0,0.0,0.0,0.0,0.0,0.0,0.0,0.0,0.0,2.3416,2.3462,0.0,0.0,0.0,0.0,2.4063,2.4482,2.4721,2.4721,2.5122,2.5333,2.5333,2.5333,2.5343,2.5361,2.5361,2.5379,2.5398,2.5398,2.5398,2.5398,2.5398,2.5398,2.5416,2.5792,2.5984,2.593,2.5554,2.5398,2.5398,2.5398,2.5398,2.5398,2.5398,2.5398,2.5398,0.0,0.0,0.0,2.0498,2.0952,2.1346,2.1346,2.1087,2.1212,2.2004,2.1813,2.1905,2.2731,2.3342,2.4045,2.4897,2.5267,2.5606,2.5939,2.6213,2.6554,2.7039,2.7492,2.8108,2.8905,2.8878,2.8837,2.8838,2.9684,2.9938,2.9652,3.0307,3.0612,3.0615,3.0624,3.0636,3.0479,2.8319,2.7239,2.6988,2.6831,2.6038,0.0,0.0,0.0,0.0,0.0,0.0,0.0,0.0,0.0,0.0,0.0,0.0,0.0,0.0,0.0,0.0,0.0,0.0,0.0,0.0,0.0,0.0,0.0,0.0,0.0,0.0,0.0,0.0,0.0,0.0,0.0,0.0,0.0,0.0,0.0,0.0,0.0,2.3923,2.417,0.0,2.4572,2.481,2.4966,2.4966,2.5104,2.5186,2.5186,2.5324,2.5398,2.5398,2.5398,2.5517,2.5774,2.5774,2.5912,2.6178,2.6178,2.6178,2.6178,2.6178,2.6178,2.6187,2.6334,2.6389,2.638,2.6242,2.6178,2.6178,2.6178,2.6178,2.6178,2.6178,2.6178,2.6178,0.0,2.0962,0.0,2.1346,2.1823,2.2201,2.2201,2.1975,2.2107,2.2979,2.2742,2.285,2.3804,2.4317,2.4925,2.5826,2.635,2.6784,2.7138,2.7673,2.8046,2.8226,2.9088,2.9737,3.0095,2.9917,3.0001,3.0371,3.0552,3.0636,3.0648,3.0997,3.1165,3.1178,3.1548,3.1705,3.1569,2.9657,2.8739,2.8581,2.841,2.7667,2.6596,0.0,0.0,0.0,0.0,0.0,0.0,0.0,0.0,0.0,0.0,0.0,0.0,0.0,0.0,0.0,0.0,0.0,0.0,0.0,0.0,0.0,0.0,0.0,0.0,0.0,0.0,0.0,0.0,0.0,0.0,0.0,0.0,0.0,0.0,0.0,2.4443,2.4597,2.4838,2.5003,2.5003,2.5242,2.5398,2.5398,2.5517,2.559,2.559,2.5728,2.5811,2.5811,2.5939,2.6132,2.6389,2.6527,2.6738,2.7013,2.7013,2.7013,2.7013,2.7013,2.7013,2.7013,2.7013,2.7013,2.7013,2.7013,2.7013,2.6986,2.6719,2.6664,2.6811,2.6811,2.6903,2.7013,2.0576,2.189,2.3001,2.3001,2.3001,2.3001,2.3001,2.2344,2.2191,2.3198,2.3463,2.3938,2.4987,2.5703,2.6105,2.6117,2.7085,2.7709,2.7721,2.8226,2.8775,2.9328,2.9821,3.0131,3.0155,3.0648,3.0901,3.0925,3.1452,3.1705,3.1705,3.1705,3.1705,3.1705,3.1705,3.1705,3.1705,3.1705,3.1394,3.0896,3.0435,2.9639,2.8595,0.0,0.0,0.0,0.0,0.0,0.0,0.0,0.0,0.0,0.0,0.0,0.0,0.0,0.0,0.0,0.0,0.0,0.0,0.0,0.0,0.0,0.0,0.0,0.0,0.0,0.0,0.0,0.0,0.0,0.0,0.0,0.0,0.0,2.4874,2.4829,2.4966,2.5352,2.5407,2.5416,2.5416,2.5425,2.5434,2.5434,2.5801,2.6048,2.6048,2.6426,2.6628,2.6628,2.7022,2.7224,2.7224,2.76,2.7793,2.7793,2.7793,2.7793,2.7793,2.7793,2.7793,2.7793,2.7793,2.7793,2.7793,2.7793,2.7793,2.772,2.6949,2.6894,2.7224,2.7224,2.7472,2.7793,2.2193,2.2673,2.3001,2.3001,2.3001,2.3001,2.3001,2.2804,2.3027,2.4032,2.4334,2.4611,2.5052,2.5703,2.6262,2.6652,2.7313,2.7866,2.825,2.8787,2.9484,3.0419,3.0239,3.0468,3.1238,3.1021,3.1081,3.1466,3.1633,3.1705,3.1705,3.1705,3.1705,3.1705,3.1705,3.1705,3.1705,3.1705,3.1621,3.1456,3.1346,3.0693,2.9746,0.0,0.0,0.0,0.0,0.0,0.0,0.0,0.0,0.0,0.0,0.0,0.0,0.0,0.0,0.0,0.0,0.0,0.0,0.0,0.0,0.0,0.0,0.0,0.0,0.0,0.0,0.0,0.0,0.0,0.0,0.0,2.5398,2.5361,2.5251,2.5242,2.5278,2.5388,2.5645,2.5855,2.5855,2.6104,2.6279,2.6279,2.6646,2.6866,2.6866,2.7252,2.7472,2.7472,2.7573,2.7637,2.7637,2.7738,2.7793,2.7793,2.7793,2.7793,2.7793,2.7793,2.7793,2.7793,2.7793,2.7793,2.7793,2.7793,2.7793,2.7775,2.7555,2.7536,2.7637,2.7637,2.7701,2.7793,2.2897,2.3261,2.3501,2.3501,2.3501,2.3501,2.3501,2.3501,2.3758,2.4538,2.4718,2.4968,2.5463,2.6075,2.6652,2.7205,2.7733,2.825,2.8811,2.9544,3.0263,3.0877,3.0817,3.1057,3.1693,3.1382,3.1382,3.1705,3.1705,3.1705,3.1705,3.1705,3.1705,3.1705,3.1705,3.1705,3.1705,3.1705,3.1705,3.1705,3.1705,3.1361,3.0767,3.0351,2.9749,2.9061,2.8796,2.8495,2.8087,2.7128,0.0,0.0,0.0,0.0,0.0,0.0,0.0,0.0,0.0,0.0,0.0,0.0,0.0,0.0,0.0,0.0,0.0,0.0,0.0,0.0,0.0,0.0,0.0,0.0,2.6237,2.6237,2.6237,2.5905,2.5753,2.6034,2.6185,2.6305,2.6403,2.6673,2.6967,2.7214,2.7475,2.7622,2.7622,2.7844,2.7907,2.7793,2.7968,2.8059,2.8059,2.8225,2.8298,2.8298,2.8298,2.8298,2.8298,2.8298,2.8298,2.8298,2.8298,2.8298,2.8298,2.8298,2.8298,2.8271,0.0,0.0,0.0,0.0,2.8298,2.8298,2.3001,2.3659,2.4134,2.397,2.3934,2.397,2.4043,2.3989,2.4134,2.4718,2.4848,2.5199,2.6009,2.6628,2.7174,2.7661,2.8238,2.8847,2.9436,3.0323,3.0853,3.0985,3.1452,3.1705,3.1705,3.1705,3.1705,3.1705,3.1705,3.1705,3.1705,3.1705,3.1741,3.1801,3.1801,3.1815,3.1875,3.1875,3.1875,3.1875,3.1875,3.1813,3.1617,3.07,3.0373,3.0238,2.9349,2.905,2.8843,2.7592,0.0,0.0,0.0,0.0,0.0,0.0,0.0,0.0,0.0,0.0,0.0,0.0,0.0,0.0,0.0,0.0,0.0,0.0,0.0,0.0,0.0,0.0,0.0,0.0,2.7471,2.7517,2.7591,2.6848,2.6522,2.7054,2.6892,2.6828,2.7156,2.728,2.7549,2.8132,2.8258,2.8322,2.8322,0.0,0.0,0.0,0.0,2.8462,2.8462,2.881,2.9014,2.9014,2.9014,2.9014,2.9014,2.9014,2.9014,2.9014,2.9014,2.9014,2.9014,2.9014,2.9014,2.8941,2.8215,2.816,2.8498,2.8886,2.9014,2.9014,2.3001,2.3659,2.3794,2.2483,2.2258,2.2483,2.312,2.2681,2.2875,2.458,2.5172,2.5601,2.6057,2.6952,2.7589,2.7697,2.8595,2.9556,3.0528,3.0383,3.0648,3.1524,3.1635,3.1705,3.1705,3.1705,3.1705,3.1705,3.1705,3.1705,3.1705,3.1705,3.1924,3.2346,3.2346,3.2575,3.2994,3.2994,3.2994,3.2994,3.2994,3.2465,3.1683,3.1472,3.1405,3.1383,3.1193,3.1126,3.0958,2.9897,2.9406,2.9105,2.8476,0.0,0.0,0.0,0.0,0.0,0.0,0.0,0.0,0.0,0.0,0.0,0.0,0.0,0.0,0.0,0.0,0.0,0.0,0.0,0.0,2.7867,2.797,2.8139,2.8695,2.8415,2.8106,2.7907,2.7612,2.766,2.8313,2.8136,2.8164,2.8549,2.8899,2.9078,2.9078,2.9196,2.9207,2.9178,2.8967,2.8865,2.8865,2.8977,2.9014,2.9014,2.9014,0.0,2.9014,2.9014,2.9014,2.9014,2.9014,2.9014,2.9014,2.9014,2.9014,2.8966,2.884,2.883,2.8874,2.8957,2.9014,2.9014,2.255,2.3046,2.3353,2.2531,2.24,2.2531,2.2945,2.2654,2.299,2.4592,2.5266,2.5845,2.6435,2.7217,2.7818,2.807,2.9088,3.0025,3.0841,3.0901,3.1129,3.1681,3.1705,3.1705,3.1705,3.1705,3.1705,3.1705,3.1705,3.1827,3.2104,3.2104,3.2405,3.2899,3.2899,3.3044,3.3284,3.3284,3.3284,3.3284,3.3284,3.2982,3.2501,3.2501,3.2501,3.2501,3.2501,3.2501,3.2353,3.1344,3.0904,3.0565,2.9262,2.8386,2.7771,0.0,0.0,0.0,0.0,0.0,0.0,0.0,0.0,0.0,0.0,0.0,0.0,0.0,0.0,2.7799,2.7944,0.0,2.8371,2.8776,2.8842,2.8975,2.9289,2.9234,2.9017,2.8639,2.8341,2.8342,2.885,2.8804,2.8946,2.943,2.9709,2.9862,2.9862,2.9916,2.9863,2.9715,2.942,2.9242,2.9242,2.9073,2.9014,2.9014,2.9014,2.9014,2.9014,2.9014,2.9014,2.9014,2.9014,2.9014,2.9014,2.9014,2.9014,2.9014,2.9014,2.9014,2.9014,2.9014,2.9014,2.9014,2.2258,2.2438,2.2711,2.2531,2.2654,2.2767,2.2767,2.2908,2.3409,2.4592,2.533,2.602,2.6755,2.7462,2.8106,2.8743,2.9508,3.0263,3.0997,3.1358,3.1597,3.1705,3.1705,3.1705,3.1705,3.1705,3.1705,3.1705,3.1791,3.208,3.2503,3.2611,3.2935,3.344,3.344,3.3489,3.3585,3.3585,3.3585,3.3585,3.3585,3.3585,3.3585,3.3585,3.3464,3.3284,3.3284,3.3284,3.3191,3.2347,3.2087,3.1814,3.0169,2.9512,2.9111,2.7903,2.7406,0.0,0.0,0.0,0.0,0.0,0.0,0.0,0.0,0.0,2.7709,2.7812,2.8135,2.8456,2.8659,2.8985,2.9319,2.965,2.9715,2.9755,2.9843,2.9852,2.974,2.9495,2.9126,2.905,2.9401,2.9499,2.9748,3.0303,3.0432,3.0509,3.0509,3.045,3.0274,3.001,2.982,2.971,2.971,2.9535,2.9393,2.9333,2.9333,2.9313,2.9223,2.9223,2.9223,2.9223,2.9223,2.9223,2.9223,2.9223,2.9223,2.9223,2.9223,2.9198,2.9124,2.9042,2.9014,2.9014,2.2767,2.2362,2.169,2.0905,2.1423,2.1937,2.1937,2.2531,2.3372,2.44,2.5513,2.6342,2.6591,2.7708,2.8823,2.9821,2.9593,3.0034,3.1502,3.1214,3.119,3.1681,3.1705,3.1705,3.1705,3.1705,3.1705,3.1705,3.2188,3.2442,3.2515,3.2984,3.3477,3.391,3.391,3.4198,3.4631,3.4631,3.4631,3.4631,3.4631,3.4631,3.4631,3.4631,3.409,3.3284,3.3284,3.3284,3.3284,3.3168,3.3145,3.317,3.3339,3.2737,3.1856,3.1215,0.0,2.9318,2.8321,2.8065,2.8021,2.7829,2.7985,2.8281,0.0,0.0,2.8846,2.9262,2.9417,2.9446,2.9474,2.9513,2.9659,3.0068,3.0127,3.0273,3.0713,3.0742,3.0742,3.0713,3.0074,2.9968,3.0616,3.0441,3.0441,3.0781,3.083,3.083,3.083,3.0548,3.0382,3.0362,3.044,3.049,3.049,3.078,3.0816,3.0519,3.0519,3.0365,3.0066,3.0066,3.0066,3.0066,3.0066,3.0066,3.0066,3.0066,3.0066,3.0066,3.0066,2.9837,2.9491,2.9143,2.9014,2.9014,2.1576,2.127,2.0924,2.0556,2.0808,2.1202,2.1718,2.2153,2.2931,2.4327,2.5653,2.6515,2.6602,2.7737,2.8931,3.001,2.9881,3.0323,3.1621,3.1478,3.1476,3.1705,3.1705,3.1705,3.1705,3.1705,3.1839,3.2176,3.2382,3.2803,3.3381,3.3597,3.3982,3.4475,3.4475,3.4595,3.4799,3.4799,3.4799,3.4799,3.4799,3.4799,3.4799,3.4799,3.4535,3.4186,3.4186,3.4186,0.0,3.4186,3.4186,3.4102,3.3677,3.3235,3.2578,3.1049,3.0261,0.0,2.9339,2.9671,0.0,0.0,3.0841,3.1012,3.0479,3.0356,3.0198,2.9689,2.9794,2.996,2.996,3.0185,3.04,0.0,3.0605,3.0674,3.0859,3.0889,3.0889,3.0889,3.0645,3.0568,3.0879,3.0762,3.0762,3.0889,3.0889,3.0996,3.124,3.1122,3.1179,3.1432,3.1315,3.1229,3.1229,3.1209,3.1132,3.0987,3.0987,3.0926,3.0772,3.0772,3.068,3.0473,3.0288,3.0204,3.0204,3.0204,3.0204,3.0204,3.0204,3.0094,2.9883,2.951,2.9207,2.9014,2.0615,2.0498,2.0498,2.0498,2.0498,2.0789,2.1661,2.2255,2.3032,2.4261,2.5634,2.6671,2.7071,2.7955,2.8931,3.001,3.0107,3.0564,3.1633,3.1705,3.1705,3.1705,3.1705,3.1705,3.1705,3.1705,3.196,3.2503,3.2647,3.3153,3.3994,3.4138,3.4438,3.4799,3.4799,3.4799,3.4799,3.4799,3.4799,3.4799,3.4799,3.4799,3.4799,3.4799,3.4799,3.4799,3.4799,3.4799,3.4799,3.4799,3.4799,3.4653,3.3893,3.3635,3.3298,3.1537,3.0925,3.0743,3.04,0.0,0.0,3.2489,3.2664,3.2502,3.1734,3.1309,3.0863,3.01,3.0176,3.0391,3.0391,3.0664,3.0889,3.0889,3.0889,3.0889,3.0889,3.0889,3.0889,3.0889,3.0889,3.0889,3.0889,3.0889,3.0937,3.1055,3.1064,3.125,3.167,3.1699,3.1846,3.2189,3.2071,3.2007,3.2007,3.1857,3.1751,3.1658,3.1658,3.1637,3.1544,3.1544,3.1388,3.1149,3.09,3.0753,3.0659,3.0659,3.0619,3.0525,3.0525,3.0461,3.0323,3.0051,2.9693,2.9314,2.0508,2.0498,2.0498,2.0498,2.0498,2.0789,2.1661,2.3128,2.4152,2.42,2.5417,2.6836,2.8295,2.8478,2.8931,3.001,3.0107,3.0564,3.1633,3.1705,3.1705,3.1705,3.1705,3.1705,3.1705,3.1705,3.196,3.2503,3.3008,3.3525,3.4006,3.4547,3.4787,3.4799,3.4799,3.4799,3.4799,3.4799,3.4799,3.4799,3.4799,3.4799,3.4799,3.4799,3.4799,3.4799,3.4799,3.4799,3.4799,3.4799,3.4799,3.4799,3.475,3.475,0.0,3.4039,3.3518,0.0,0.0,0.0,3.3165,3.317,3.2298,3.1539,3.1892,3.1081,3.036,3.0781,3.0859,3.0869,3.0869,3.0879,3.0889,3.0889,3.0889,3.0889,3.0889,3.0889,3.0889,3.0889,3.0889,3.0889,0.0,3.0889,3.1064,3.1435,3.1474,3.1689,3.2159,3.2179,3.2189,3.2198,3.2568,3.2783,3.2783,3.3152,3.3168,3.2851,3.2851,3.2692,3.2352,3.2352,3.2352,3.2352,3.2352,3.216,3.185,3.185,3.1648,3.1373,3.1373,3.1143,3.0772,3.0754,3.0497,3.0167,1.9707,1.9707,1.9707,1.9707,2.0624,2.1451,2.1766,2.2838,2.3801,2.4327,2.5615,0.0,0.0,0.0,0.0,0.0,3.0107,3.0564,3.1633,3.1705,3.1705,3.1705,3.1705,3.1705,3.1705,3.1705,3.196,3.2503,3.3032,3.3549,3.4006,3.4559,3.4799,3.4799,3.4799,3.4799,3.4799,3.4799,3.4799,3.4799,3.4799,3.4799,3.4799,3.4799,3.4799,3.4799,0.0,3.4799,3.4799,3.4799,3.4799,3.4871,3.522,0.0,0.0,3.4699,0.0,3.3614,0.0,0.0,3.5313,3.575,3.5834,3.5603,3.4938,3.4461,3.3778,3.2369,3.2094,3.1845,3.1064,3.0889,3.0889,3.0889,3.0889,3.0889,3.0889,3.0889,3.0889,3.0889,3.0889,0.0,0.0,0.0,0.0,3.1474,3.1787,3.2169,3.2589,3.2588,3.2715,3.2988,3.3135,3.3213,3.3213,3.3318,3.3323,3.3228,3.3228,3.3175,3.3048,3.2826,3.2731,3.2731,3.2517,3.2326,3.223,3.223,3.2038,3.1717,3.1717,3.1497,3.1208,3.1208,3.1125,3.091,0.0,1.9301,1.9301,1.9301,2.0682,0.0,0.0,0.0,0.0,0.0,0.0,0.0,0.0,0.0,0.0,0.0,0.0,3.048,3.1368,3.1587,3.1705,3.1705,3.1705,3.1705,3.1705,3.1887,3.2248,3.2791,3.3308,3.379,3.4282,3.4643,3.4799,3.4799,3.4799,3.4799,3.4799,3.4799,3.4799,3.4799,3.4799,3.4799,3.4799,3.4799,3.4799,0.0,3.4799,3.4799,3.4799,3.4799,3.4931,3.5147,3.5484,0.0,0.0,0.0,3.5154,3.5297,3.5309,3.6059,3.6945,3.7369,3.7404,3.715,3.6371,3.5854,3.5124,3.3628,3.2988,3.2467,3.1682,3.1199,3.0889,3.0889,3.0889,3.0889,3.0889,3.0889,3.0889,3.0889,3.1025,3.1388,0.0,0.0,0.0,3.2003,3.2236,3.2609,3.2998,3.3474,3.3842,3.4121,3.4549,3.458,3.4121,3.4121,3.388,3.3386,3.3386,3.3386,3.3386,3.3175,3.308,3.308,3.2858,3.2708,3.2571,3.2571,3.239,3.2079,3.2079,3.1878,3.158,3.158,3.1515,3.1336,0.0,0.0,1.9301,0.0,0.0,0.0,0.0,0.0,0.0,0.0,0.0,0.0,0.0,0.0,0.0,0.0,0.0,0.0,3.0865,3.1394,3.1705,3.1705,3.1705,3.1705,3.1705,3.2212,3.2719,3.3248,3.373,3.4246,3.4763,3.4787,3.4799,3.4799,3.4799,3.4799,3.4799,3.4799,3.4799,3.4799,3.4799,3.4799,3.4799,3.4799,3.4799,3.4799,3.4799,3.4799,3.4811,3.4835,0.0,0.0,0.0,0.0,0.0,0.0,0.0,3.7761,3.6584,3.7135,3.8012,3.8012,3.7135,3.6286,3.6286,3.5427,3.4586,3.4503,3.3572,3.2771,0.0,0.0,3.0976,3.0918,3.1005,3.1034,3.0918,3.0947,3.1015,0.0,0.0,0.0,0.0,0.0,0.0,3.3122,0.0,3.3216,3.3578,3.4798,3.5469,3.5407,3.6581,3.6581,3.5314,3.5283,3.4673,3.3386,3.3416,3.3425,3.3425,3.3445,3.3455,3.3455,3.3425,3.3267,3.295,3.2931,3.2731,3.239,3.239,3.2166,3.1887,3.1887,3.1685,3.141,0.0,0.0,0.0,0.0,0.0,0.0,0.0,0.0,0.0,0.0,0.0,0.0,0.0,0.0,0.0,0.0,0.0,0.0,3.0865,3.1394,3.1705,3.1705,3.1705,3.1705,3.1705,3.1827,3.2164,3.2695,3.3224,3.3717,3.4198,3.4619,3.4799,3.4799,3.4799,3.4799,3.4799,3.4799,3.4799,3.4799,3.4799,3.4799,3.4799,3.4799,3.4799,3.4799,3.4799,3.4799,0.0,0.0,0.0,0.0,0.0,0.0,3.7729,0.0,0.0,3.7921,3.7628,3.7761,3.8012,3.8012,3.7761,3.7548,3.7548,3.7296,3.6827,3.592,3.4792,3.3702,0.0,0.0,0.0,3.1064,3.2361,0.0,3.1141,3.1672,0.0,0.0,0.0,3.3694,3.5663,3.6073,0.0,0.0,3.6157,3.621,3.6296,3.6631,3.6368,3.5438,3.5705,3.5253,3.3912,3.3912,3.3723,3.3396,3.375,3.3906,3.3916,3.4228,3.4375,3.4355,3.4043,3.3874,3.3791,3.3428,3.2921,3.239,3.239,3.2029,3.1515,3.1515,3.1474,3.141,0.0,0.0,0.0,0.0,0.0,0.0,0.0,0.0,0.0,0.0,0.0,0.0,0.0,0.0,0.0,0.0,0.0,0.0,0.0,3.1262,3.1705,3.1705,3.1705,3.1705,3.1705,3.1924,3.2321,3.2851,3.3368,3.3862,3.4366,3.4667,3.4799,3.4799,3.4799,3.4799,3.4799,3.4799,3.4799,0.0,0.0,3.4799,3.4799,3.4799,3.4799,3.4799,3.4799,0.0,0.0,0.0,0.0,3.7228,3.7469,3.7772,3.8012,3.8012,0.0,3.8012,3.8012,3.8012,3.8012,3.8012,3.8012,3.8012,3.8012,3.8012,3.7814,3.7135,3.5608,0.0,0.0,0.0,0.0,0.0,0.0,0.0,3.2618,3.3006,3.3629,0.0,3.4376,0.0,3.7327,3.7701,3.8125,0.0,3.794,3.7298,3.7298,3.7839,3.7809,3.7086,3.7879,3.7785,3.6654,3.5494,3.4871,3.4881,3.4541,3.4346,3.4355,3.459,3.4697,3.4687,3.4453,3.4346,3.4326,3.4082,3.3759,3.3405,3.3405,3.288,3.2139,3.2139,3.1824,3.141,0.0,0.0,0.0,0.0,0.0,0.0,0.0,0.0,0.0,0.0,2.6458,2.7071,0.0,0.0,0.0,0.0,0.0,0.0,0.0,0.0,3.1633,3.1705,3.1705,3.1705,3.1705,3.2164,3.2659,3.3188,3.3597,3.4114,3.4703,3.4703,3.4739,3.4799,3.4799,3.4799,3.4799,3.4799,3.4799,3.4799,3.4799,3.4799,3.4799,0.0,3.4799,3.4811,3.4883,0.0,0.0,0.0,3.724,3.7399,3.7841,3.8012,3.8012,3.8012,3.8012,3.8012,3.8012,3.8012,3.8012,3.8012,3.8012,3.8012,3.8012,3.8012,3.8012,3.8012,0.0,3.4391,3.4391,3.3589,3.2885,3.2714,0.0,3.4781,3.4447,3.4531,3.4867,3.5474,3.5885,3.6892,3.877,3.9279,3.9954,4.1127,3.9178,3.7886,3.782,3.893,3.9531,3.9423,4.0846,4.1263,4.0567,3.8247,3.6967,3.6775,3.5803,3.5224,3.508,3.513,3.5159,3.5126,3.4913,3.4795,3.4785,3.4726,3.4664,3.4632,3.4632,3.4025,3.3164,3.3132,3.2506,3.164,0.0,0.0,0.0,0.0,0.0,0.0,0.0,0.0,0.0,0.0,2.6382,2.7014,0.0,0.0,0.0,0.0,0.0,0.0,0.0,0.0,0.0,3.1693,3.1705,3.1705,3.1705,3.1779,3.2104,3.2635,3.2719,3.3225,3.415,3.415,3.439,3.4799,3.4799,3.4799,3.4799,3.4799,3.4799,3.4799,3.4799,3.4799,3.4799,3.4799,0.0,0.0,0.0,0.0,0.0,0.0,3.7481,3.7892,3.7976,3.8012,3.8012,3.8012,3.8012,3.8012,3.8012,3.8012,3.8012,3.8012,3.8012,3.8012,3.8012,3.8012,0.0,0.0,0.0,3.4391,3.4391,3.4252,0.0,3.2846,0.0,0.0,0.0,0.0,3.6234,0.0,0.0,0.0,0.0,0.0,0.0,0.0,4.1191,4.1004,4.0537,4.1162,4.1224,4.0536,3.9814,3.9357,3.9228,3.876,3.7942,3.6818,3.8071,3.808,3.7016,3.7352,3.7506,3.743,3.5944,0.0,3.5244,3.4853,3.4543,3.428,3.428,3.4001,3.3558,3.3293,3.3048,3.286,0.0,0.0,0.0,0.0,0.0,0.0,0.0,2.2193,2.3528,2.502,2.5457,2.6275,2.802,2.8299,2.8391,0.0,0.0,0.0,0.0,0.0,0.0,0.0,0.0,0.0,3.1705,3.1705,0.0,0.0,0.0,3.2899,3.3633,0.0,0.0,3.4402,3.4679,3.4799,3.4799,3.4799,3.4799,3.4799,3.4799,3.4799,3.4799,0.0,0.0,0.0,0.0,0.0,0.0,0.0,3.7796,3.8012,3.8012,3.8012,3.8012,3.8012,3.8012,3.8012,3.8012,3.8012,3.8012,3.8012,3.8012,3.8012,3.8012,0.0,0.0,0.0,0.0,3.4391,3.4391,0.0,0.0,0.0,0.0,0.0,0.0,0.0,0.0,0.0,0.0,0.0,0.0,0.0,0.0,0.0,4.1706,4.1887,4.1634,4.2128,4.2365,4.2207,4.1614,4.1434,4.1722,4.1023,4.033,3.9652,3.9786,3.952,3.8903,3.9083,3.9189,3.9146,3.8277,3.7468,3.6803,3.6572,3.5928,3.5156,3.5156,3.481,3.4284,3.4151,3.3718,3.3173,0.0,0.0,0.0,0.0,0.0,0.0,2.0459,2.1614,2.295,2.4327,2.4419,2.5289,2.7788,2.7966,2.8067,0.0,0.0,0.0,0.0,0.0,0.0,0.0,0.0,0.0,0.0,0.0,0.0,0.0,0.0,0.0,0.0,0.0,0.0,0.0,0.0,0.0,3.4799,3.4799,3.4799,0.0,0.0,3.4799,0.0,0.0,0.0,0.0,0.0,0.0,0.0,0.0,3.8012,3.8012,3.8012,3.8012,3.8012,3.8012,3.8012,3.8012,3.8012,3.8012,3.8012,3.8012,3.8012,3.8012,3.8012,3.8012,0.0,0.0,3.6301,3.4781,3.4781,0.0,0.0,0.0,0.0,0.0,0.0,0.0,0.0,0.0,0.0,0.0,0.0,0.0,0.0,0.0,4.1971,4.2332,4.2332,4.2729,4.3156,4.3673,4.3667,4.3871,4.4316,4.3251,4.2578,4.2293,4.1461,4.0915,4.0657,4.0657,4.0657,4.0624,4.0333,3.9583,3.854,3.854,3.7719,3.6447,3.6447,3.5892,3.5128,3.5061,3.4423,3.3569,0.0,0.0,0.0,0.0,0.0,0.0,2.0391,2.0634,2.1642,2.417,2.3773,2.4358,2.7264,2.7182,2.7345,0.0,0.0,0.0,0.0,0.0,0.0,0.0,0.0,0.0,0.0,0.0,0.0,0.0,0.0,0.0,0.0,0.0,0.0,0.0,0.0,0.0,0.0,3.4799,0.0,0.0,0.0,0.0,0.0,0.0,0.0,0.0,0.0,0.0,0.0,0.0,0.0,3.8012,3.8012,3.8012,3.8012,3.8012,0.0,0.0,3.8012,3.8012,3.8012,3.8012,3.8012,3.8012,3.8012,0.0,0.0,3.8012,3.6935,3.6041,3.6041,0.0,0.0,0.0,0.0,3.6787,0.0,0.0,0.0,0.0,0.0,0.0,0.0,0.0,0.0,0.0,4.2808,4.3373,4.3373,4.3409,4.3667,4.422,4.4244,4.4268,4.4285,4.4192,4.3514,4.2325,4.3408,4.3283,4.2091,4.2091,4.2091,4.2027,4.0754,4.0138,0.0,4.0008,3.9189,3.7919,3.7919,3.7072,3.5855,3.5558,3.5154,3.4695,0.0,0.0,0.0,0.0,0.0,0.0,1.9726,2.0187,2.1291,2.3477,2.3384,2.4277,2.7397,2.696,2.6949,2.8219,2.8431,0.0,0.0,0.0,0.0,0.0,0.0,0.0,0.0,0.0,3.1705,3.1705,0.0,0.0,0.0,0.0,0.0,0.0,0.0,0.0,0.0,0.0,0.0,0.0,0.0,0.0,0.0,0.0,0.0,0.0,0.0,0.0,0.0,0.0,0.0,0.0,3.8012,3.8012,0.0,0.0,3.8012,3.8012,3.8012,3.8012,3.8012,3.8012,3.8012,3.8012,3.8012,0.0,3.8012,3.8012,3.7054,3.6204,3.6208,3.4642,3.3685,3.4671,3.4781,0.0,0.0,0.0,0.0,0.0,0.0,0.0,0.0,0.0,0.0,0.0,4.3108,4.3631,4.3967,4.3979,4.4087,4.4273,4.4285,4.4285,4.4285,4.4285,4.4025,4.3514,4.4025,4.4025,4.3514,4.3514,4.3514,4.3483,4.2925,4.2218,0.0,4.1473,4.0624,3.9288,3.8441,3.7752,3.7136,3.6142,3.5582,3.5196,0.0,0.0,0.0,0.0,0.0,1.9301,1.9301,1.9785,2.0899,2.3018,2.298,2.4014,2.7328,2.6807,2.6682,2.7886,2.8259,0.0,0.0,0.0,0.0,0.0,0.0,0.0,0.0,0.0,3.1705,3.1705,3.1705,3.1705,0.0,0.0,0.0,0.0,0.0,0.0,0.0,0.0,0.0,0.0,0.0,0.0,0.0,0.0,0.0,0.0,0.0,0.0,0.0,0.0,0.0,0.0,0.0,0.0,0.0,0.0,3.8012,3.8012,3.8012,3.8012,3.8012,3.8012,3.8012,3.8012,0.0,3.8012,3.8012,3.8012,3.7322,3.6719,3.6723,3.4797,3.3749,3.5375,3.4456,3.4524,3.7321,0.0,0.0,0.0,0.0,0.0,0.0,0.0,0.0,4.2946,4.3469,4.3895,4.4292,4.4285,4.4285,4.4285,4.4285,4.4285,4.4285,4.4285,4.4285,4.4285,4.4285,4.4285,4.4285,4.4285,4.4285,4.4285,4.4285,4.3776,0.0,4.2905,4.2059,4.0721,3.9747,3.8827,3.7986,3.7001,3.6142,3.5445,0.0,0.0,0.0,0.0,0.0,1.9301,1.9301,1.9301,2.0276,2.2948,2.2483,2.3258,2.6819,2.6601,2.6549,2.7441,2.7926,0.0,0.0,0.0,0.0,0.0,0.0,0.0,3.1705,3.1705,3.1705,3.1705,3.1705,3.1705,3.1705,3.1717,3.1996,0.0,0.0,0.0,0.0,0.0,0.0,0.0,0.0,0.0,0.0,0.0,0.0,0.0,0.0,0.0,0.0,0.0,0.0,0.0,0.0,3.8012,3.8012,3.8012,3.8012,3.8012,3.8012,3.8012,3.8012,3.8012,3.8012,3.8012,0.0,3.8012,3.8012,3.8012,3.7986,3.7974,3.7974,3.6018,3.4935,3.6714,3.537,3.4944,3.7451,0.0,0.0,0.0,0.0,0.0,0.0,0.0,0.0,4.3469,4.3991,0.0,4.4285,4.4285,4.4285,4.4285,4.4285,4.4285,4.4285,4.4285,4.4285,4.4285,4.4285,4.4285,4.4285,4.4285,4.4285,4.4285,4.4285,4.4285,0.0,4.4285,4.3483,4.2293,4.2261,4.056,3.8109,3.8075,3.6991,3.5514,0.0,0.0,0.0,0.0,0.0,0.0,1.9301,1.9301,2.0256,2.2948,2.3051,2.4024,2.7061,2.6517,2.6434,2.7667,2.8039,0.0,0.0,0.0,0.0,0.0,0.0,0.0,3.1129,3.1502,3.1705,3.1705,3.1705,3.1705,3.1705,3.1705,3.1801,3.1972,3.2503,3.3044,0.0,3.4054,0.0,0.0,0.0,0.0,0.0,0.0,0.0,0.0,0.0,0.0,0.0,0.0,0.0,0.0,0.0,0.0,0.0,3.8012,3.8012,3.8012,3.8012,3.8012,3.8012,3.8012,3.8012,3.8012,3.8012,3.8012,3.8012,3.8012,3.8012,3.8012,3.8012,3.6018,3.5084,3.7143,3.484,3.4218,0.0,0.0,0.0,0.0,0.0,0.0,0.0,0.0,4.2994,4.3469,4.4003,4.4285,4.4285,4.4285,4.4285,4.4285,4.4285,4.4285,4.4285,4.4285,4.4285,4.4285,4.4285,4.4285,4.4285,4.4285,4.4285,4.4285,4.4285,4.4285,4.4285,4.4285,4.4068,4.3483,4.1601,4.0333,3.9288,3.7361,3.6311,3.5811,0.0,0.0,0.0,0.0,0.0,0.0,1.9301,1.9439,2.0305,2.2494,2.3206,2.4256,2.6148,2.6038,2.6142,2.7021,2.7307,0.0,0.0,0.0,0.0,0.0,0.0,0.0,3.0889,3.144,3.1705,3.1705,3.1705,3.1705,3.1705,3.1705,3.1705,3.1729,3.225,3.2791,0.0,3.4018,0.0,0.0,0.0,0.0,3.4799,0.0,0.0,0.0,0.0,0.0,0.0,0.0,0.0,0.0,0.0,0.0,0.0,0.0,3.8012,3.8012,3.8012,3.8012,3.8012,3.8012,3.8012,3.8012,3.8012,3.8012,3.8012,3.8012,3.8012,3.8012,3.8012,3.6398,3.5824,3.8048,3.5685,3.5077,3.9365,0.0,0.0,0.0,0.0,0.0,0.0,4.2597,4.309,4.3739,4.4124,4.4285,4.4285,4.4285,4.4285,4.4285,4.4285,4.4285,4.4285,4.4285,4.4285,4.4285,4.4285,4.4285,4.4285,4.4285,4.4285,4.4285,4.4285,4.4285,0.0,4.4285,4.4285,4.413,4.2408,4.1429,4.0721,3.8441,3.726,3.6674,0.0,0.0,0.0,0.0,0.0,0.0,0.0,1.9699,2.0473,2.1828,2.3103,2.4075,2.4543,2.5263,2.5725,2.5798,2.6049,0.0,0.0,0.0,0.0,0.0,0.0,3.0335,3.0829,3.1416,3.1705,3.1705,3.1705,3.1705,3.1705,3.1705,3.1705,3.1729,3.2214,3.2755,3.3356,3.4366,0.0,0.0,3.4799,3.4799,0.0,0.0,0.0,0.0,0.0,0.0,0.0,0.0,0.0,0.0,0.0,0.0,0.0,0.0,0.0,0.0,0.0,3.8012,3.8012,3.8012,3.8012,3.8012,3.8012,3.8012,0.0,3.8012,3.8012,3.8012,3.8012,3.7004,3.6952,3.9224,3.752,3.713,4.07,0.0,0.0,0.0,0.0,0.0,0.0,4.2813,4.3235,4.4232,4.4285,4.4285,4.4285,4.4285,4.4285,4.4285,4.4285,4.4285,4.4285,4.4285,4.4285,4.4285,4.4285,4.4285,4.4285,4.4285,4.4285,0.0,4.4285,4.4285,4.4285,4.4285,4.4285,4.4285,4.418,4.342,4.2123,4.0624,3.9222,3.7919,0.0,0.0,0.0,0.0,0.0,0.0,0.0,0.0,0.0,0.0,2.3515,2.4315,2.5378,2.5073,2.5073,0.0,0.0,0.0,0.0,0.0,0.0,0.0,2.9593,3.0167,3.0287,3.1235,3.1705,3.1705,3.1705,3.1705,3.1705,3.1705,3.1705,3.1717,3.1827,3.2417,3.3356,3.4366,0.0,0.0,3.4799,3.4799,0.0,0.0,0.0,0.0,3.6001,3.6411,0.0,0.0,0.0,0.0,0.0,0.0,0.0,0.0,3.8012,3.8012,3.8012,0.0,3.8012,3.8012,3.8012,3.8012,0.0,3.8012,0.0,0.0,0.0,3.8012,3.8012,3.7016,3.6959,3.9236,3.752,3.713,4.07,0.0,0.0,0.0,0.0,0.0,0.0,4.3018,4.3235,4.4232,4.4285,4.4285,4.4285,4.4285,4.4285,4.4285,4.4285,4.4285,4.4285,4.4285,4.4285,4.4285,4.4285,4.4285,4.4285,4.4285,4.4285,4.4285,4.4285,4.4285,4.4285,4.4285,4.4285,4.4192,4.3157,4.2578,4.1995,3.9518,3.8374,3.7919,0.0,0.0,0.0,0.0,0.0,0.0,0.0,0.0,0.0,0.0,2.3387,2.4114,2.3944,2.4274,2.468,0.0,0.0,0.0,0.0,0.0,0.0,2.8471,2.952,3.0107,3.0107,3.1141,3.1705,3.1705,3.1705,3.1705,3.1705,3.1705,3.1705,3.1729,3.2212,3.2766,3.3356,3.4366,0.0,0.0,3.4799,0.0,0.0,0.0,0.0,0.0,3.611,3.6567,0.0,3.7735,3.8012,3.8012,0.0,0.0,0.0,0.0,3.8012,3.8012,3.8012,3.8012,3.8012,3.8012,3.8012,3.8012,3.8012,0.0,0.0,0.0,0.0,0.0,3.8012,0.0,0.0,3.9319,3.8475,3.8445,0.0,0.0,0.0,0.0,0.0,0.0,0.0,4.2946,4.3235,4.4232,4.4285,4.4285,4.4285,4.4285,4.4285,4.4285,4.4285,4.4285,4.4285,4.4285,4.4285,4.4285,4.4285,4.4285,4.4285,4.4285,4.4285,4.4285,4.4285,4.4285,4.4285,4.4285,4.4285,4.4223,4.3514,4.322,4.2957,4.0818,3.9616,3.886,0.0,0.0,0.0,0.0,0.0,0.0,0.0,0.0,0.0,0.0,0.0,0.0,0.0,0.0,0.0,0.0,0.0,0.0,0.0,0.0,2.7089,2.8451,2.952,3.0107,3.0107,3.1141,3.1705,3.1705,3.1705,3.1705,3.1705,3.1705,3.1731,3.1874,3.2862,3.3332,3.3464,3.439,3.4799,0.0,3.4799,0.0,0.0,0.0,0.0,0.0,0.0,0.0,0.0,3.7832,3.8012,3.8012,3.8012,0.0,0.0,0.0,0.0,0.0,3.8012,3.8012,3.8012,3.8012,3.8012,3.8012,3.8012,0.0,0.0,0.0,0.0,0.0,0.0,0.0,0.0,0.0,0.0,0.0,0.0,0.0,0.0,0.0,0.0,0.0,4.2789,4.2837,4.3235,4.4232,4.4285,4.4285,4.4285,4.4285,4.4285,4.4285,4.4285,4.4285,4.4285,4.4285,4.4285,4.4285,4.4285,4.4285,4.4285,4.4285,4.4285,4.4285,4.4285,4.4285,4.4285,4.4285,4.4285,4.4285,4.4285,4.4285,4.4149,4.2799,4.1537,4.03,0.0,0.0,0.0,0.0,0.0,0.0,0.0,0.0,0.0,0.0,0.0,0.0,0.0,0.0,0.0,0.0,0.0,0.0,0.0,2.6565,2.7089,2.8451,2.952,3.0107,3.0107,3.1141,3.1705,3.1705,3.1705,3.1705,3.1705,3.1705,3.1936,3.2394,3.3008,3.3525,3.3946,3.4547,3.4799,3.4799,3.4799,0.0,0.0,0.0,0.0,0.0,0.0,0.0,0.0,3.7832,3.8012,3.8012,3.8012,0.0,0.0,0.0,0.0,0.0,3.8012,3.8012,3.8012,3.8012,3.8012,3.8012,3.8012,0.0,0.0,0.0,0.0,0.0,0.0,0.0,0.0,0.0,0.0,0.0,0.0,0.0,0.0,0.0,0.0,4.1761,4.3253,4.3042,4.3235,4.4232,4.4285,4.4285,4.4285,4.4285,4.4285,4.4285,4.4285,4.4285,4.4285,4.4285,4.4285,4.4285,4.4285,4.4285,4.4285,4.4285,4.4285,4.4285,4.4285,4.4285,4.4285,4.4285,4.4285,4.4285,4.4285,4.4285,4.4149,4.2799,4.2154,4.1601,0.0,0.0,0.0,0.0,0.0,0.0,0.0,0.0,0.0,0.0,0.0,0.0,0.0,0.0,0.0,0.0,0.0,0.0,2.611,2.6359,2.6987,2.8143,2.9397,3.0107,3.0107,3.1141,3.1705,3.1705,3.1705,3.1705,3.1705,3.1705,3.1984,3.2527,3.3056,3.3573,3.4054,3.4583,3.4799,3.4799,0.0,0.0,0.0,0.0,0.0,0.0,0.0,0.0,0.0,0.0,3.8012,3.8012,3.8012,0.0,0.0,0.0,0.0,0.0,3.8012,3.8012,3.8012,3.8012,3.8012,3.8012,3.8012,0.0,0.0,0.0,0.0,0.0,0.0,0.0,0.0,0.0,0.0,0.0,0.0,0.0,0.0,0.0,0.0,4.1718,4.3006,4.2922,4.3235,4.4232,4.4285,4.4285,4.4285,4.4285,4.4285,4.4285,4.4285,4.4285,4.4285,4.4285,4.4285,4.4285,4.4285,4.4285,4.4285,4.4285,4.4285,4.4285,4.4285,4.4285,4.4285,4.4285,4.4285,4.4285,4.4285,4.4285,4.4149,4.2799,4.1836,4.098,0.0,0.0,0.0,0.0,0.0,0.0,0.0,0.0,0.0,0.0,0.0,0.0,0.0,0.0,0.0,0.0,0.0,0.0,2.5547,2.5891,2.6659,2.7921,2.9231,3.0001,3.0107,3.1141,3.1705,3.1705,3.1705,3.1705,3.1705,3.1827,3.2176,3.2707,3.3236,3.373,3.4198,3.4631,3.4799,3.4799,0.0,0.0,0.0,0.0,0.0,0.0,0.0,0.0,0.0,0.0,0.0,0.0,0.0,0.0,0.0,3.8012,3.8012,3.8012,3.8012,3.8012,3.8012,3.8012,0.0,3.8012,0.0,0.0,0.0,0.0,0.0,0.0,0.0,0.0,0.0,0.0,0.0,0.0,0.0,0.0,0.0,0.0,4.1213,4.1586,4.2513,4.2717,4.3174,4.4051,4.4244,4.4285,4.4285,4.4285,4.4285,4.4285,4.4285,4.4285,4.4285,4.4285,4.4285,4.4285,4.4285,4.4285,4.4285,4.4285,4.4285,4.4285,4.4285,4.4285,4.4285,4.4285,4.4285,4.4285,4.4285,4.4285,4.4192,4.3157,4.19,4.0689,0.0,0.0,0.0,0.0,0.0,0.0,0.0,0.0,0.0,0.0,0.0,0.0,0.0,0.0,0.0,0.0,0.0,0.0,2.4808,2.4893,2.5912,2.8087,2.8991,2.9652,3.0086,3.1141,3.1705,3.1705,3.1705,3.1705,3.1717,3.2224,3.2719,3.326,3.3742,3.4234,3.4751,3.4787,3.4799,3.4799,3.4799,0.0,0.0,0.0,0.0,0.0,0.0,0.0,0.0,0.0,0.0,0.0,0.0,0.0,3.8012,3.8012,3.8012,3.8012,3.8012,3.8012,3.8012,3.8012,3.8012,0.0,3.8012,0.0,0.0,0.0,0.0,0.0,0.0,0.0,0.0,0.0,0.0,0.0,0.0,0.0,4.1213,4.1213,4.1213,4.143,4.2007,4.2501,4.3018,4.3529,4.4027,4.4285,4.4285,4.4285,4.4285,4.4285,4.4285,4.4285,4.4285,4.4285,4.4285,4.4285,4.4285,4.4285,4.4285,4.4285,4.4285,4.4285,4.4285,4.4285,4.4285,4.4285,4.4285,4.4285,4.4285,4.4285,4.4285,4.4192,4.3314,4.2154,0.0,0.0,0.0,0.0,0.0,0.0,0.0,0.0,0.0,0.0,0.0,0.0,0.0,0.0,0.0,0.0,0.0,2.4744,2.4627,2.5777,2.7023,2.8216,2.9,2.9699,3.0331,3.1069,3.1528,3.1705,3.1705,3.1863,3.2212,3.2406,3.2947,3.3742,3.391,3.4306,3.4799,3.4799,3.4799,3.4799,3.4799,3.5003,0.0,0.0,0.0,0.0,0.0,0.0,0.0,0.0,3.8012,3.8012,3.8012,3.8012,3.8012,3.8012,3.8012,3.8012,3.8012,3.8012,3.8012,3.8012,0.0,0.0,0.0,0.0,0.0,0.0,0.0,0.0,0.0,0.0,0.0,0.0,0.0,0.0,0.0,4.1213,4.1213,4.1213,4.1213,4.1418,4.1947,4.2489,4.2994,4.3469,4.4003,4.4285,4.4285,4.4285,4.4285,4.4285,4.4285,4.4285,4.4285,4.4285,4.4285,4.4285,4.4285,4.4285,4.4285,4.4285,4.4285,4.4285,4.4285,4.4285,4.4285,4.4285,4.4285,4.4285,4.4285,4.4285,4.4285,4.4285,4.3451,4.242,0.0,0.0,0.0,0.0,0.0,0.0,0.0,0.0,0.0,0.0,0.0,0.0,0.0,0.0,0.0,0.0,2.3694,2.4808,2.4509,2.6049,2.7353,2.8259,2.8852,2.9589,3.0466,3.0956,3.1362,3.1705,3.1705,3.1972,3.2503,3.2671,3.3189,3.4006,3.4186,3.4462,3.4799,3.4799,3.4799,3.4823,3.4979,3.5268,0.0,0.0,0.0,0.0,0.0,0.0,0.0,0.0,3.8012,3.8012,3.8012,3.8012,3.8012,3.8012,3.8012,3.8012,3.8012,3.8012,3.8012,0.0,0.0,0.0,0.0,0.0,0.0,0.0,0.0,0.0,0.0,0.0,0.0,0.0,0.0,0.0,4.0812,4.1076,4.1213,4.1213,4.1213,4.1357,4.1718,4.2224,4.2753,4.3228,4.3751,4.4124,4.4273,4.4285,4.4285,4.4285,4.4285,4.4285,4.4285,4.4285,4.4285,4.4285,4.4285,4.4285,4.4285,4.4285,4.4285,4.4285,4.4285,4.4285,4.4285,4.4285,4.4285,4.4285,4.4285,4.4285,4.4285,4.4285,4.3713,4.3063,0.0,0.0,0.0,0.0,0.0,0.0,0.0,0.0,2.1696,2.1696,2.1696,0.0,0.0,0.0,0.0,0.0,2.2567,2.3509,2.4445,2.5337,2.6553,2.8229,2.8554,2.9278,3.0478,3.0835,3.1241,3.1705,3.1717,3.1984,3.2515,3.3056,3.3573,3.4018,3.4571,3.4799,3.4799,3.4799,3.4799,3.4859,3.5376,3.5604,3.5724,0.0,0.0,0.0,0.0,0.0,0.0,0.0,3.8012,3.8012,3.8012,3.8012,3.8012,3.8012,3.8012,3.8012,3.8012,3.8012,0.0,0.0,0.0,0.0,0.0,0.0,0.0,0.0,0.0,0.0,0.0,0.0,0.0,0.0,0.0,3.9789,4.0319,4.0848,4.1213,4.1213,4.1213,4.1213,4.1213,4.1694,4.2224,4.2741,4.3228,4.3727,4.4249,4.4285,4.4285,4.4285,4.4285,4.4285,4.4285,4.4285,4.4285,4.4285,4.4285,4.4285,4.4285,4.4285,4.4285,4.4285,4.4285,4.4285,4.4285,4.4285,4.4285,4.4285,4.4285,4.4285,4.4285,4.4285,4.4285,4.4285,0.0,0.0,0.0,0.0,0.0,0.0,0.0,0.0,2.1696,2.1696,2.1696,0.0,0.0,0.0,0.0,0.0,0.0,0.0,2.4477,2.6295,2.7448,2.7663,2.8692,2.9769,3.0826,3.1257,3.1562,3.1705,3.208,3.2527,3.3068,3.3549,3.4066,3.4571,3.4739,3.4799,3.4799,3.4799,3.5015,3.5376,3.5532,3.6037,3.6759,0.0,0.0,0.0,0.0,0.0,0.0,0.0,0.0,0.0,3.8012,3.8012,3.8012,3.8012,3.8012,3.8012,3.8012,3.8012,0.0,0.0,0.0,0.0,0.0,0.0,0.0,0.0,0.0,0.0,0.0,0.0,0.0,0.0,0.0,3.9789,4.0319,4.0848,4.1213,4.1213,4.1213,4.1213,4.1213,4.1694,4.2067,4.2224,4.3012,4.3559,4.3715,4.41,4.4285,4.4285,4.4285,4.4285,4.4285,4.4285,4.4285,4.4285,4.4285,4.4285,4.4285,4.4285,4.4285,4.4285,4.4285,4.4285,4.4285,4.4285,4.4285,4.4285,4.4285,4.4285,4.4285,4.4285,4.4285,4.4285,0.0,0.0,0.0,0.0,0.0,0.0,0.0,0.0,2.1696,2.1696,2.1696,2.1696,0.0,0.0,0.0,0.0,0.0,0.0,2.4477,2.598,2.6986,2.7316,2.8344,2.9554,3.0972,3.1451,3.1791,3.202,3.2334,3.2767,3.3319,3.3778,3.4306,3.4799,3.4799,3.4799,3.4823,3.5027,3.5304,3.5628,3.6074,3.6627,3.7216,0.0,0.0,0.0,0.0,0.0,0.0,0.0,0.0,0.0,3.8012,3.8012,3.8012,3.8012,3.8012,3.8012,3.8012,0.0,0.0,0.0,0.0,0.0,0.0,0.0,0.0,0.0,0.0,0.0,0.0,0.0,0.0,3.8704,3.926,3.9789,4.0319,4.0848,4.1213,4.1213,4.1213,4.1213,4.1213,4.1502,4.1779,4.1983,4.2543,4.3084,4.3493,4.3799,4.4087,4.4273,4.4285,4.4285,4.4285,4.4285,4.4285,4.4285,4.4285,4.4285,4.4285,4.4285,4.4285,4.4285,4.4285,4.4285,4.4285,4.4285,4.4285,4.4285,4.4285,4.4285,4.4285,4.4285,4.4285,4.4285,0.0,0.0,2.1696,2.1696,0.0,0.0,0.0,0.0,2.1696,2.1696,2.1696,2.1696,0.0,0.0,0.0,0.0,0.0,0.0,2.4357,2.4887,2.5762,2.7105,2.7874,2.9128,3.095,3.1451,3.196,3.2503,3.2551,3.2839,3.3368,3.385,3.4318,3.4799,3.4799,3.4835,3.4907,3.5388,3.5652,3.582,3.6807,3.7228,3.7324,3.7793,0.0,0.0,0.0,0.0,0.0,0.0,0.0,0.0,3.8012,3.8012,3.8012,3.8012,3.8012,3.8012,0.0,0.0,0.0,0.0,0.0,0.0,0.0,0.0,0.0,0.0,0.0,0.0,0.0,0.0,3.8193,3.8704,3.926,3.9789,4.0319,4.0848,4.1213,4.1213,4.1213,4.1213,4.1213,4.1213,4.1406,4.1887,4.1971,4.2404,4.3313,4.3421,4.3643,4.416,4.4172,4.4196,4.4244,4.4244,4.4268,4.4285,4.4285,4.4285,4.4285,4.4285,4.4285,4.4285,4.4285,4.4285,4.4285,4.4285,4.4285,4.4285,4.4285,4.4285,4.4285,4.4285,4.4285,4.4285,0.0,0.0,2.1696,2.1696,0.0,0.0,0.0,0.0,0.0,0.0,0.0,0.0,0.0,0.0,0.0,0.0,0.0,0.0,0.0,2.4984,2.5965,2.6695,2.9071,3.0564,3.0995,3.1451,3.196,3.2503,3.2911,3.338,3.3862,3.439,3.4691,3.4799,3.4799,3.5027,3.5424,3.5544,3.6098,3.6879,3.7096,3.7445,3.7856,3.7964,3.8012,0.0,0.0,0.0,0.0,0.0,0.0,0.0,3.8012,3.8012,3.8012,3.8012,3.8012,3.8012,0.0,0.0,0.0,0.0,0.0,0.0,0.0,0.0,0.0,0.0,0.0,0.0,0.0,3.8012,3.8193,3.8704,3.926,3.9789,4.0319,4.0848,4.1213,4.1213,4.1213,4.1213,4.1213,4.1213,4.1261,4.1369,4.1767,4.2103,4.232,4.2729,4.3006,4.3126,4.3126,4.3289,4.3655,4.3667,4.3883,4.4285,4.4285,4.4285,4.4285,4.4285,4.4285,4.4285,4.4285,4.4285,4.4285,4.4285,4.4285,4.4285,4.4285,4.4285,4.4285,4.4285,4.4285,4.4285,0.0,0.0,0.0,0.0,0.0,0.0,0.0,0.0,0.0,0.0,0.0,0.0,0.0,0.0,0.0,0.0,0.0,0.0,0.0,2.4336,2.5355,2.6817,2.8583,2.992,3.0781,3.1395,3.2035,3.269,3.3094,3.3549,3.4006,3.4559,3.4799,3.4811,3.5075,3.5328,3.5628,3.6158,3.6687,3.7216,3.7469,3.776,3.8012,3.8012,3.8012,3.8012,3.8012,0.0,0.0,0.0,0.0,0.0,0.0,0.0,3.8012,3.8012,3.8012,3.8012,0.0,0.0,0.0,0.0,0.0,0.0,0.0,0.0,0.0,0.0,0.0,0.0,3.8012,3.8012,3.8193,3.8704,3.926,3.9789,4.0319,4.0848,4.1213,4.1213,4.1213,4.1213,4.1213,4.1213,4.1213,4.1213,4.1466,4.173,4.1983,4.226,4.2525,4.2777,4.2789,4.2922,4.3144,4.3144,4.3301,4.3589,4.3589,4.3589,4.3601,4.4087,4.4285,4.4285,4.4285,4.4285,4.4285,4.4285,4.4285,4.4285,4.4285,4.4285,4.4285,4.4285,4.4285,4.4285,0.0,0.0,0.0,0.0,0.0,0.0,0.0,0.0,0.0,0.0,0.0,0.0,0.0,0.0,0.0,0.0,0.0,0.0,0.0,0.0,0.0,2.7097,2.7947,2.9084,3.0578,3.1284,3.202,3.284,3.3156,3.3573,3.409,3.457,3.4799,3.4823,3.5352,3.564,3.5784,3.6783,3.724,3.7372,3.7832,3.8012,3.8012,3.8012,3.8012,3.8012,3.8012,3.8012,3.8012,3.8012,0.0,0.0,0.0,0.0,3.8012,3.8012,3.8012,3.8012,0.0,0.0,0.0,0.0,0.0,0.0,0.0,0.0,0.0,0.0,0.0,3.8012,3.8012,3.8012,3.8193,3.8704,3.926,3.9789,4.0319,4.0848,4.1213,4.1213,4.1213,4.1213,4.1213,4.1213,4.1213,4.1213,4.1213,4.1406,4.1839,4.1863,4.2067,4.2501,4.2513,4.2561,4.2657,4.2657,4.2705,4.2789,4.2789,4.2789,4.2825,4.3673,4.4039,4.4039,4.4039,4.4087,4.4172,4.4172,4.4232,4.4285,4.4285,4.4285,4.4285,4.4285,4.4285,4.4285,0.0,0.0,0.0,0.0,0.0,0.0,0.0,0.0,0.0,0.0,2.1696,2.1696,0.0,2.202,2.2222,2.2222,2.2584,2.3015,2.3498,0.0,0.0,2.7179,2.9154,3.0363,3.0588,3.1094,3.1749,3.2559,3.3063,3.3659,3.435,3.4653,3.4799,3.4823,3.5352,3.5869,3.6338,3.694,3.7457,3.7904,3.7976,3.8012,3.8012,3.8012,3.8012,3.8012,3.8012,3.8012,3.8012,3.8012,3.8012,0.0,0.0,0.0,3.8012,3.8012,3.8012,3.8012,0.0,0.0,0.0,0.0,0.0,0.0,0.0,0.0,0.0,0.0,3.8012,3.8012,3.8012,3.8012,3.8193,3.8704,3.926,3.9789,4.0319,4.0848,4.1213,4.1213,4.1213,4.1213,4.1213,4.1213,4.1213,4.1213,4.1213,4.1249,4.1309,4.1321,4.1345,4.1418,4.1418,4.1646,4.2103,4.2103,4.2344,4.2789,4.2789,4.2789,4.2789,4.2934,4.3006,4.3006,4.3006,4.3216,4.3595,4.3595,4.3871,4.4285,4.4285,4.4285,4.4285,4.4285,4.4285,4.4285,0.0,0.0,0.0,0.0,0.0,0.0,0.0,0.0,0.0,0.0,0.0,2.2048,2.2048,2.2414,2.2629,2.2629,2.2995,2.3431,2.3859,2.5431,2.6604,2.7189,2.8841,3.0011,3.06,3.1354,3.2069,3.2723,3.3361,3.4018,3.4628,3.475,3.4799,3.4847,3.5664,3.6182,3.6459,3.7288,3.7769,3.8012,3.8012,3.8012,3.8012,3.8012,3.8012,3.8012,3.8012,0.0,3.8012,3.8012,3.8012,3.8012,3.8012,0.0,0.0,0.0,3.8012,0.0,0.0,0.0,0.0,0.0,0.0,0.0,0.0,0.0,0.0,3.8012,3.8012,3.8012,3.8012,3.8012,3.8096,3.831,3.9056,3.9681,3.9922,4.0667,4.1213,4.1213,4.1213,4.1213,4.1213,4.1213,4.1213,4.1213,4.1213,4.1213,4.1213,4.1213,4.1213,4.1213,4.1213,4.1321,4.1562,4.1562,4.1682,4.1911,4.1911,4.1911,4.1911,4.1911,4.2224,4.2789,4.2789,4.2922,4.3126,4.3126,4.3397,4.3847,4.3847,4.4039,4.4285,4.4285,4.4285,4.4285,0.0,0.0,0.0,0.0,0.0,0.0,0.0,0.0,0.0,0.0,0.0,2.246,2.246,0.0,0.0,0.0,2.344,2.3831,2.4183,2.5377,2.6422,2.7166,2.8598,2.9817,3.0775,3.1548,3.2273,3.2983,3.3612,3.4198,3.4702,3.4775,3.4871,3.5039,3.5965,3.6483,3.6663,3.7589,3.8012,3.8012,3.8012,3.8012,3.8012,3.8012,3.8012,3.8012,3.8012,0.0,0.0,0.0,0.0,0.0,0.0,0.0,0.0,0.0,0.0,0.0,0.0,0.0,0.0,0.0,0.0,0.0,0.0,0.0,3.8012,0.0,3.8012,3.8012,3.8012,3.8012,3.8012,3.8012,3.8791,3.9425,3.9585,4.0403,4.1069,4.1172,4.1213,4.1213,4.1213,4.1213,4.1213,4.1213,4.1213,4.1213,4.1213,4.1213,4.1213,4.1213,4.1213,4.1213,4.1213,4.1213,4.1213,4.1213,4.1213,4.1213,4.1213,4.1213,4.1646,4.2392,4.2392,4.2464,4.2597,4.2597,4.2886,4.3325,4.3457,4.3739,4.4124,4.4268,4.4285,4.4285,0.0,0.0,0.0,0.0,0.0,0.0,0.0,0.0,0.0,0.0,0.0,2.2876,2.2876,2.3224,2.3462,2.3462,2.3886,2.4183,2.4202,2.6027,2.7142,2.7213,2.9096,0.0,3.1333,3.1414,3.2043,3.3289,3.3564,3.397,3.4433,3.4677,3.5075,3.558,3.6158,3.6675,3.7192,3.7772,0.0,0.0,3.8012,3.8012,3.8012,3.8012,0.0,0.0,0.0,0.0,0.0,0.0,0.0,0.0,0.0,0.0,0.0,0.0,0.0,0.0,0.0,0.0,0.0,0.0,0.0,0.0,0.0,0.0,3.8012,3.8012,3.8012,3.8012,3.8012,3.8012,3.8012,3.8012,3.8479,3.9032,3.9537,4.009,4.0619,4.1153,4.1213,4.1213,4.1213,4.1213,4.1213,4.1213,4.1213,4.1213,4.1213,4.1213,4.1213,4.1213,4.1213,4.1213,4.1213,4.1213,4.1213,4.1213,4.1213,4.1213,4.1213,4.1213,4.1249,4.1285,4.1285,4.1574,4.2043,4.2043,4.2356,4.2874,4.3325,4.3529,4.3583,4.4124,4.4285,4.4285,0.0,0.0,0.0,0.0,0.0,0.0,0.0,0.0,0.0,0.0,0.0,0.0,0.0,2.3694,2.3957,2.3957,2.469,2.5167,2.5167,2.7057,2.8166,2.8166,2.9646,3.0765,3.1402,3.2042,3.2759,3.3552,3.4126,3.4473,3.4653,3.475,3.5268,3.6134,3.6314,3.6699,3.7228,3.7757,0.0,0.0,0.0,0.0,0.0,0.0,0.0,0.0,0.0,0.0,0.0,0.0,0.0,0.0,0.0,0.0,0.0,0.0,0.0,0.0,0.0,0.0,0.0,3.8012,3.8012,3.8012,3.8012,3.8012,3.8012,3.8012,3.8012,3.8012,3.8012,3.8012,3.8012,3.8012,3.8455,3.886,3.9068,3.985,4.0463,4.0655,4.098,4.1213,4.1213,4.1213,4.1213,4.1213,4.1213,4.1213,4.1213,4.1213,4.1213,4.1213,4.1213,4.1213,4.1213,4.1213,4.1213,4.1213,4.1213,4.1213,4.1213,4.1213,4.1213,4.1213,4.1213,4.1321,4.1502,4.1502,4.1803,4.2296,4.2477,4.2928,4.3529,4.3715,4.4003,4.4285,0.0,0.0,0.0,0.0,0.0,2.2584,2.2867,2.3023,2.3105,2.3105,0.0,0.0,0.0,0.0,2.4563,2.4226,2.5182,2.5795,2.5795,2.7696,2.8952,2.9199,3.0274,3.1285,3.2148,3.257,3.3197,3.4054,3.4294,3.457,3.4799,3.4979,3.5532,3.6411,3.6591,3.6964,0.0,0.0,0.0,3.8012,0.0,0.0,3.8012,0.0,0.0,0.0,0.0,0.0,0.0,0.0,0.0,0.0,0.0,0.0,0.0,0.0,0.0,0.0,3.8012,0.0,0.0,0.0,0.0,3.8012,3.8012,3.8012,3.8012,3.8012,3.8012,3.8012,3.8012,3.8012,3.8012,3.8012,3.8298,3.8599,3.8764,3.9429,3.9934,4.0114,4.0595,4.092,4.092,4.1076,4.1213,4.1213,4.1213,4.1213,4.1213,4.1213,4.1213,4.1213,4.1213,4.1213,4.1213,4.1213,4.1213,4.1213,4.1213,4.1213,4.1213,4.1213,4.1213,4.1213,4.1213,4.1213,4.1213,4.1213,4.1418,4.1755,4.1935,4.2416,4.3036,4.3385,4.3715,4.4063,0.0,0.0,2.2913,2.2922,2.2922,2.2931,2.294,2.327,2.3541,2.3556,0.0,0.0,0.0,0.0,0.0,2.439,2.5407,2.6113,2.6113,2.806,2.9513,3.024,3.1031,3.2148,3.3672,3.2936,3.328,3.4775,3.4078,3.4102,3.4811,3.5352,3.5905,3.6423,3.6952,3.7507,3.8012,0.0,3.8012,3.8012,0.0,3.8012,3.8012,0.0,0.0,0.0,3.8012,3.8012,0.0,0.0,0.0,0.0,0.0,0.0,0.0,0.0,0.0,0.0,0.0,0.0,0.0,0.0,0.0,0.0,3.8012,3.8012,3.8012,3.8012,3.8012,3.8012,3.8012,3.8012,3.8012,3.8012,3.8012,3.8166,3.8692,3.8788,3.8981,3.9525,4.0054,4.0379,4.0379,4.0848,4.1189,4.1189,4.1201,4.1213,4.1213,4.1213,4.1213,4.1213,4.1213,4.1213,4.1213,4.1213,4.1213,4.1213,4.1213,4.1213,4.1213,4.1213,4.1213,4.1213,4.1213,4.1213,4.1213,4.1213,4.1213,4.1261,4.1779,4.1983,4.2128,4.3096,4.3481,4.3577,0.0,2.2904,2.2995,2.3279,2.3334,2.3459,2.38,2.3938,2.4272,0.0,0.0,0.0,2.5509,2.5824,2.624,2.6812,2.8076,2.8886,2.903,3.0633,3.1657,3.1844,3.2265,3.2783,3.3385,3.3529,3.3887,3.4506,3.4497,3.4594,3.4811,3.5352,3.5905,3.6423,3.6952,3.7507,3.8012,3.8012,0.0,0.0,3.8012,3.8012,0.0,0.0,0.0,0.0,0.0,3.8012,0.0,0.0,3.8012,3.8012,0.0,0.0,0.0,0.0,0.0,0.0,3.8012,0.0,0.0,0.0,0.0,0.0,3.8012,3.8012,3.8012,3.8012,3.8012,3.8012,3.8012,3.8012,3.8012,3.8012,3.8012,3.806,3.819,3.8563,3.8848,3.8993,3.9501,3.9826,3.9826,4.0306,4.0619,4.0619,4.0968,4.1213,4.1213,4.1213,4.1213,4.1213,4.1213,4.1213,4.1213,4.1213,4.1213,4.1213,4.1213,4.1213,4.1213,4.1213,4.1213,4.1213,4.1213,4.1213,4.1213,4.1213,4.1213,4.1196,4.1369,4.1658,4.2031,4.232,4.2669,4.3078,2.3431,2.3431,2.3529,2.3758,2.3794,2.3877,2.4165,2.4202,2.4578,0.0,0.0,0.0,2.7639,2.7431,2.7552,2.8476,2.9771,3.0577,3.0697,3.1937,3.2794,3.3114,3.3196,3.3458,3.3909,3.3983,3.4186,3.458,3.451,3.4703,3.5147,3.5676,3.623,3.6759,3.7288,3.7723,3.8012,0.0,0.0,0.0,3.8012,0.0,0.0,3.8012,3.8012,0.0,0.0,0.0,3.8012,3.8012,3.8012,0.0,0.0,0.0,0.0,0.0,0.0,0.0,0.0,0.0,0.0,0.0,0.0,0.0,3.8012,3.8012,3.8012,3.8012,3.8012,3.8012,3.8012,3.8012,3.8012,3.8012,3.8012,3.8012,3.8012,3.8262,3.8467,3.8467,3.8948,3.9272,3.9272,3.9753,4.0066,4.0066,4.0355,4.0619,4.0848,4.1093,4.1213,4.1213,4.1213,4.1213,4.1213,4.1213,4.1213,4.1213,4.1213,4.1213,4.1213,4.1213,4.1213,4.1213,4.1213,4.1213,4.1213,4.1213,4.1213,4.1213,4.1213,4.1406,4.1694,4.1923,4.22,4.2537,0.0,2.4202,2.4202,2.4202,2.4202,2.4251,2.439,2.439,2.4898,0.0,2.7375,2.8619,3.0156,2.9527,2.9246,2.9862,3.099,3.167,3.1694,3.2582,3.3386,3.4054,3.3935,3.4126,3.4799,3.4318,3.433,3.4799,3.4366,3.4667,3.5604,3.6218,3.6747,3.7216,3.7772,3.8012,3.8012,0.0,0.0,3.8012,3.8012,3.8012,0.0,0.0,3.8012,0.0,3.8012,3.8012,3.8012,3.8012,3.8012,0.0,0.0,0.0,0.0,0.0,3.8012,0.0,0.0,0.0,0.0,0.0,0.0,0.0,3.8012,3.8012,3.8012,3.8012,3.8012,3.8012,3.8012,3.8012,3.8012,3.8012,3.8012,3.8012,3.8012,3.8012,3.8012,3.8012,3.8419,3.8704,3.8704,3.9212,3.9525,3.9525,3.9573,3.9813,4.0282,4.0812,4.11,4.11,4.1177,4.1213,4.1213,4.1213,4.1213,4.1213,4.1213,4.1213,4.1213,4.1213,4.1213,4.1213,4.1213,4.1213,4.1213,4.1213,4.1213,4.1213,4.1213,4.1213,4.1273,4.1742,4.1911,4.1983,2.4202,2.4202,2.4202,2.4202,2.4202,2.4529,2.5509,2.5654,2.6561,2.9054,3.0122,3.0805,3.1133,3.099,3.1333,3.2453,3.2983,3.3315,3.3494,3.4078,3.4498,3.4643,3.4606,3.4642,3.4799,3.4703,3.4703,3.4799,3.5123,3.5388,3.5616,3.6591,3.7096,3.7216,3.7772,3.8012,3.8012,0.0,0.0,3.8012,3.8012,0.0,3.8012,3.8012,3.8012,3.8012,3.8012,3.8012,3.8012,0.0,3.8012,3.8012,0.0,0.0,0.0,0.0,0.0,0.0,0.0,0.0,0.0,0.0,0.0,0.0,3.8012,3.8012,3.8012,3.8012,3.8012,3.8012,3.8012,3.8012,3.8012,3.8012,3.8012,3.8012,3.8012,3.8012,3.8012,3.8012,3.8082,3.8169,3.8169,3.8647,3.8945,3.8945,3.9369,3.9657,3.9753,4.0258,4.0547,4.0547,4.0956,4.1213,4.1213,4.1213,4.1213,4.1213,4.1213,4.1213,4.1213,4.1213,4.1213,4.1213,4.1213,4.1213,4.1213,4.1213,4.1213,4.1213,4.1213,4.1213,4.1196,4.1333,4.1369,4.1442,2.4548,2.4548,2.4711,2.5197,2.4873,2.5084,2.6693,2.6742,2.751,3.0077,3.1551,3.2429,3.2675,3.2698,3.3054,3.3982,3.4162,3.4282,3.4378,3.4655,3.4799,3.4799,3.4799,3.4799,3.4799,3.4799,3.4931,3.5195,3.546,3.5856,3.6411,3.6952,3.7336,3.7627,3.7892,3.8012,3.8012,0.0,3.8012,3.8012,3.8012,0.0,3.8012,3.8012,3.8012,3.8012,3.8012,3.8012,3.8012,3.8012,3.8012,0.0,0.0,3.8012,3.8012,0.0,3.8012,3.8012,0.0,0.0,0.0,3.8012,0.0,0.0,0.0,3.8012,3.8012,3.8012,3.8012,3.8012,3.8012,3.8012,3.8012,3.8012,3.8012,3.8012,3.8012,3.8012,3.8012,3.8012,3.8012,3.8012,3.8012,3.8238,3.8395,3.8395,3.89,3.9212,3.9212,3.9717,4.0114,4.0391,4.0655,4.092,4.1213,4.1213,4.1213,4.1213,4.1213,4.1213,4.1213,4.1213,4.1213,4.1213,4.1213,4.1213,4.1213,4.1213,4.1213,4.1213,4.1213,4.1213,4.1213,4.1213,4.1213,4.1249,2.5167,2.5191,2.5523,2.6522,2.6096,2.6252,2.8122,2.8192,2.8785,3.0968,3.2629,3.3741,3.4126,3.4138,3.4342,3.4763,3.4799,3.4799,3.4799,3.4799,3.4799,3.4799,3.4799,3.4847,3.4955,3.4955,3.522,3.5736,3.5869,3.6362,3.7192,3.73,3.7603,3.8012,3.8012,3.8012,0.0,0.0,0.0,3.8012,0.0,3.8012,3.8012,3.8012,3.8012,3.8012,3.8012,3.8012,3.8012,3.8012,0.0,3.8012,3.8012,3.8012,0.0,0.0,0.0,0.0,0.0,0.0,0.0,0.0,0.0,3.8012,0.0,0.0,0.0,3.8012,3.8012,3.8012,3.8012,3.8012,3.8012,3.8012,3.8012,3.8012,3.8012,3.8012,3.8012,3.8012,3.8012,3.8012,3.8012,3.8012,3.8012,3.8012,3.8395,3.8659,3.8659,3.9137,3.9645,4.0078,4.0186,4.0499,4.1028,4.1069,4.1117,4.1213,4.1213,4.1213,4.1213,4.1213,4.1213,4.1213,4.1213,4.1213,4.1213,4.1213,4.1213,4.1213,4.1213,4.1213,4.1213,4.1213,4.1213,4.1213,2.6157,2.6244,2.6546,2.7547,2.8026,2.8732,3.0079,3.0647,3.1563,3.3375,3.4198,3.4655,0.0,0.0,0.0,0.0,0.0,0.0,3.4799,0.0,3.4799,3.4799,3.4799,3.5027,3.5496,3.5508,3.576,3.6314,3.6783,3.7072,3.7204,3.7699,3.7952,3.8012,3.8012,0.0,0.0,0.0,3.8012,0.0,3.8012,3.8012,0.0,3.8012,3.8012,3.8012,3.8012,3.8012,3.8012,0.0,3.8012,3.8012,0.0,3.8012,0.0,0.0,0.0,0.0,0.0,0.0,0.0,0.0,3.8012,0.0,0.0,0.0,3.8012,3.8012,0.0,0.0,0.0,0.0,0.0,3.8012,3.8012,3.8012,3.8012,3.8012,3.8012,3.8012,3.8012,3.8012,3.8012,3.8012,3.8012,3.8012,3.8072,3.8096,3.8096,3.8611,3.8908,3.8996,3.9453,3.9958,4.0487,4.0487,4.0715,4.1213,4.1213,4.1213,4.1213,4.1213,4.1213,4.1213,4.1213,4.1213,4.1213,4.1213,4.1213,4.1213,4.1213,4.1213,4.1213,4.1213,4.1213,4.1213,2.7054,2.7119,2.7833,2.9412,2.9653,3.0188,3.1915,3.2594,3.3267,3.433,3.4667,3.4799,0.0,0.0,0.0,0.0,0.0,0.0,0.0,0.0,3.54,3.57,3.5724,3.582,3.6062,3.6074,3.6338,3.6855,3.7084,3.7348,3.7661,3.7878,3.8012,3.8012,3.8012,0.0,3.8012,0.0,3.8012,0.0,0.0,0.0,0.0,3.8012,3.8012,3.8012,3.8012,3.8012,3.8012,0.0,3.8012,0.0,0.0,0.0,0.0,0.0,0.0,0.0,0.0,0.0,0.0,0.0,0.0,0.0,3.8012,0.0,3.8012,0.0,0.0,0.0,0.0,0.0,0.0,0.0,3.8012,3.8012,3.8012,3.8012,3.8012,3.8012,3.8012,3.8012,3.8012,3.8012,3.8012,3.8012,3.8012,3.8012,3.8012,3.8202,3.8479,3.8788,3.9032,3.9405,3.9934,4.0246,4.0499,4.0727,4.1069,4.1213,4.1213,4.1213,4.1213,4.1213,4.1213,4.1213,4.1213,4.1213,4.1213,4.1213,4.1213,4.1213,4.1213,4.1213,4.1213,4.1213,2.8704,0.0,2.9583,3.1344,3.1463,3.1865,3.3469,3.3994,3.4366,0.0,0.0,0.0,3.4799,3.4799,0.0,0.0,0.0,3.5027,0.0,0.0,3.5832,3.6386,3.6411,0.0,0.0,3.6615,3.6879,3.7409,3.7409,3.7627,3.8012,3.8012,3.8012,3.8012,0.0,3.8012,3.8012,0.0,0.0,3.8012,3.8012,3.8012,3.8012,3.8012,3.8012,3.8012,3.8012,3.8012,3.8012,3.8012,3.8012,0.0,3.8012,0.0,0.0,0.0,0.0,0.0,3.8012,0.0,0.0,0.0,0.0,0.0,0.0,0.0,0.0,0.0,0.0,0.0,0.0,0.0,3.8012,3.8012,0.0,3.8012,3.8012,3.8012,3.8012,3.8012,3.8012,3.8012,3.8012,3.8012,3.8012,3.8012,3.8012,3.8012,3.8012,3.8012,3.8166,3.8575,3.8587,3.8852,3.9393,3.9777,4.003,4.0186,4.0715,4.0968,4.0996,4.1124,4.1213,4.1213,4.1213,4.1213,4.1213,4.1213,4.1213,4.1213,4.1213,4.1213,4.1213,4.1213,4.1213,4.1213,3.1472,3.1661,0.0,0.0,0.0,3.409,3.4655,3.4763,0.0,0.0,0.0,0.0,0.0,0.0,0.0,0.0,0.0,3.5027,3.5556,0.0,3.5832,0.0,0.0,0.0,0.0,0.0,3.7433,3.7976,3.7976,3.7988,3.8012,3.8012,3.8012,3.8012,3.8012,3.8012,3.8012,3.8012,3.8012,3.8012,3.8012,3.8012,3.8012,0.0,3.8012,3.8012,3.8012,0.0,0.0,3.8012,3.8012,0.0,0.0,0.0,0.0,0.0,0.0,0.0,0.0,0.0,0.0,3.8012,0.0,0.0,0.0,0.0,3.8012,0.0,0.0,0.0,0.0,0.0,3.8012,3.8012,3.8012,0.0,0.0,3.8012,3.8012,3.8012,3.8012,3.8012,3.8012,3.8012,3.8012,3.8012,3.8012,3.8012,3.8012,3.8012,3.8012,3.8036,3.8036,3.8274,3.8812,3.8836,3.9101,3.9633,4.0162,4.0427,4.0439,4.0944,4.1213,4.1213,4.1213,4.1213,4.1213,4.1213,4.1213,4.1213,4.1213,4.1213,4.1213,4.1213,4.1213,4.1213,3.3729,0.0,0.0,0.0,0.0,0.0,0.0,3.4799,0.0,0.0,0.0,0.0,0.0,0.0,3.5328,0.0,0.0,3.6098,3.6627,3.6663,0.0,0.0,0.0,3.7529,0.0,0.0,0.0,0.0,3.8012,3.8012,3.8012,3.8012,3.8012,3.8012,3.8012,3.8012,0.0,0.0,0.0,0.0,0.0,3.8012,3.8012,0.0,3.8012,3.8012,3.8012,3.8012,0.0,3.8012,3.8012,3.8012,3.8012,3.8012,3.8012,3.8012,3.8012,3.8012,0.0,0.0,3.8012,3.8012,0.0,0.0,0.0,0.0,0.0,0.0,0.0,0.0,0.0,0.0,3.8012,3.8012,3.8012,3.8012,0.0,3.8012,3.8012,3.8012,0.0,0.0,3.8012,3.8012,3.8012,3.8012,3.8012,3.8012,3.8012,3.8012,3.8012,3.8012,3.8012,3.8096,3.8262,3.8608,3.8884,3.9065,3.9621,4.0054,4.0403,4.0583,4.0848,4.1213,4.1213,4.1213,4.1213,4.1213,4.1213,4.1213,4.1213,4.1069,4.0867,4.0867,4.0867,4.0838,3.4799,0.0,0.0,0.0,0.0,0.0,0.0,0.0,0.0,0.0,3.4967,0.0,3.5087,0.0,3.5868,0.0,3.6206,3.6627,3.7156,3.7192,0.0,3.7988,3.8012,0.0,0.0,0.0,0.0,0.0,0.0,3.8012,3.8012,3.8012,3.8012,3.8012,3.8012,3.8012,3.8027,0.0,3.8358,0.0,0.0,3.8012,0.0,0.0,3.8332,3.8012,0.0,3.8012,3.8012,3.8012,3.8012,3.8012,3.8012,3.8012,3.8012,3.8012,3.8012,3.8012,3.8012,3.8012,0.0,3.8012,3.8012,0.0,3.8012,0.0,0.0,0.0,0.0,0.0,0.0,0.0,3.8133,3.8516,3.8265,3.8012,0.0,3.8012,3.8012,3.8012,0.0,0.0,0.0,3.8012,3.8012,3.8012,3.8012,3.8012,3.8012,3.8012,3.8012,3.8012,3.8012,3.8012,3.8012,3.8334,3.8527,3.8527,3.9068,3.9501,3.9838,4.0222,4.0583,4.092,4.1129,4.1213,4.1184,4.1069,4.1098,4.1184,4.0942,4.0781,4.0694,4.0694,4.0607,4.0479,3.4799,0.0,0.0,0.0,3.4799,0.0,0.0,0.0,3.4847,0.0,3.5316,3.5628,3.5628,3.6134,3.6447,3.6447,3.6471,0.0,3.7204,3.7228,0.0,0.0,3.8012,3.8012,3.8012,0.0,0.0,0.0,0.0,0.0,3.8012,3.8012,3.8012,3.8012,3.8012,0.0,3.8053,3.9144,3.9052,3.8159,3.8027,3.8053,3.8265,3.917,3.8922,3.808,3.808,3.8065,3.8012,3.8012,3.8012,3.8012,3.8012,3.8012,3.8012,3.8012,3.8012,3.8012,3.8012,3.8012,3.8012,3.8012,3.8012,0.0,0.0,0.0,3.8012,0.0,0.0,0.0,0.0,0.0,0.0,3.9351,3.8673,3.8012,3.8012,3.8012,3.8012,0.0,0.0,0.0,0.0,3.8012,3.8012,3.8012,3.8012,3.8012,3.8012,3.8012,3.8012,3.8012,3.8012,3.8012,3.8012,3.8012,3.8012,3.8012,3.8527,3.8764,3.8824,3.9862,4.0343,4.0427,4.0948,4.1189,4.1184,4.0838,4.0896,4.1098,4.0467,4.0392,4.0665,4.0665,4.045,4.0118,3.4799,3.4799,3.4799,0.0,3.4799,3.4931,0.0,0.0,0.0,0.0,3.6122,3.6194,3.6194,3.6675,3.6988,3.6988,3.7348,0.0,0.0,0.0,0.0,3.8,3.8012,3.8012,3.8012,3.8012,0.0,3.8012,0.0,0.0,3.8012,3.8012,3.8012,3.8012,3.8012,3.8012,3.8053,3.9144,3.9905,4.0236,3.8647,3.8974,4.0236,0.0,3.8739,3.9196,3.9196,3.8673,3.8012,3.8012,3.8012,3.8012,3.8012,3.8012,3.8012,3.8012,3.8012,3.8012,3.8012,3.8012,3.8012,3.8012,3.8012,3.8012,3.8012,0.0,0.0,0.0,0.0,0.0,0.0,0.0,0.0,3.8489,3.8185,3.8012,0.0,0.0,0.0,3.8012,0.0,0.0,3.8012,3.8012,3.8012,3.8012,3.8012,3.8012,3.8012,3.8012,3.8012,3.8012,3.8012,3.8012,3.8012,3.8012,3.8012,3.8012,3.813,3.8419,3.88,3.9104,3.9657,4.0403,4.0535,4.0824,4.1184,4.0838,4.0752,4.0781,4.0351,4.013,4.0036,4.0036,3.982,3.9503,3.4799,0.0,0.0,3.5111,0.0,0.0,3.5569,0.0,0.0,3.6362,3.6717,0.0,3.6747,3.7332,3.7724,3.7724,3.8002,0.0,0.0,0.0,0.0,3.8171,3.8065,3.8012,3.8012,3.8012,0.0,3.8012,0.0,0.0,3.8012,3.8012,3.8012,3.8012,3.8012,3.8012,3.8039,3.8647,3.9777,4.1019,3.887,3.9273,0.0,3.9351,3.9066,3.9609,3.9609,3.8922,3.8012,3.8012,3.8012,3.8012,3.8012,3.8012,3.8012,3.8012,3.8012,3.8012,3.8012,3.8012,3.8012,3.8012,3.8012,3.8012,3.8012,3.8358,3.887,0.0,3.9981,4.0427,0.0,0.0,0.0,0.0,0.0,0.0,0.0,0.0,0.0,0.0,3.8012,3.8012,3.8012,3.8012,3.8012,3.8012,3.8012,3.8012,3.8012,3.8012,3.8012,3.8012,3.8012,3.8012,3.8012,3.8012,3.8012,3.8012,3.8012,3.8154,3.8467,3.868,3.914,3.9717,3.9806,4.0173,4.0595,4.0136,4.0162,4.045,4.013,3.9837,3.9585,3.9585,3.9455,3.9308,0.0,0.0,0.0,0.0,0.0,0.0,0.0,3.6294,0.0,3.6705,0.0,3.7664,3.743,3.8024,3.8435,3.8435,0.0,3.8552,3.8788,3.8566,3.8514,3.8659,3.8449,3.8384,3.8504,3.8358,0.0,0.0,0.0,3.8012,3.8012,3.8012,3.8012,3.8012,3.8012,0.0,0.0,3.8265,3.9532,4.1419,3.9118,3.9571,4.1468,3.9956,3.9545,3.9777,3.948,3.8792,3.8012,3.8012,3.8012,3.8012,3.8012,3.8012,3.8012,3.8012,3.8012,3.8012,3.8012,3.8012,3.8012,3.8012,3.8118,3.8212,3.8212,3.9052,3.9853,3.9981,4.0755,4.1692,4.2622,0.0,0.0,0.0,0.0,0.0,0.0,0.0,0.0,0.0,0.0,0.0,3.8012,3.8012,3.8012,3.8012,3.8012,3.8012,3.8012,3.8012,3.8012,3.8012,3.8012,3.8012,3.8012,3.8012,3.8012,3.8012,3.8012,3.8012,3.8024,3.8479,3.8716,3.8812,3.8994,3.9371,3.9751,3.9153,3.9354,3.9966,3.9796,3.9555,3.9308,3.9308,3.9308,3.9308,0.0,0.0,0.0,0.0,0.0,3.7313,3.7262,3.7564,3.795,3.8315,3.8514,3.8563,3.8511,3.8649,3.8736,3.8736,3.8736,0.0,0.0,0.0,0.0,4.0007,4.0007,4.0363,4.1191,4.0198,3.9661,0.0,3.853,3.8012,3.8012,3.8012,3.8012,3.8012,3.8012,0.0,4.0591,3.9712,0.0,4.3576,4.0528,4.1131,4.3433,3.9699,3.9377,4.0692,3.8922,3.8159,3.8012,3.8012,3.8012,3.8012,3.8012,3.8012,3.8012,3.8012,3.8012,3.8012,3.8012,3.8012,3.8012,3.8012,3.8673,3.9325,3.9325,4.016,4.1156,4.2072,4.239,4.2574,4.2768,4.1777,0.0,0.0,0.0,0.0,0.0,0.0,0.0,0.0,0.0,3.8974,3.808,3.8012,3.8012,3.8012,3.8012,3.8012,3.8012,3.8012,3.8012,3.8012,3.8012,3.8012,3.8012,3.8012,3.8012,3.8012,3.8012,3.8012,3.8012,3.8109,3.8383,3.88,3.8612,3.8836,3.9284,3.8679,3.8584,3.892,3.9235,3.9338,3.9308,3.9308,3.9308,3.9308,0.0,0.0,0.0,0.0,0.0,0.0,0.0,3.8756,0.0,3.8816,3.8945,3.8998,3.8815,3.8945,3.9271,3.9789,3.984,4.0147,4.0843,4.0211,4.0313,4.1392,4.078,0.0,4.1883,4.1303,4.0666,4.0007,3.9494,3.8818,3.8012,3.8145,3.8145,3.8027,3.8594,3.9403,0.0,4.0414,4.1654,4.3324,4.0679,4.153,4.3983,4.0249,3.9828,4.0994,3.9403,3.8463,3.8012,3.8012,3.8012,3.8012,3.8012,3.8012,3.8012,3.8012,3.8012,3.8012,3.8012,3.8012,3.8133,3.8699,3.9222,3.9751,4.0313,4.1256,4.217,4.2695,4.3239,4.3467,4.2889,4.2379,0.0,0.0,0.0,0.0,0.0,0.0,0.0,0.0,0.0,0.0,0.0,0.0,0.0,0.0,0.0,3.8012,3.8012,3.8012,3.8012,3.8012,3.8012,3.8012,3.8012,3.8012,3.8012,3.8012,3.8012,3.8012,3.8012,3.8012,3.813,3.8356,3.8099,3.818,3.8501,3.8169,3.8096,3.8258,3.8734,3.8929,3.8964,3.9216,3.9308,3.9308,0.0,3.6932,0.0,0.0,3.8624,0.0,3.9828,4.0185,4.0019,3.9102,3.9401,3.9595,3.9337,3.975,4.0364,4.1143,4.1218,4.1665,4.2744,4.1813,4.1701,4.2751,4.18,4.1726,4.2724,4.2469,4.1724,0.0,4.0452,3.9609,3.8092,3.8356,3.8461,3.8475,3.9248,3.9853,4.0325,4.1181,4.2159,4.2961,4.1043,4.1925,4.4054,4.1081,4.0617,4.1369,4.0058,3.9052,3.8317,3.808,3.8012,3.8012,3.8012,3.8012,3.8012,3.8012,3.8012,3.8012,3.8012,3.8012,3.8265,3.9325,3.9777,4.0236,4.1294,4.2379,4.3143,4.3143,4.3804,4.4054,4.2999,4.2999,4.2806,0.0,0.0,0.0,0.0,0.0,0.0,0.0,0.0,0.0,4.0032,3.9532,3.8988,3.8384,3.8133,3.8012,3.8012,3.8012,3.8012,3.8012,3.8012,3.8012,3.8012,3.8012,3.8012,3.8012,3.8012,3.8012,3.8012,3.8012,3.8012,3.7986,3.7637,3.7513,3.7559,3.761,3.7632,3.7678,3.8206,3.8413,3.8459,3.8837,3.9055,3.9147,0.0,0.0,0.0,0.0,0.0,0.0,4.1959,4.2341,4.1815,3.9878,4.0427,4.1007,4.0969,4.1876,4.2525,4.2585,4.2609,4.2671,4.2792,4.2695,4.3067,4.4088,4.3994,4.4429,4.5512,4.4331,4.3204,0.0,0.0,3.9686,3.8356,3.8631,3.9129,3.9802,3.9661,4.0679,4.2525,4.2622,4.3276,4.4162,4.2974,4.3276,4.4162,4.1914,4.1716,4.239,4.0325,3.9532,3.9299,3.8332,3.8012,3.8012,3.8012,3.8012,3.8012,3.8012,3.8012,3.8012,3.8012,3.8012,3.8265,3.9325,4.0338,4.1344,4.2404,4.3481,4.4256,4.4256,4.434,4.4054,4.2999,4.36,4.3899,0.0,0.0,0.0,0.0,0.0,0.0,0.0,0.0,0.0,0.0,3.9299,3.8516,3.9377,3.8542,3.8012,3.8012,3.8012,3.8012,3.8012,3.8012,3.8012,3.8012,3.8012,3.8012,3.8012,3.8012,3.8012,3.8012,3.8012,3.8012,3.7959,3.74,3.687,3.649,3.6886,3.7076,3.7133,3.7666,3.7862,3.7862,3.7907,3.824,3.8683,0.0,0.0,0.0,0.0,0.0,0.0,0.0,4.273,4.2501,4.168,4.1914,4.2146,4.2146,4.2536,4.3057,4.364,4.3687,4.3961,4.462,4.4055,4.4172,4.521,4.4629,4.4805,4.588,4.537,4.4508,0.0,0.0,0.0,3.9609,3.9853,4.0338,4.0981,4.1517,4.2157,4.284,4.3505,4.4007,4.4317,4.3215,4.3444,4.4247,4.2733,4.2023,4.1728,4.0869,3.9725,3.8568,3.8133,3.8012,3.8012,3.8012,3.8012,3.8012,3.8012,3.8012,3.8012,3.8012,3.8463,3.9222,4.0287,4.1356,4.2428,4.3529,4.4078,4.4387,4.4387,4.4387,4.4256,4.3828,4.4101,4.4256,4.3828,0.0,0.0,0.0,0.0,0.0,0.0,0.0,0.0,0.0,4.0805,3.9828,3.9635,0.0,0.0,3.8012,3.8012,3.8012,3.8012,3.8012,3.8012,3.8012,3.8012,3.8012,3.8012,3.8012,3.8012,3.8012,3.8012,3.7906,3.7744,3.7105,3.6727,3.6522,3.6578,3.6576,3.6622,3.7138,3.7305,3.7368,3.7678,3.7959,3.8103,4.1095,0.0,4.2668,0.0,4.3078,4.3126,4.363,4.3701,4.3701,4.3701,4.3701,4.3583,4.3273,4.3535,4.3998,4.4712,4.4782,4.5095,4.5858,4.5187,4.5118,4.5858,4.5164,0.0,4.588,4.5903,4.5278,4.4013,4.3497,0.0,4.0993,4.1018,4.1442,4.2195,4.2803,4.3153,4.3324,4.4078,4.4387,4.434,4.3576,4.3719,4.4317,4.3553,4.2806,4.2086,4.179,4.0705,3.9313,3.8687,3.8463,3.8423,3.8106,3.8012,3.8012,3.8012,3.8012,3.8053,3.8384,3.9014,3.993,4.1306,4.2233,4.3095,4.4162,4.4387,4.4387,4.4387,4.4387,4.4387,4.4387,4.4387,4.4387,4.4387,0.0,0.0,0.0,0.0,0.0,0.0,4.3662,4.329,4.284,4.1256,4.0211,4.0084,0.0,0.0,3.8012,3.8012,3.8012,3.8012,3.8012,3.8012,3.8012,3.8012,3.8012,3.8012,3.8012,3.8012,3.8012,3.7906,3.7732,3.7423,3.6928,3.6646,3.6565,3.6375,3.6293,3.6327,3.6668,3.6778,3.6851,3.7207,3.7437,3.7563,4.2778,4.2778,4.3105,4.4125,4.4289,4.4629,4.5685,4.5858,4.5858,4.5858,4.5858,4.5467,4.4406,4.5224,4.5858,4.588,4.588,4.588,4.5903,4.588,4.588,0.0,0.0,4.588,4.5903,4.5903,4.5361,4.4312,0.0,0.0,4.235,4.1838,4.2306,4.3553,4.3047,4.3396,4.4387,4.4387,4.4387,4.4387,4.4387,4.4387,4.4387,4.4387,4.4364,4.4209,4.3167,4.2768,4.2415,4.03,3.9583,3.9403,3.8332,3.8012,3.8012,3.8012,3.8012,3.8238,3.9299,3.9583,4.0096,4.2244,4.2792,4.3095,4.4162,4.4387,4.4387,4.4387,4.4387,4.4387,4.4387,4.4387,4.4387,4.4387,4.4387,0.0,0.0,0.0,0.0,0.0,4.1876,4.1642,4.2695,3.9918,0.0,0.0,0.0,0.0,3.8065,3.8012,3.8012,3.8012,3.8012,3.8012,3.8012,3.8012,3.8012,3.8012,3.8012,3.8012,3.7986,3.7717,3.7423,3.7078,3.6808,3.6538,3.6293,3.6293,3.6293,3.6293,3.6305,3.6305,3.6305,3.6316,3.661,3.7019,4.3805,4.4396,4.5003,4.5338,4.5398,4.5512,4.5858,4.6258,4.6496,4.6496,4.6911,4.7079,4.6724,4.6229,4.5903,0.0,4.5903,4.5903,0.0,4.5903,4.5903,4.5903,4.5903,4.5903,4.5903,4.5903,4.573,4.5398,0.0,4.4088,4.3697,4.3392,4.3729,4.4602,4.4298,4.4242,4.4387,4.4387,4.4387,4.4387,4.4387,4.4387,4.4387,4.4387,4.396,4.3263,4.2913,4.1862,4.0528,3.9828,3.9092,3.8437,3.8118,3.8012,3.8133,3.887,3.8568,3.8384,4.0211,4.0692,4.1031,4.2452,4.3348,4.3983,4.4317,4.4387,4.4387,4.4387,4.4387,4.4387,4.4387,4.4387,4.4387,4.4387,4.4387,0.0,4.4387,0.0,4.4256,4.3936,4.359,4.3519,4.3851,4.1629,0.0,0.0,0.0,3.8358,3.8027,3.8687,3.8765,3.8027,3.8012,3.8012,3.8012,3.8012,3.8012,3.8012,3.8012,3.7918,3.7717,3.7411,3.7105,3.6808,3.6538,3.6375,3.6293,3.6293,3.6293,3.6293,3.6293,3.6293,3.6293,3.6293,3.6396,3.6507,4.5253,4.5976,4.6614,4.6614,4.6614,4.6614,4.6614,4.6925,4.7187,4.7187,4.7535,4.7805,4.7805,4.7094,4.6614,4.6614,4.6374,4.6243,4.6243,4.6026,4.5903,4.5903,4.5903,4.5903,4.5903,4.5903,4.5903,4.5903,4.5224,4.4897,4.4897,4.4657,4.4764,4.5101,4.4899,4.4728,4.4551,4.4551,4.4551,4.4551,4.4551,4.4481,4.4387,4.4387,4.3983,4.3396,4.3396,4.255,4.1331,4.0956,4.0376,3.9738,3.9325,3.9196,3.9248,3.9532,3.913,3.9066,4.1231,4.1815,4.2061,4.3119,4.3899,4.4387,4.4387,4.4387,4.4387,4.4387,4.4387,4.4387,4.4387,4.4387,4.4387,4.4387,4.4387,4.4387,4.4387,0.0,4.4256,0.0,0.0,4.3624,4.3242,4.1617,4.0591,4.0591,0.0,3.8437,3.8027,3.8647,3.8687,3.8027,3.8012,3.8012,3.8012,3.8012,3.8012,3.8012,3.7918,3.7771,3.7596,3.7143,3.6862,3.67,3.6429,3.6293,3.6293,3.6293,3.6293,3.6293,3.6293,3.6293,3.6293,3.6293,3.6293,3.6293,4.6873,4.7375,4.7805,4.7805,4.7805,4.7805,4.7805,4.7849,4.7863,4.7863,4.7907,4.7936,4.7936,4.7936,4.7936,4.7936,4.7288,4.6873,4.6873,4.6301,4.5953,4.5953,4.5932,4.5903,4.5903,4.5903,4.5903,4.5903,4.5903,4.5903,4.588,4.5617,4.5367,4.5124,4.4922,4.4806,4.4806,4.4806,4.4806,4.4797,4.4797,4.4644,4.4387,4.4387,4.4387,4.4387,4.4387,4.4364,4.4139,4.3143,4.2744,4.2525,4.1505,4.1194,4.1019,4.0084,3.9777,4.0173,4.2317,4.2864,4.3071,4.4125,4.4387,4.4387,4.4387,4.4387,4.4387,4.4387,4.4387,4.4387,4.4387,4.4387,4.4387,4.4387,4.4387,4.4387,4.4387,4.4387,4.403,4.3023,4.2913,4.2501,4.1419,4.0338,3.9674,3.9609,0.0,3.904,3.8053,3.8012,3.8012,3.8012,3.8012,3.8012,3.8012,3.8012,3.8012,3.8012,3.7744,3.7622,3.7569,3.7009,3.6727,3.67,3.6429,3.6332,3.6293,3.6293,3.6293,3.6293,3.6293,3.6293,3.6293,3.6293,3.6293,3.6293,4.755,4.7704,4.7805,4.7805,4.7805,4.7805,4.7805,4.8188,4.8484,4.8484,4.8928,4.9257,4.9257,4.9257,4.9257,4.9257,4.8226,4.755,4.755,4.6954,4.6583,4.6583,4.6142,4.5903,4.5903,4.5903,4.5903,4.5903,4.5903,4.5903,4.588,4.5617,4.5481,4.539,4.5138,4.5032,4.5032,4.5032,4.4931,4.4797,4.4797,4.4644,4.4387,4.4387,4.4387,4.4387,4.4387,4.3875,4.3143,4.2889,4.2257,4.1543,4.1294,4.1194,4.1319,4.1876,4.1455,4.1294,4.3433,4.342,4.3071,4.4125,4.4387,4.4387,4.4387,4.4387,4.4387,4.4387,4.4387,4.4387,4.4387,4.4387,4.4387,4.4387,4.4387,4.4387,4.4387,4.4387,4.4317,4.4054,4.403,4.36,4.2525,4.1455,4.049,3.9661,3.8844,3.8265,3.8012,3.8012,3.8012,3.8012,3.8012,3.8012,3.8012,3.8012,3.8012,3.8012,3.7933,3.7785,3.7596,3.7462,3.7155,3.67,3.6619,3.6483,3.6293,3.6293,3.6293,3.6293,3.6293,3.6293,3.6293,3.6293,3.6293,3.6293,4.8217,4.8449,4.8677,4.8677,4.8677,4.8677,4.8677,4.8943,4.9161,4.9161,4.9465,4.9693,4.9693,4.9693,4.9693,4.9693,4.8783,4.8217,4.8217,4.7622,4.7274,4.7274,4.6925,4.6644,4.633,4.6316,4.6185,4.5903,4.5903,4.5903,4.5903,4.5745,4.5617,4.5481,4.5367,4.5284,4.5284,4.5284,4.5161,4.4959,4.5258,4.5161,4.4837,4.5155,4.5268,4.5268,4.5268,4.4881,4.4353,4.4063,4.3567,4.3025,4.2755,4.266,4.2795,4.3348,4.2781,4.2282,4.396,4.3983,4.3671,4.4256,4.4387,4.4387,4.4387,4.4387,4.4387,4.4387,4.4387,4.4387,4.4387,4.4387,4.4387,4.4387,4.4387,4.4387,4.4387,4.4387,4.4387,4.4387,4.396,4.3252,4.217,4.1106,4.0032,3.8948,3.8332,3.8012,3.8012,3.8012,3.8012,3.8012,3.8012,3.8012,3.8012,3.8012,3.8012,3.8012,3.7892,3.7744,3.7596,3.7423,3.7116,3.67,3.67,3.6538,3.6293,3.6293,3.6293,3.6293,3.6293,3.6293,3.6293,3.6293,3.6293,3.6293,4.8846,4.9306,4.9693,4.9693,4.9693,4.9693,4.9693,4.9693,4.9693,4.9693,4.9693,4.9693,4.9693,4.9693,4.9693,4.9693,4.9175,4.8846,4.8846,4.8275,4.795,4.795,4.7863,4.7521,4.696,4.6946,4.6708,4.6193,4.6193,4.6193,4.6193,4.6193,4.608,4.5837,4.5837,4.5837,4.5837,4.5837,4.5686,4.5499,4.6056,4.5978,4.5569,4.6155,4.6342,4.6293,4.6293,4.6293,4.6209,4.5637,4.5384,4.5216,4.4696,4.4458,4.4387,4.4387,4.3757,4.3239,4.4162,4.4387,4.4387,4.4387,4.4387,4.4387,4.4387,4.4387,4.4387,4.4387,4.4387,4.4387,4.4387,4.4387,4.4387,4.4387,4.4387,4.4387,4.4387,4.4387,4.4387,4.4387,4.36,4.2622,4.1543,4.0465,3.9403,3.8317,3.808,3.8012,3.8012,3.8012,3.8012,3.8012,3.8012,3.8012,3.8012,3.8012,3.8012,3.8012,3.7771,3.7676,3.7649,3.7331,3.7024,3.6754,3.6727,3.6538,3.6293,3.6293,3.6293,3.6293,3.6293,3.6293,3.6293,3.6293,3.6293,3.6293,4.9548,4.9635,4.9693,4.9693,4.9693,4.9693,4.9693,4.9693,4.9693,4.9693,4.9693,4.9693,4.9693,4.9693,4.9693,4.9693,4.9606,4.9548,4.9548,4.8928,4.8556,4.8556,4.8058,4.7762,4.766,4.7637,4.7602,4.7515,4.7515,4.7515,4.7515,4.7515,4.7491,4.743,4.743,4.743,4.743,4.743,4.729,4.7055,4.7156,4.6914,4.6488,4.6611,4.6498,4.6293,4.6293,4.6293,4.6279,4.6181,4.5774,4.5286,4.5188,4.4809,4.4387,4.4387,4.428,4.4186,4.4364,4.4387,4.4387,4.4387,4.4387,4.4387,4.4387,4.4387,4.4387,4.4387,4.4387,4.4387,4.4387,4.4387,4.4387,4.4387,4.4387,4.4387,4.4387,4.4387,4.4387,4.4387,4.4256,4.3733,4.2671,4.1579,4.0516,3.9429,3.8516,3.8012,3.8012,3.8012,3.8012,3.8012,3.8012,3.8012,3.8012,3.8012,3.8012,3.8012,3.7959,3.7933,3.7933,3.7637,3.7343,3.7024,3.6808,3.6538,3.6293,3.6293,3.6293,3.6293,3.6293,3.6293,3.6293,3.6293,3.6293,3.6293,4.9693,4.9693,4.9693,4.9693,4.9693,4.9693,4.9693,4.9693,4.9693,4.9693,4.9693,4.9693,4.9693,4.9693,4.9693,4.9693,4.9693,4.9693,4.9693,4.9407,4.9233,4.9233,4.8981,4.8662,4.829,4.7956,4.7805,4.7805,4.7805,4.7805,4.7805,4.7805,4.7805,4.7805,4.7805,4.7805,4.7805,4.7805,4.765,4.7443,4.775,4.7606,4.7226,4.7542,4.7497,4.7277,4.7277,4.7277,4.7235,4.6897,4.6588,4.6199,4.5511,4.5103,4.4809,4.4486,4.4387,4.4387,4.4387,4.4387,4.4387,4.4387,4.4387,4.4387,4.4387,4.4387,4.4387,4.4387,4.4387,4.4387,4.4387,4.4387,4.4387,4.4387,4.4387,4.4387,4.4387,4.4387,4.4387,4.4387,4.3875,4.3348,4.284,4.1306,4.0363,4.0465,3.8948,3.8265,3.8844,3.8317,3.8012,3.8012,3.8012,3.8012,3.8012,3.8012,3.8012,3.8012,3.8012,3.8012,3.7986,3.7717,3.7423,3.7078,3.6808,3.6538,3.6293,3.6293,3.6293,3.6293,3.6293,3.6293,3.6293,3.6293,3.6293,3.6293,4.9693,4.9693,4.9693,4.9693,4.9693,4.9693,4.9693,4.9693,4.9693,4.9693,4.9693,4.9693,4.9693,4.9693,4.9693,4.9693,4.9693,4.9693,4.9693,4.9693,4.9693,4.9693,4.9693,4.9451,4.8933,4.8464,4.8241,4.8241,4.8241,4.8241,4.8241,4.8241,4.8241,4.8241,4.8241,4.8241,4.8241,4.8241,4.8122,4.7985,4.8451,4.8362,4.8066,4.8511,4.847,4.8182,4.8182,4.8145,4.8024,4.7561,4.7333,4.701,4.5876,4.5426,4.5188,4.457,4.4387,4.4387,4.4387,4.4387,4.4387,4.4387,4.4387,4.4387,4.4387,4.4387,4.4387,4.4387,4.4387,4.4387,4.4387,4.4387,4.4387,4.4387,4.4387,4.4387,4.4387,4.4387,4.4317,4.4054,4.33,4.2695,4.2452,4.0705,3.993,4.0768,3.9066,3.837,3.917,3.8437,3.8012,3.8012,3.8012,3.8012,3.8012,3.8012,3.8012,3.8012,3.8012,3.8012,3.7986,3.7717,3.7423,3.7078,3.6808,3.6538,3.6293,3.6293,3.6293,3.6293,3.6293,3.6293,3.6293,3.6293,3.6293,3.6293,4.9693,4.9693,4.9693,4.9693,4.9693,4.9693,4.9693,4.9693,4.9693,4.9693,4.9693,4.9693,4.9693,4.9693,4.9693,4.9693,4.9693,4.9693,4.9693,4.9693,4.9693,4.9693,4.9693,4.9679,4.9635,4.9577,4.9562,4.9562,4.9562,4.9562,4.9562,4.9562,4.9562,4.9562,4.9562,4.9562,4.9562,4.9562,4.9562,4.9538,4.9582,4.9415,4.9174,4.9217,4.892,4.847,4.847,4.8308,4.8094,4.8052,4.7659,4.7094,4.6434,4.5816,4.5188,4.457,4.4387,4.4387,4.4387,4.4387,4.4387,4.4387,4.4387,4.4387,4.4387,4.4387,4.4387,4.4387,4.4387,4.4387,4.4387,4.4387,4.4387,4.4387,4.4387,4.4387,4.4387,4.4387,4.403,4.3047,4.284,4.2404,4.1419,4.0287,3.9622,3.9699,3.8635,3.8027,3.8106,3.8027,3.8012,3.8012,3.8012,3.8012,3.8012,3.8012,3.8012,3.8012,3.8012,3.8012,3.7986,3.7717,3.7423,3.7078,3.6808,3.6538,3.6293,3.6293,3.6293,3.6293,3.6293,3.6293,3.6293,3.6293,3.6293,3.6293,4.9693,4.9693,4.9693,4.9693,4.9693,4.9693,4.9693,4.9693,4.9693,4.9693,4.9693,4.9693,4.9693,4.9693,4.9693,4.9693,4.9693,4.9693,4.9693,4.9693,4.9693,4.9693,4.9693,4.9693,4.9693,4.9693,4.9693,4.9693,4.9693,4.9693,4.9693,4.9693,4.9693,4.9693,4.9693,4.9693,4.9693,4.9693,4.9693,4.9693,4.9693,4.9537,4.9281,4.9281,4.8984,4.8481,4.8481,4.8333,4.8094,4.8094,4.7954,4.7645,4.7052,4.6434,4.5731,4.4682,4.4387,4.4387,4.4387,4.4387,4.4387,4.4387,4.4387,4.4387,4.4387,4.4387,4.4387,4.4387,4.4387,4.4387,4.4387,4.4387,4.4387,4.4387,4.4387,4.4387,4.4387,4.4387,4.4256,4.3828,4.3804,4.3372,4.2306,4.1206,4.0591,4.0591,3.9609,3.9,3.9,3.8358,3.8012,3.8012,3.8012,3.8012,3.8012,3.8012,3.8012,3.8012,3.8012,3.8012,3.7986,3.7717,3.7423,3.7078,3.6808,3.6538,3.6293,3.6293,3.6293,3.6293,3.6293,3.6293,3.6293,3.6293,3.6293,3.6293,4.9693,4.9693,4.9693,4.9693,4.9693,4.9693,4.9693,4.9693,4.9693,4.9693,4.9693,4.9693,4.9693,4.9693,4.9693,4.9693,4.9693,4.9693,4.9693,4.9693,4.9693,4.9693,4.9693,4.9693,4.9693,4.9693,4.9693,4.9693,4.9693,4.9693,4.9693,4.9693,4.9693,4.9693,4.9693,4.9693,4.9693,4.9693,4.9693,4.9693,4.9693,4.9585,4.9428,4.9428,4.9143,4.8745,4.8745,4.8585,4.8347,4.8258,4.8232,4.8108,4.7428,4.6645,4.5788,4.4696,4.4387,4.4387,4.4387,4.4387,4.4387,4.4387,4.4387,4.4387,4.4387,4.4387,4.4387,4.4387,4.4387,4.4387,4.4387,4.4387,4.4387,4.4387,4.4387,4.4387,4.4387,4.4387,4.4294,4.3936,4.3899,4.3348,4.1925,4.1131,4.0566,4.0211,3.9506,3.9104,3.9104,3.8384,3.8012,3.8012,3.8012,3.8012,3.8012,3.8012,3.8012,3.8012,3.8012,3.8012,3.7986,3.7812,3.7557,3.7251,3.7062,3.6766,3.644,3.644,3.6375,3.6293,3.6293,3.6293,3.6293,3.6293,3.6293,3.6293,4.9693,4.9693,4.9693,4.9693,4.9693,4.9693,4.9693,4.9693,4.9693,4.9693,4.9693,4.9693,4.9693,4.9693,4.9693,4.9693,4.9693,4.9693,4.9693,4.9693,4.9693,4.9693,4.9693,4.9693,4.9693,4.9693,4.9693,4.9693,4.9693,4.9693,4.9693,4.9693,4.9693,4.9693,4.9693,4.9693,4.9693,4.9693,4.9693,4.9693,4.9693,4.9693,4.9693,4.9693,4.9537,4.9281,4.9281,4.9132,4.8845,4.8595,4.8481,4.8332,4.7464,4.6325,4.5188,4.457,4.4387,4.4387,4.4387,4.4387,4.4387,4.4387,4.4387,4.4387,4.4387,4.4387,4.4387,4.4387,4.4387,4.4387,4.4387,4.4387,4.4387,4.4387,4.4387,4.4387,4.4387,4.4387,4.3983,4.2913,4.2792,4.1936,3.9802,3.9609,3.9144,3.808,3.8012,3.8012,3.8012,3.8012,3.8012,3.8012,3.8012,3.8012,3.8012,3.8012,3.8012,3.8012,3.8012,3.8012,3.8012,3.8012,3.7838,3.7596,3.7596,3.7262,3.67,3.67,3.6538,3.6293,3.6293,3.6293,3.6293,3.6293,3.6293,3.6293,4.9693,4.9693,4.9693,4.9693,4.9693,4.9693,4.9693,4.9693,4.9693,4.9693,4.9693,4.9693,4.9693,4.9693,4.9693,4.9693,4.9693,4.9693,4.9693,4.9693,4.9693,4.9693,4.9693,4.9693,4.9693,4.9693,4.9693,4.9693,4.9693,4.9693,4.9693,4.9693,4.9693,4.9693,4.9693,4.9693,4.9693,4.9693,4.9693,4.9693,4.9693,4.9693,4.9693,4.9693,4.9537,4.9281,4.9281,4.9009,4.862,4.8545,4.8369,4.8108,4.7428,4.6659,4.5872,4.5216,4.4724,4.4387,4.4387,4.4387,4.4387,4.4387,4.4387,4.4387,4.4387,4.4387,4.4387,4.4387,4.4387,4.4387,4.4387,4.4387,4.4387,4.4387,4.4387,4.4387,4.4387,4.3757,4.3167,4.284,4.2135,4.1131,3.9725,3.9609,3.9144,3.808,3.8012,3.8332,3.9066,3.9118,3.8765,3.8027,3.8739,3.8765,3.8012,3.8012,3.8012,3.8012,3.8012,3.8012,3.8012,3.8012,3.7838,3.7596,3.7596,3.7262,3.67,3.67,3.6538,3.6293,3.6293,3.6293,3.6293,3.6293,3.6293,3.6293,4.9693,4.9693,4.9693,4.9693,4.9693,4.9693,4.9693,4.9693,4.9693,4.9693,4.9693,4.9693,4.9693,4.9693,4.9693,4.9693,4.9693,4.9693,4.9693,4.9693,4.9693,4.9693,4.9693,4.9693,4.9693,4.9693,4.9693,4.9693,4.9693,4.9693,4.9693,4.9693,4.9693,4.9693,4.9693,4.9693,4.9693,4.9693,4.9693,4.9693,4.9693,4.9693,4.9693,4.9693,4.961,4.9477,4.9477,4.9242,4.893,4.8745,4.8409,4.7982,4.7378,4.6799,4.6167,4.5497,4.4865,4.4387,4.4387,4.4387,4.4387,4.4387,4.4387,4.4387,4.4387,4.4387,4.4387,4.4387,4.4387,4.4387,4.4387,4.4387,4.4387,4.4387,4.403,4.3936,4.434,4.3108,4.2317,4.2744,4.1864,4.0768,3.9699,3.9609,3.9144,3.808,3.8012,3.8279,3.8948,3.8974,3.8661,3.8027,3.8647,3.8673,3.8012,3.8012,3.8012,3.8012,3.8012,3.8012,3.8012,3.8012,3.7906,3.7771,3.7771,3.7411,3.6862,3.6862,3.6646,3.6293,3.6293,3.6293,3.6293,3.6293,3.6293,3.6293,4.9693,4.9693,4.9693,4.9693,4.9693,4.9693,4.9693,4.9693,4.9693,4.9693,4.9693,4.9693,4.9693,4.9693,4.9693,4.9693,4.9693,4.9693,4.9693,4.9693,4.9693,4.9693,4.9693,4.9693,4.9693,4.9693,4.9693,4.9693,4.9693,4.9693,4.9693,4.9693,4.9693,4.9693,4.9693,4.9693,4.9693,4.9693,4.9693,4.9693,4.9693,4.9693,4.9693,4.9693,4.9693,4.9693,4.9693,4.9669,4.9585,4.9044,4.8509,4.7996,4.7434,4.6869,4.6251,4.5581,4.4949,4.4458,4.4401,4.4387,4.4387,4.4387,4.4387,4.4387,4.4387,4.4387,4.4387,4.4387,4.4387,4.4387,4.4387,4.4387,4.4387,4.4387,4.3576,4.3276,4.4256,4.2539,4.1568,4.2536,4.1629,4.0541,3.9545,3.9454,3.904,3.8053,3.8012,3.8012,3.8012,3.808,3.8106,3.8012,3.808,3.8092,3.8012,3.8012,3.8012,3.8012,3.8012,3.8012,3.8012,3.8012,3.8012,3.8012,3.7959,3.764,3.7105,3.7078,3.6754,3.6293,3.6293,3.6293,3.6293,3.6293,3.6293,3.6293,4.9693,4.9693,4.9693,4.9693,4.9693,4.9693,4.9693,4.9693,4.9693,4.9693,4.9693,4.9693,4.9693,4.9693,4.9693,4.9693,4.9693,4.9693,4.9693,4.9693,4.9693,4.9693,4.9693,4.9693,4.9693,4.9693,4.9693,4.9693,4.9693,4.9693,4.9693,4.9693,4.9693,4.9693,4.9693,4.9693,4.9693,4.9693,4.9693,4.9693,4.9693,4.9693,4.9693,4.9693,4.9693,4.9693,4.9693,4.9561,4.9305,4.877,4.8384,4.808,4.7954,4.7477,4.6883,4.6265,4.5609,4.5005,4.4514,4.4387,4.4387,4.4387,4.4387,4.4387,4.4387,4.4387,4.4387,4.4387,4.4387,4.4387,4.4387,4.4387,4.4387,4.4387,4.4209,4.4125,4.4364,4.2539,4.1294,4.1518,3.9853,3.8582,3.837,3.8344,3.8265,3.8027,3.8012,3.8012,3.8012,3.8792,3.887,3.8039,3.8818,3.8844,3.8012,3.8012,3.8012,3.8012,3.8012,3.8012,3.8012,3.8012,3.8012,3.7986,3.7797,3.7465,3.7078,3.6862,3.6592,3.6293,3.6293,3.6293,3.6293,3.6293,3.6293,3.6293,4.9693,4.9693,4.9693,4.9693,4.9693,4.9693,4.9693,4.9693,4.9693,4.9693,4.9693,4.9693,4.9693,4.9693,4.9693,4.9693,4.9693,4.9693,4.9693,4.9693,4.9693,4.9693,4.9693,4.9693,4.9693,4.9693,4.9693,4.9693,4.9693,4.9693,4.9693,4.9693,4.9693,4.9693,4.9693,4.9693,4.9693,4.9693,4.9693,4.9693,4.9693,4.9693,4.9693,4.9693,4.9693,4.9693,4.9693,4.9438,4.9058,4.8645,4.8333,4.8094,4.8094,4.7687,4.7094,4.6476,4.583,4.5174,4.4556,4.4387,4.4387,4.4387,4.4387,4.4387,4.4387,4.4387,4.4387,4.4387,4.4387,4.4387,4.4387,4.4387,4.4387,4.4387,4.396,4.3828,4.434,4.2539,4.1394,4.19,4.0071,3.8568,3.8065,3.8463,3.8542,3.8039,3.8012,3.8012,3.8012,3.8542,3.8594,3.8027,3.9052,3.9066,3.8012,3.8516,3.8516,3.8012,3.8012,3.8012,3.8012,3.8012,3.8012,3.7986,3.7838,3.7518,3.7078,3.6943,3.6727,3.6483,3.6347,3.6375,3.6483,3.6347,3.6293,3.6293,4.9693,4.9693,4.9693,4.9693,4.9693,4.9693,4.9693,4.9693,4.9693,4.9693,4.9693,4.9693,4.9693,4.9693,4.9693,4.9693,4.9693,4.9693,4.9693,4.9693,4.9693,4.9693,4.9693,4.9693,4.9693,4.9693,4.9693,4.9693,4.9693,4.9693,4.9693,4.9693,4.9693,4.9693,4.9693,4.9693,4.9693,4.9693,4.9693,4.9693,4.9693,4.9693,4.9693,4.9693,4.9693,4.9693,4.9693,4.9365,4.8845,4.8595,4.8333,4.8094,4.8094,4.7757,4.7249,4.6631,4.5998,4.5328,4.471,4.4472,4.4387,4.4387,4.4387,4.4387,4.4387,4.4387,4.4387,4.4387,4.4387,4.4387,4.4387,4.4387,4.4387,4.4387,4.3648,4.3372,4.4256,4.2709,4.1741,4.2452,4.0616,3.8974,3.808,3.8792,3.8974,3.8053,3.8012,3.8012,3.8012,3.8012,3.8012,3.8012,3.887,3.8896,3.8012,3.887,3.887,3.8012,3.8012,3.8012,3.8012,3.8012,3.8012,3.8012,3.7959,3.764,3.7185,3.7105,3.697,3.6727,3.6456,3.651,3.6673,3.6402,3.6293,3.6293,4.9693,4.9693,4.9693,4.9693,4.9693,4.9693,4.9693,4.9693,4.9693,4.9693,4.9693,4.9693,4.9693,4.9693,4.9693,4.9693,4.9693,4.9693,4.9693,4.9693,4.9693,4.9693,4.9693,4.9693,4.9693,4.9693,4.9693,4.9693,4.9693,4.9693,4.9693,4.9693,4.9693,4.9693,4.9693,4.9693,4.9693,4.9693,4.9693,4.9693,4.9693,4.9693,4.9693,4.9693,4.9693,4.9693,4.9693,4.9365,4.8845,4.8595,4.8333,4.8094,4.8094,4.8038,4.7856,4.7277,4.6645,4.6026,4.5356,4.4795,4.4387,4.4387,4.4387,4.4387,4.4387,4.4387,4.4387,4.4387,4.4387,4.4387,4.4387,4.4387,4.4387,4.4387,4.4294,4.4233,4.4387,4.3348,4.2306,4.1518,3.9519,3.8159,3.8012,3.8133,3.8159,3.8012,3.8012,3.8012,3.8012,3.8012,3.8012,3.8012,3.8133,3.8159,3.8012,3.8133,3.8133,3.8012,3.8012,3.8012,3.8012,3.8012,3.8012,3.7986,3.7744,3.7622,3.7515,3.7224,3.7078,3.7024,3.6754,3.6673,3.6673,3.6402,3.6293,3.6293,4.9693,4.9693,4.9693,4.9693,4.9693,4.9693,4.9693,4.9693,4.9693,4.9693,4.9693,4.9693,4.9693,4.9693,4.9693,4.9693,4.9693,4.9693,4.9693,4.9693,4.9693,4.9693,4.9693,4.9693,4.9693,4.9693,4.9693,4.9693,4.9693,4.9693,4.9693,4.9693,4.9693,4.9693,4.9693,4.9693,4.9693,4.9693,4.9693,4.9693,4.9693,4.9693,4.9693,4.9693,4.9693,4.9644,4.9365,4.9093,4.8834,4.8409,4.8196,4.8094,4.8094,4.8094,4.7982,4.7364,4.6771,4.6153,4.5483,4.4851,4.4387,4.4387,4.4387,4.4387,4.4387,4.4387,4.4387,4.4387,4.4387,4.4387,4.4387,4.4387,4.4387,4.4387,4.4387,4.4186,4.36,4.3095,4.217,4.0516,4.0007,3.9325,3.8106,3.8542,3.8647,3.8065,3.8012,3.8012,3.8012,3.8012,3.8012,3.8012,3.8594,3.8621,3.8012,3.8594,3.8594,3.8012,3.8012,3.8012,3.8012,3.8012,3.8012,3.7986,3.7865,3.7744,3.7596,3.7423,3.737,3.7331,3.6874,3.6619,3.6456,3.6347,3.6293,3.6293]}]]